<?xml version="1.0" encoding="UTF-8" standalone="no" ?>
<gpx xmlns="http://www.topografix.com/GPX/1/1" xmlns:xsi="http://www.w3.org/2001/XMLSchema-instance" xsi:schemaLocation="http://www.topografix.com/GPX/1/1 http://www.topografix.com/GPX/1/1/gpx.xsd" version="1.1" creator="VisuGPX - https://www.visugpx.com">
  <metadata>
    <name>Pilon du Roi</name>
    <desc><![CDATA[Belle ballade avec vue : Ste Victoire, Ventoux, Alpilles, Berre, et de l'autre côté, Marseille (un peu car derrière l'Etoile), le planier, Ste Baume, contrefort des Alpes...
à faire, même en hiver]]></desc>
  </metadata>
  <trk>
    <name><![CDATA[Simiane-Collongue Marche]]></name>
    <trkseg>
      <trkpt lat="43.41367" lon="5.44109">
        <ele>321.79998779297</ele>
        <time>2018-10-30T08:02:32.000Z</time>
      </trkpt>
      <trkpt lat="43.41365" lon="5.44105">
        <ele>321.20001220703</ele>
        <time>2018-10-30T08:02:37.000Z</time>
      </trkpt>
      <trkpt lat="43.41359" lon="5.44091">
        <ele>321.60000610352</ele>
        <time>2018-10-30T08:02:46.000Z</time>
      </trkpt>
      <trkpt lat="43.41352" lon="5.44085">
        <ele>321.79998779297</ele>
        <time>2018-10-30T08:02:53.000Z</time>
      </trkpt>
      <trkpt lat="43.41345" lon="5.44082">
        <ele>322</ele>
        <time>2018-10-30T08:03:01.000Z</time>
      </trkpt>
      <trkpt lat="43.41339" lon="5.4408">
        <ele>322.60000610352</ele>
        <time>2018-10-30T08:03:10.000Z</time>
      </trkpt>
      <trkpt lat="43.41336" lon="5.44078">
        <ele>322.79998779297</ele>
        <time>2018-10-30T08:03:13.000Z</time>
      </trkpt>
      <trkpt lat="43.41331" lon="5.44075">
        <ele>323.20001220703</ele>
        <time>2018-10-30T08:03:18.000Z</time>
      </trkpt>
      <trkpt lat="43.41325" lon="5.44072">
        <ele>323.20001220703</ele>
        <time>2018-10-30T08:03:24.000Z</time>
      </trkpt>
      <trkpt lat="43.41318" lon="5.44072">
        <ele>323.60000610352</ele>
        <time>2018-10-30T08:03:31.000Z</time>
      </trkpt>
      <trkpt lat="43.41317" lon="5.44073">
        <ele>323.79998779297</ele>
        <time>2018-10-30T08:03:32.000Z</time>
      </trkpt>
      <trkpt lat="43.41314" lon="5.44077">
        <ele>324.39999389648</ele>
        <time>2018-10-30T08:03:36.000Z</time>
      </trkpt>
      <trkpt lat="43.41312" lon="5.44081">
        <ele>323.60000610352</ele>
        <time>2018-10-30T08:03:41.000Z</time>
      </trkpt>
      <trkpt lat="43.4131" lon="5.44087">
        <ele>325.39999389648</ele>
        <time>2018-10-30T08:03:46.000Z</time>
      </trkpt>
      <trkpt lat="43.41309" lon="5.4409">
        <ele>326.60000610352</ele>
        <time>2018-10-30T08:03:49.000Z</time>
      </trkpt>
      <trkpt lat="43.41308" lon="5.44097">
        <ele>326.20001220703</ele>
        <time>2018-10-30T08:03:54.000Z</time>
      </trkpt>
      <trkpt lat="43.41306" lon="5.44106">
        <ele>327</ele>
        <time>2018-10-30T08:04:00.000Z</time>
      </trkpt>
      <trkpt lat="43.41305" lon="5.44109">
        <ele>327.20001220703</ele>
        <time>2018-10-30T08:04:03.000Z</time>
      </trkpt>
      <trkpt lat="43.41305" lon="5.4411">
        <ele>327.20001220703</ele>
        <time>2018-10-30T08:04:04.000Z</time>
      </trkpt>
      <trkpt lat="43.41306" lon="5.44116">
        <ele>327.39999389648</ele>
        <time>2018-10-30T08:04:10.000Z</time>
      </trkpt>
      <trkpt lat="43.41306" lon="5.44124">
        <ele>327.20001220703</ele>
        <time>2018-10-30T08:04:17.000Z</time>
      </trkpt>
      <trkpt lat="43.41306" lon="5.44128">
        <ele>327.79998779297</ele>
        <time>2018-10-30T08:04:20.000Z</time>
      </trkpt>
      <trkpt lat="43.41305" lon="5.44133">
        <ele>327.79998779297</ele>
        <time>2018-10-30T08:04:23.000Z</time>
      </trkpt>
      <trkpt lat="43.41303" lon="5.44147">
        <ele>328.20001220703</ele>
        <time>2018-10-30T08:04:32.000Z</time>
      </trkpt>
      <trkpt lat="43.41301" lon="5.44158">
        <ele>327.79998779297</ele>
        <time>2018-10-30T08:04:38.000Z</time>
      </trkpt>
      <trkpt lat="43.41301" lon="5.44168">
        <ele>328.20001220703</ele>
        <time>2018-10-30T08:04:44.000Z</time>
      </trkpt>
      <trkpt lat="43.41301" lon="5.44178">
        <ele>328.60000610352</ele>
        <time>2018-10-30T08:04:48.000Z</time>
      </trkpt>
      <trkpt lat="43.413" lon="5.44186">
        <ele>328.79998779297</ele>
        <time>2018-10-30T08:04:53.000Z</time>
      </trkpt>
      <trkpt lat="43.413" lon="5.44188">
        <ele>328.79998779297</ele>
        <time>2018-10-30T08:04:54.000Z</time>
      </trkpt>
      <trkpt lat="43.41301" lon="5.44194">
        <ele>328.60000610352</ele>
        <time>2018-10-30T08:04:57.000Z</time>
      </trkpt>
      <trkpt lat="43.413" lon="5.44197">
        <ele>328.60000610352</ele>
        <time>2018-10-30T08:04:59.000Z</time>
      </trkpt>
      <trkpt lat="43.41301" lon="5.44206">
        <ele>329</ele>
        <time>2018-10-30T08:05:05.000Z</time>
      </trkpt>
      <trkpt lat="43.41302" lon="5.44209">
        <ele>329.20001220703</ele>
        <time>2018-10-30T08:05:07.000Z</time>
      </trkpt>
      <trkpt lat="43.41302" lon="5.44214">
        <ele>329.20001220703</ele>
        <time>2018-10-30T08:05:10.000Z</time>
      </trkpt>
      <trkpt lat="43.413" lon="5.44221">
        <ele>329.20001220703</ele>
        <time>2018-10-30T08:05:15.000Z</time>
      </trkpt>
      <trkpt lat="43.413" lon="5.44227">
        <ele>329.39999389648</ele>
        <time>2018-10-30T08:05:20.000Z</time>
      </trkpt>
      <trkpt lat="43.413" lon="5.44242">
        <ele>330</ele>
        <time>2018-10-30T08:05:29.000Z</time>
      </trkpt>
      <trkpt lat="43.41299" lon="5.44245">
        <ele>330.20001220703</ele>
        <time>2018-10-30T08:05:31.000Z</time>
      </trkpt>
      <trkpt lat="43.41298" lon="5.44264">
        <ele>330.60000610352</ele>
        <time>2018-10-30T08:05:42.000Z</time>
      </trkpt>
      <trkpt lat="43.41297" lon="5.44267">
        <ele>330.60000610352</ele>
        <time>2018-10-30T08:05:44.000Z</time>
      </trkpt>
      <trkpt lat="43.41296" lon="5.44271">
        <ele>330.79998779297</ele>
        <time>2018-10-30T08:05:46.000Z</time>
      </trkpt>
      <trkpt lat="43.41294" lon="5.44286">
        <ele>331</ele>
        <time>2018-10-30T08:05:54.000Z</time>
      </trkpt>
      <trkpt lat="43.41291" lon="5.443">
        <ele>331.60000610352</ele>
        <time>2018-10-30T08:06:04.000Z</time>
      </trkpt>
      <trkpt lat="43.41289" lon="5.44309">
        <ele>332</ele>
        <time>2018-10-30T08:06:09.000Z</time>
      </trkpt>
      <trkpt lat="43.41288" lon="5.44318">
        <ele>332.20001220703</ele>
        <time>2018-10-30T08:06:15.000Z</time>
      </trkpt>
      <trkpt lat="43.41287" lon="5.44333">
        <ele>333</ele>
        <time>2018-10-30T08:06:24.000Z</time>
      </trkpt>
      <trkpt lat="43.41286" lon="5.44338">
        <ele>332.79998779297</ele>
        <time>2018-10-30T08:06:27.000Z</time>
      </trkpt>
      <trkpt lat="43.41282" lon="5.44352">
        <ele>333.60000610352</ele>
        <time>2018-10-30T08:06:36.000Z</time>
      </trkpt>
      <trkpt lat="43.41281" lon="5.44364">
        <ele>333.60000610352</ele>
        <time>2018-10-30T08:06:46.000Z</time>
      </trkpt>
      <trkpt lat="43.41281" lon="5.44365">
        <ele>333.79998779297</ele>
        <time>2018-10-30T08:06:47.000Z</time>
      </trkpt>
      <trkpt lat="43.41278" lon="5.44378">
        <ele>334</ele>
        <time>2018-10-30T08:06:56.000Z</time>
      </trkpt>
      <trkpt lat="43.41278" lon="5.44397">
        <ele>334</ele>
        <time>2018-10-30T08:07:08.000Z</time>
      </trkpt>
      <trkpt lat="43.41278" lon="5.44412">
        <ele>334.20001220703</ele>
        <time>2018-10-30T08:07:17.000Z</time>
      </trkpt>
      <trkpt lat="43.41278" lon="5.44427">
        <ele>334.39999389648</ele>
        <time>2018-10-30T08:07:26.000Z</time>
      </trkpt>
      <trkpt lat="43.41278" lon="5.4443">
        <ele>334.60000610352</ele>
        <time>2018-10-30T08:07:28.000Z</time>
      </trkpt>
      <trkpt lat="43.41278" lon="5.44434">
        <ele>334.60000610352</ele>
        <time>2018-10-30T08:07:32.000Z</time>
      </trkpt>
      <trkpt lat="43.41275" lon="5.4445">
        <ele>335</ele>
        <time>2018-10-30T08:07:42.000Z</time>
      </trkpt>
      <trkpt lat="43.41275" lon="5.44455">
        <ele>335.20001220703</ele>
        <time>2018-10-30T08:07:45.000Z</time>
      </trkpt>
      <trkpt lat="43.41273" lon="5.44461">
        <ele>335.39999389648</ele>
        <time>2018-10-30T08:07:49.000Z</time>
      </trkpt>
      <trkpt lat="43.41273" lon="5.44463">
        <ele>335.39999389648</ele>
        <time>2018-10-30T08:07:50.000Z</time>
      </trkpt>
      <trkpt lat="43.41272" lon="5.44475">
        <ele>335.60000610352</ele>
        <time>2018-10-30T08:07:59.000Z</time>
      </trkpt>
      <trkpt lat="43.4127" lon="5.44483">
        <ele>335.60000610352</ele>
        <time>2018-10-30T08:08:04.000Z</time>
      </trkpt>
      <trkpt lat="43.4127" lon="5.44491">
        <ele>336</ele>
        <time>2018-10-30T08:08:09.000Z</time>
      </trkpt>
      <trkpt lat="43.41269" lon="5.44495">
        <ele>336.39999389648</ele>
        <time>2018-10-30T08:08:12.000Z</time>
      </trkpt>
      <trkpt lat="43.41269" lon="5.445">
        <ele>336.79998779297</ele>
        <time>2018-10-30T08:08:14.000Z</time>
      </trkpt>
      <trkpt lat="43.41268" lon="5.44506">
        <ele>337</ele>
        <time>2018-10-30T08:08:18.000Z</time>
      </trkpt>
      <trkpt lat="43.41268" lon="5.44517">
        <ele>337.39999389648</ele>
        <time>2018-10-30T08:08:24.000Z</time>
      </trkpt>
      <trkpt lat="43.41267" lon="5.44525">
        <ele>337.60000610352</ele>
        <time>2018-10-30T08:08:28.000Z</time>
      </trkpt>
      <trkpt lat="43.41263" lon="5.44534">
        <ele>337.79998779297</ele>
        <time>2018-10-30T08:08:33.000Z</time>
      </trkpt>
      <trkpt lat="43.41259" lon="5.44541">
        <ele>338</ele>
        <time>2018-10-30T08:08:38.000Z</time>
      </trkpt>
      <trkpt lat="43.41258" lon="5.44544">
        <ele>338</ele>
        <time>2018-10-30T08:08:40.000Z</time>
      </trkpt>
      <trkpt lat="43.41256" lon="5.44546">
        <ele>338.60000610352</ele>
        <time>2018-10-30T08:08:43.000Z</time>
      </trkpt>
      <trkpt lat="43.41257" lon="5.44552">
        <ele>338.79998779297</ele>
        <time>2018-10-30T08:08:45.000Z</time>
      </trkpt>
      <trkpt lat="43.41257" lon="5.44555">
        <ele>339</ele>
        <time>2018-10-30T08:08:47.000Z</time>
      </trkpt>
      <trkpt lat="43.41257" lon="5.44559">
        <ele>339.79998779297</ele>
        <time>2018-10-30T08:08:50.000Z</time>
      </trkpt>
      <trkpt lat="43.41257" lon="5.44566">
        <ele>340</ele>
        <time>2018-10-30T08:08:55.000Z</time>
      </trkpt>
      <trkpt lat="43.41259" lon="5.44581">
        <ele>339.79998779297</ele>
        <time>2018-10-30T08:09:04.000Z</time>
      </trkpt>
      <trkpt lat="43.41262" lon="5.44591">
        <ele>340.39999389648</ele>
        <time>2018-10-30T08:09:10.000Z</time>
      </trkpt>
      <trkpt lat="43.41264" lon="5.44596">
        <ele>340.79998779297</ele>
        <time>2018-10-30T08:09:13.000Z</time>
      </trkpt>
      <trkpt lat="43.41264" lon="5.44599">
        <ele>341</ele>
        <time>2018-10-30T08:09:16.000Z</time>
      </trkpt>
      <trkpt lat="43.41264" lon="5.44606">
        <ele>341.60000610352</ele>
        <time>2018-10-30T08:09:22.000Z</time>
      </trkpt>
      <trkpt lat="43.41264" lon="5.44607">
        <ele>341.79998779297</ele>
        <time>2018-10-30T08:09:23.000Z</time>
      </trkpt>
      <trkpt lat="43.41264" lon="5.44611">
        <ele>342</ele>
        <time>2018-10-30T08:09:27.000Z</time>
      </trkpt>
      <trkpt lat="43.41265" lon="5.44619">
        <ele>342.60000610352</ele>
        <time>2018-10-30T08:09:33.000Z</time>
      </trkpt>
      <trkpt lat="43.41265" lon="5.44624">
        <ele>342.79998779297</ele>
        <time>2018-10-30T08:09:38.000Z</time>
      </trkpt>
      <trkpt lat="43.41266" lon="5.44625">
        <ele>343</ele>
        <time>2018-10-30T08:09:39.000Z</time>
      </trkpt>
      <trkpt lat="43.41266" lon="5.44629">
        <ele>343.20001220703</ele>
        <time>2018-10-30T08:09:42.000Z</time>
      </trkpt>
      <trkpt lat="43.41266" lon="5.44637">
        <ele>344</ele>
        <time>2018-10-30T08:09:48.000Z</time>
      </trkpt>
      <trkpt lat="43.41266" lon="5.44638">
        <ele>343.79998779297</ele>
        <time>2018-10-30T08:09:49.000Z</time>
      </trkpt>
      <trkpt lat="43.41265" lon="5.44646">
        <ele>343.60000610352</ele>
        <time>2018-10-30T08:09:55.000Z</time>
      </trkpt>
      <trkpt lat="43.41265" lon="5.44658">
        <ele>344.79998779297</ele>
        <time>2018-10-30T08:10:00.000Z</time>
      </trkpt>
      <trkpt lat="43.41265" lon="5.44665">
        <ele>345.20001220703</ele>
        <time>2018-10-30T08:10:04.000Z</time>
      </trkpt>
      <trkpt lat="43.41263" lon="5.44677">
        <ele>345.60000610352</ele>
        <time>2018-10-30T08:10:11.000Z</time>
      </trkpt>
      <trkpt lat="43.41266" lon="5.44682">
        <ele>346</ele>
        <time>2018-10-30T08:10:14.000Z</time>
      </trkpt>
      <trkpt lat="43.41269" lon="5.44693">
        <ele>346.39999389648</ele>
        <time>2018-10-30T08:10:21.000Z</time>
      </trkpt>
      <trkpt lat="43.41269" lon="5.44702">
        <ele>347.20001220703</ele>
        <time>2018-10-30T08:10:26.000Z</time>
      </trkpt>
      <trkpt lat="43.41269" lon="5.44703">
        <ele>347.39999389648</ele>
        <time>2018-10-30T08:10:27.000Z</time>
      </trkpt>
      <trkpt lat="43.41269" lon="5.4471">
        <ele>348</ele>
        <time>2018-10-30T08:10:31.000Z</time>
      </trkpt>
      <trkpt lat="43.41269" lon="5.44714">
        <ele>348.39999389648</ele>
        <time>2018-10-30T08:10:34.000Z</time>
      </trkpt>
      <trkpt lat="43.41268" lon="5.44719">
        <ele>348.20001220703</ele>
        <time>2018-10-30T08:10:37.000Z</time>
      </trkpt>
      <trkpt lat="43.41268" lon="5.44726">
        <ele>349.39999389648</ele>
        <time>2018-10-30T08:10:43.000Z</time>
      </trkpt>
      <trkpt lat="43.41269" lon="5.44732">
        <ele>349.79998779297</ele>
        <time>2018-10-30T08:10:48.000Z</time>
      </trkpt>
      <trkpt lat="43.41269" lon="5.4474">
        <ele>350.39999389648</ele>
        <time>2018-10-30T08:10:53.000Z</time>
      </trkpt>
      <trkpt lat="43.41268" lon="5.44742">
        <ele>350.60000610352</ele>
        <time>2018-10-30T08:10:55.000Z</time>
      </trkpt>
      <trkpt lat="43.41267" lon="5.44751">
        <ele>351</ele>
        <time>2018-10-30T08:11:01.000Z</time>
      </trkpt>
      <trkpt lat="43.41268" lon="5.44759">
        <ele>351.39999389648</ele>
        <time>2018-10-30T08:11:06.000Z</time>
      </trkpt>
      <trkpt lat="43.41268" lon="5.44768">
        <ele>351.60000610352</ele>
        <time>2018-10-30T08:11:11.000Z</time>
      </trkpt>
      <trkpt lat="43.41268" lon="5.44785">
        <ele>351.79998779297</ele>
        <time>2018-10-30T08:11:20.000Z</time>
      </trkpt>
      <trkpt lat="43.41268" lon="5.44793">
        <ele>352.20001220703</ele>
        <time>2018-10-30T08:11:25.000Z</time>
      </trkpt>
      <trkpt lat="43.41268" lon="5.44797">
        <ele>352.39999389648</ele>
        <time>2018-10-30T08:11:27.000Z</time>
      </trkpt>
      <trkpt lat="43.41268" lon="5.44801">
        <ele>352.60000610352</ele>
        <time>2018-10-30T08:11:30.000Z</time>
      </trkpt>
      <trkpt lat="43.41268" lon="5.44818">
        <ele>352.39999389648</ele>
        <time>2018-10-30T08:11:41.000Z</time>
      </trkpt>
      <trkpt lat="43.41265" lon="5.44829">
        <ele>353.20001220703</ele>
        <time>2018-10-30T08:11:50.000Z</time>
      </trkpt>
      <trkpt lat="43.41265" lon="5.44831">
        <ele>353.39999389648</ele>
        <time>2018-10-30T08:11:51.000Z</time>
      </trkpt>
      <trkpt lat="43.41264" lon="5.44836">
        <ele>353.79998779297</ele>
        <time>2018-10-30T08:11:55.000Z</time>
      </trkpt>
      <trkpt lat="43.41263" lon="5.44848">
        <ele>353.60000610352</ele>
        <time>2018-10-30T08:12:02.000Z</time>
      </trkpt>
      <trkpt lat="43.41263" lon="5.44866">
        <ele>354</ele>
        <time>2018-10-30T08:12:13.000Z</time>
      </trkpt>
      <trkpt lat="43.41263" lon="5.44868">
        <ele>354.20001220703</ele>
        <time>2018-10-30T08:12:14.000Z</time>
      </trkpt>
      <trkpt lat="43.41259" lon="5.44884">
        <ele>354</ele>
        <time>2018-10-30T08:12:22.000Z</time>
      </trkpt>
      <trkpt lat="43.41257" lon="5.44891">
        <ele>354</ele>
        <time>2018-10-30T08:12:27.000Z</time>
      </trkpt>
      <trkpt lat="43.4125" lon="5.44904">
        <ele>353.39999389648</ele>
        <time>2018-10-30T08:12:36.000Z</time>
      </trkpt>
      <trkpt lat="43.41246" lon="5.44914">
        <ele>352.79998779297</ele>
        <time>2018-10-30T08:12:44.000Z</time>
      </trkpt>
      <trkpt lat="43.41245" lon="5.44914">
        <ele>352.60000610352</ele>
        <time>2018-10-30T08:12:45.000Z</time>
      </trkpt>
      <trkpt lat="43.41238" lon="5.44923">
        <ele>352.60000610352</ele>
        <time>2018-10-30T08:12:52.000Z</time>
      </trkpt>
      <trkpt lat="43.41236" lon="5.44926">
        <ele>352.60000610352</ele>
        <time>2018-10-30T08:12:55.000Z</time>
      </trkpt>
      <trkpt lat="43.41231" lon="5.44931">
        <ele>352.60000610352</ele>
        <time>2018-10-30T08:13:00.000Z</time>
      </trkpt>
      <trkpt lat="43.41224" lon="5.4494">
        <ele>351.79998779297</ele>
        <time>2018-10-30T08:13:08.000Z</time>
      </trkpt>
      <trkpt lat="43.41216" lon="5.44954">
        <ele>351.60000610352</ele>
        <time>2018-10-30T08:13:19.000Z</time>
      </trkpt>
      <trkpt lat="43.41213" lon="5.44959">
        <ele>351.39999389648</ele>
        <time>2018-10-30T08:13:23.000Z</time>
      </trkpt>
      <trkpt lat="43.41212" lon="5.4496">
        <ele>351.20001220703</ele>
        <time>2018-10-30T08:13:24.000Z</time>
      </trkpt>
      <trkpt lat="43.41205" lon="5.44965">
        <ele>350.20001220703</ele>
        <time>2018-10-30T08:13:32.000Z</time>
      </trkpt>
      <trkpt lat="43.41203" lon="5.44968">
        <ele>351.20001220703</ele>
        <time>2018-10-30T08:13:36.000Z</time>
      </trkpt>
      <trkpt lat="43.412" lon="5.44971">
        <ele>351.79998779297</ele>
        <time>2018-10-30T08:13:42.000Z</time>
      </trkpt>
      <trkpt lat="43.41198" lon="5.44971">
        <ele>352</ele>
        <time>2018-10-30T08:13:45.000Z</time>
      </trkpt>
      <trkpt lat="43.41196" lon="5.44972">
        <ele>352.60000610352</ele>
        <time>2018-10-30T08:13:48.000Z</time>
      </trkpt>
      <trkpt lat="43.41193" lon="5.44974">
        <ele>353</ele>
        <time>2018-10-30T08:13:53.000Z</time>
      </trkpt>
      <trkpt lat="43.4119" lon="5.44976">
        <ele>354.20001220703</ele>
        <time>2018-10-30T08:13:56.000Z</time>
      </trkpt>
      <trkpt lat="43.41188" lon="5.44978">
        <ele>354</ele>
        <time>2018-10-30T08:14:00.000Z</time>
      </trkpt>
      <trkpt lat="43.41185" lon="5.44979">
        <ele>355.39999389648</ele>
        <time>2018-10-30T08:14:06.000Z</time>
      </trkpt>
      <trkpt lat="43.41184" lon="5.4498">
        <ele>355.60000610352</ele>
        <time>2018-10-30T08:14:08.000Z</time>
      </trkpt>
      <trkpt lat="43.41179" lon="5.44982">
        <ele>356.39999389648</ele>
        <time>2018-10-30T08:14:13.000Z</time>
      </trkpt>
      <trkpt lat="43.41179" lon="5.44982">
        <ele>356.60000610352</ele>
        <time>2018-10-30T08:14:14.000Z</time>
      </trkpt>
      <trkpt lat="43.41174" lon="5.44983">
        <ele>357</ele>
        <time>2018-10-30T08:14:21.000Z</time>
      </trkpt>
      <trkpt lat="43.41171" lon="5.44984">
        <ele>357.60000610352</ele>
        <time>2018-10-30T08:14:26.000Z</time>
      </trkpt>
      <trkpt lat="43.41169" lon="5.44986">
        <ele>358.20001220703</ele>
        <time>2018-10-30T08:14:31.000Z</time>
      </trkpt>
      <trkpt lat="43.41166" lon="5.44987">
        <ele>358.39999389648</ele>
        <time>2018-10-30T08:14:36.000Z</time>
      </trkpt>
      <trkpt lat="43.41164" lon="5.44987">
        <ele>359</ele>
        <time>2018-10-30T08:14:40.000Z</time>
      </trkpt>
      <trkpt lat="43.41163" lon="5.44987">
        <ele>359.60000610352</ele>
        <time>2018-10-30T08:14:43.000Z</time>
      </trkpt>
      <trkpt lat="43.4116" lon="5.44986">
        <ele>360</ele>
        <time>2018-10-30T08:14:49.000Z</time>
      </trkpt>
      <trkpt lat="43.41154" lon="5.44982">
        <ele>360.39999389648</ele>
        <time>2018-10-30T08:14:58.000Z</time>
      </trkpt>
      <trkpt lat="43.41153" lon="5.44983">
        <ele>360.60000610352</ele>
        <time>2018-10-30T08:15:00.000Z</time>
      </trkpt>
      <trkpt lat="43.41151" lon="5.44983">
        <ele>361.60000610352</ele>
        <time>2018-10-30T08:15:07.000Z</time>
      </trkpt>
      <trkpt lat="43.41149" lon="5.44982">
        <ele>361.79998779297</ele>
        <time>2018-10-30T08:15:09.000Z</time>
      </trkpt>
      <trkpt lat="43.41144" lon="5.44981">
        <ele>362.39999389648</ele>
        <time>2018-10-30T08:15:15.000Z</time>
      </trkpt>
      <trkpt lat="43.4114" lon="5.44981">
        <ele>362.79998779297</ele>
        <time>2018-10-30T08:15:19.000Z</time>
      </trkpt>
      <trkpt lat="43.41134" lon="5.44981">
        <ele>363.39999389648</ele>
        <time>2018-10-30T08:15:26.000Z</time>
      </trkpt>
      <trkpt lat="43.41125" lon="5.44979">
        <ele>363.39999389648</ele>
        <time>2018-10-30T08:15:36.000Z</time>
      </trkpt>
      <trkpt lat="43.41123" lon="5.4498">
        <ele>363.60000610352</ele>
        <time>2018-10-30T08:15:38.000Z</time>
      </trkpt>
      <trkpt lat="43.41116" lon="5.44981">
        <ele>364</ele>
        <time>2018-10-30T08:15:46.000Z</time>
      </trkpt>
      <trkpt lat="43.41108" lon="5.44985">
        <ele>364.39999389648</ele>
        <time>2018-10-30T08:15:56.000Z</time>
      </trkpt>
      <trkpt lat="43.41104" lon="5.44984">
        <ele>364.60000610352</ele>
        <time>2018-10-30T08:15:59.000Z</time>
      </trkpt>
      <trkpt lat="43.411" lon="5.44985">
        <ele>365.20001220703</ele>
        <time>2018-10-30T08:16:04.000Z</time>
      </trkpt>
      <trkpt lat="43.41096" lon="5.44986">
        <ele>365.79998779297</ele>
        <time>2018-10-30T08:16:11.000Z</time>
      </trkpt>
      <trkpt lat="43.41094" lon="5.44984">
        <ele>365.79998779297</ele>
        <time>2018-10-30T08:16:14.000Z</time>
      </trkpt>
      <trkpt lat="43.41093" lon="5.44984">
        <ele>366</ele>
        <time>2018-10-30T08:16:21.000Z</time>
      </trkpt>
      <trkpt lat="43.41085" lon="5.44983">
        <ele>366.39999389648</ele>
        <time>2018-10-30T08:16:31.000Z</time>
      </trkpt>
      <trkpt lat="43.41081" lon="5.4498">
        <ele>366.79998779297</ele>
        <time>2018-10-30T08:16:34.000Z</time>
      </trkpt>
      <trkpt lat="43.41075" lon="5.44976">
        <ele>367.60000610352</ele>
        <time>2018-10-30T08:16:39.000Z</time>
      </trkpt>
      <trkpt lat="43.41075" lon="5.44975">
        <ele>367.79998779297</ele>
        <time>2018-10-30T08:16:40.000Z</time>
      </trkpt>
      <trkpt lat="43.41067" lon="5.44973">
        <ele>368.60000610352</ele>
        <time>2018-10-30T08:16:47.000Z</time>
      </trkpt>
      <trkpt lat="43.41064" lon="5.44974">
        <ele>368.79998779297</ele>
        <time>2018-10-30T08:16:50.000Z</time>
      </trkpt>
      <trkpt lat="43.41059" lon="5.44975">
        <ele>369.60000610352</ele>
        <time>2018-10-30T08:16:57.000Z</time>
      </trkpt>
      <trkpt lat="43.41057" lon="5.44975">
        <ele>369.79998779297</ele>
        <time>2018-10-30T08:17:00.000Z</time>
      </trkpt>
      <trkpt lat="43.41054" lon="5.44976">
        <ele>370</ele>
        <time>2018-10-30T08:17:07.000Z</time>
      </trkpt>
      <trkpt lat="43.4105" lon="5.44977">
        <ele>370.79998779297</ele>
        <time>2018-10-30T08:17:12.000Z</time>
      </trkpt>
      <trkpt lat="43.41046" lon="5.44977">
        <ele>371.60000610352</ele>
        <time>2018-10-30T08:17:16.000Z</time>
      </trkpt>
      <trkpt lat="43.41044" lon="5.44977">
        <ele>372</ele>
        <time>2018-10-30T08:17:19.000Z</time>
      </trkpt>
      <trkpt lat="43.41044" lon="5.44977">
        <ele>372.39999389648</ele>
        <time>2018-10-30T08:17:22.000Z</time>
      </trkpt>
      <trkpt lat="43.4104" lon="5.44976">
        <ele>373</ele>
        <time>2018-10-30T08:17:26.000Z</time>
      </trkpt>
      <trkpt lat="43.41036" lon="5.4498">
        <ele>373.79998779297</ele>
        <time>2018-10-30T08:17:31.000Z</time>
      </trkpt>
      <trkpt lat="43.41034" lon="5.44982">
        <ele>374.20001220703</ele>
        <time>2018-10-30T08:17:33.000Z</time>
      </trkpt>
      <trkpt lat="43.41027" lon="5.44991">
        <ele>374.79998779297</ele>
        <time>2018-10-30T08:17:42.000Z</time>
      </trkpt>
      <trkpt lat="43.41026" lon="5.44995">
        <ele>375.20001220703</ele>
        <time>2018-10-30T08:17:45.000Z</time>
      </trkpt>
      <trkpt lat="43.4102" lon="5.45001">
        <ele>375.79998779297</ele>
        <time>2018-10-30T08:17:51.000Z</time>
      </trkpt>
      <trkpt lat="43.41015" lon="5.45007">
        <ele>376.20001220703</ele>
        <time>2018-10-30T08:17:57.000Z</time>
      </trkpt>
      <trkpt lat="43.41013" lon="5.45009">
        <ele>376.60000610352</ele>
        <time>2018-10-30T08:18:00.000Z</time>
      </trkpt>
      <trkpt lat="43.41006" lon="5.45018">
        <ele>377.20001220703</ele>
        <time>2018-10-30T08:18:09.000Z</time>
      </trkpt>
      <trkpt lat="43.41006" lon="5.45019">
        <ele>377.39999389648</ele>
        <time>2018-10-30T08:18:10.000Z</time>
      </trkpt>
      <trkpt lat="43.41002" lon="5.45028">
        <ele>378.39999389648</ele>
        <time>2018-10-30T08:18:18.000Z</time>
      </trkpt>
      <trkpt lat="43.41001" lon="5.45029">
        <ele>378.39999389648</ele>
        <time>2018-10-30T08:18:19.000Z</time>
      </trkpt>
      <trkpt lat="43.41" lon="5.45034">
        <ele>379.20001220703</ele>
        <time>2018-10-30T08:18:24.000Z</time>
      </trkpt>
      <trkpt lat="43.40999" lon="5.45037">
        <ele>379.60000610352</ele>
        <time>2018-10-30T08:18:26.000Z</time>
      </trkpt>
      <trkpt lat="43.40997" lon="5.45043">
        <ele>380.20001220703</ele>
        <time>2018-10-30T08:18:31.000Z</time>
      </trkpt>
      <trkpt lat="43.40997" lon="5.45045">
        <ele>380.39999389648</ele>
        <time>2018-10-30T08:18:33.000Z</time>
      </trkpt>
      <trkpt lat="43.40998" lon="5.45056">
        <ele>381.20001220703</ele>
        <time>2018-10-30T08:18:40.000Z</time>
      </trkpt>
      <trkpt lat="43.40998" lon="5.45058">
        <ele>381.20001220703</ele>
        <time>2018-10-30T08:18:41.000Z</time>
      </trkpt>
      <trkpt lat="43.40998" lon="5.45067">
        <ele>382</ele>
        <time>2018-10-30T08:18:48.000Z</time>
      </trkpt>
      <trkpt lat="43.40997" lon="5.45071">
        <ele>382.20001220703</ele>
        <time>2018-10-30T08:18:51.000Z</time>
      </trkpt>
      <trkpt lat="43.40996" lon="5.45075">
        <ele>382.39999389648</ele>
        <time>2018-10-30T08:18:55.000Z</time>
      </trkpt>
      <trkpt lat="43.40995" lon="5.45082">
        <ele>383.39999389648</ele>
        <time>2018-10-30T08:19:00.000Z</time>
      </trkpt>
      <trkpt lat="43.40993" lon="5.45083">
        <ele>383.60000610352</ele>
        <time>2018-10-30T08:19:02.000Z</time>
      </trkpt>
      <trkpt lat="43.40991" lon="5.45087">
        <ele>384</ele>
        <time>2018-10-30T08:19:09.000Z</time>
      </trkpt>
      <trkpt lat="43.40989" lon="5.45089">
        <ele>384.20001220703</ele>
        <time>2018-10-30T08:19:12.000Z</time>
      </trkpt>
      <trkpt lat="43.40987" lon="5.45091">
        <ele>384.60000610352</ele>
        <time>2018-10-30T08:19:16.000Z</time>
      </trkpt>
      <trkpt lat="43.40985" lon="5.45097">
        <ele>385.20001220703</ele>
        <time>2018-10-30T08:19:23.000Z</time>
      </trkpt>
      <trkpt lat="43.40984" lon="5.451">
        <ele>385.60000610352</ele>
        <time>2018-10-30T08:19:26.000Z</time>
      </trkpt>
      <trkpt lat="43.40981" lon="5.45105">
        <ele>386.39999389648</ele>
        <time>2018-10-30T08:19:32.000Z</time>
      </trkpt>
      <trkpt lat="43.4098" lon="5.45107">
        <ele>386.79998779297</ele>
        <time>2018-10-30T08:19:34.000Z</time>
      </trkpt>
      <trkpt lat="43.4098" lon="5.45113">
        <ele>387.39999389648</ele>
        <time>2018-10-30T08:19:38.000Z</time>
      </trkpt>
      <trkpt lat="43.4098" lon="5.45114">
        <ele>387.60000610352</ele>
        <time>2018-10-30T08:19:39.000Z</time>
      </trkpt>
      <trkpt lat="43.40979" lon="5.45115">
        <ele>387.79998779297</ele>
        <time>2018-10-30T08:19:40.000Z</time>
      </trkpt>
      <trkpt lat="43.40976" lon="5.45118">
        <ele>388.60000610352</ele>
        <time>2018-10-30T08:19:44.000Z</time>
      </trkpt>
      <trkpt lat="43.40974" lon="5.4512">
        <ele>389.20001220703</ele>
        <time>2018-10-30T08:19:47.000Z</time>
      </trkpt>
      <trkpt lat="43.40974" lon="5.4512">
        <ele>389.20001220703</ele>
        <time>2018-10-30T08:19:48.000Z</time>
      </trkpt>
      <trkpt lat="43.40972" lon="5.45121">
        <ele>389.79998779297</ele>
        <time>2018-10-30T08:19:50.000Z</time>
      </trkpt>
      <trkpt lat="43.4097" lon="5.45121">
        <ele>390.39999389648</ele>
        <time>2018-10-30T08:19:53.000Z</time>
      </trkpt>
      <trkpt lat="43.40968" lon="5.45119">
        <ele>391</ele>
        <time>2018-10-30T08:19:56.000Z</time>
      </trkpt>
      <trkpt lat="43.40966" lon="5.45115">
        <ele>391.39999389648</ele>
        <time>2018-10-30T08:20:00.000Z</time>
      </trkpt>
      <trkpt lat="43.40964" lon="5.45111">
        <ele>392</ele>
        <time>2018-10-30T08:20:05.000Z</time>
      </trkpt>
      <trkpt lat="43.40963" lon="5.45109">
        <ele>392.79998779297</ele>
        <time>2018-10-30T08:20:08.000Z</time>
      </trkpt>
      <trkpt lat="43.40962" lon="5.45109">
        <ele>393.20001220703</ele>
        <time>2018-10-30T08:20:10.000Z</time>
      </trkpt>
      <trkpt lat="43.40958" lon="5.45106">
        <ele>394.20001220703</ele>
        <time>2018-10-30T08:20:17.000Z</time>
      </trkpt>
      <trkpt lat="43.40955" lon="5.45106">
        <ele>395.20001220703</ele>
        <time>2018-10-30T08:20:23.000Z</time>
      </trkpt>
      <trkpt lat="43.40953" lon="5.45107">
        <ele>395.79998779297</ele>
        <time>2018-10-30T08:20:27.000Z</time>
      </trkpt>
      <trkpt lat="43.40952" lon="5.45107">
        <ele>396.20001220703</ele>
        <time>2018-10-30T08:20:29.000Z</time>
      </trkpt>
      <trkpt lat="43.40949" lon="5.45105">
        <ele>397.20001220703</ele>
        <time>2018-10-30T08:20:35.000Z</time>
      </trkpt>
      <trkpt lat="43.40946" lon="5.45106">
        <ele>398</ele>
        <time>2018-10-30T08:20:44.000Z</time>
      </trkpt>
      <trkpt lat="43.40944" lon="5.45106">
        <ele>398.20001220703</ele>
        <time>2018-10-30T08:20:47.000Z</time>
      </trkpt>
      <trkpt lat="43.40943" lon="5.45106">
        <ele>398.79998779297</ele>
        <time>2018-10-30T08:20:51.000Z</time>
      </trkpt>
      <trkpt lat="43.40942" lon="5.45105">
        <ele>399.20001220703</ele>
        <time>2018-10-30T08:20:53.000Z</time>
      </trkpt>
      <trkpt lat="43.40942" lon="5.45103">
        <ele>399.20001220703</ele>
        <time>2018-10-30T08:20:59.000Z</time>
      </trkpt>
      <trkpt lat="43.40941" lon="5.45102">
        <ele>399.79998779297</ele>
        <time>2018-10-30T08:21:04.000Z</time>
      </trkpt>
      <trkpt lat="43.40942" lon="5.45104">
        <ele>399.79998779297</ele>
        <time>2018-10-30T08:21:10.000Z</time>
      </trkpt>
      <trkpt lat="43.40941" lon="5.45102">
        <ele>399.60000610352</ele>
        <time>2018-10-30T08:21:14.000Z</time>
      </trkpt>
      <trkpt lat="43.40941" lon="5.45101">
        <ele>399.79998779297</ele>
        <time>2018-10-30T08:21:16.000Z</time>
      </trkpt>
      <trkpt lat="43.4094" lon="5.45097">
        <ele>400.20001220703</ele>
        <time>2018-10-30T08:21:22.000Z</time>
      </trkpt>
      <trkpt lat="43.4094" lon="5.45097">
        <ele>400.60000610352</ele>
        <time>2018-10-30T08:21:23.000Z</time>
      </trkpt>
      <trkpt lat="43.40939" lon="5.45095">
        <ele>401.39999389648</ele>
        <time>2018-10-30T08:21:27.000Z</time>
      </trkpt>
      <trkpt lat="43.40939" lon="5.45092">
        <ele>402.39999389648</ele>
        <time>2018-10-30T08:21:32.000Z</time>
      </trkpt>
      <trkpt lat="43.40939" lon="5.45092">
        <ele>402.39999389648</ele>
        <time>2018-10-30T08:21:33.000Z</time>
      </trkpt>
      <trkpt lat="43.40939" lon="5.45085">
        <ele>403.39999389648</ele>
        <time>2018-10-30T08:21:41.000Z</time>
      </trkpt>
      <trkpt lat="43.40939" lon="5.45083">
        <ele>403.60000610352</ele>
        <time>2018-10-30T08:21:43.000Z</time>
      </trkpt>
      <trkpt lat="43.4094" lon="5.45078">
        <ele>404.60000610352</ele>
        <time>2018-10-30T08:21:48.000Z</time>
      </trkpt>
      <trkpt lat="43.40941" lon="5.45076">
        <ele>405</ele>
        <time>2018-10-30T08:21:51.000Z</time>
      </trkpt>
      <trkpt lat="43.40942" lon="5.45073">
        <ele>405.60000610352</ele>
        <time>2018-10-30T08:21:55.000Z</time>
      </trkpt>
      <trkpt lat="43.40943" lon="5.45065">
        <ele>406</ele>
        <time>2018-10-30T08:22:01.000Z</time>
      </trkpt>
      <trkpt lat="43.40944" lon="5.45063">
        <ele>406.39999389648</ele>
        <time>2018-10-30T08:22:03.000Z</time>
      </trkpt>
      <trkpt lat="43.40945" lon="5.4506">
        <ele>406.79998779297</ele>
        <time>2018-10-30T08:22:05.000Z</time>
      </trkpt>
      <trkpt lat="43.40945" lon="5.45058">
        <ele>407</ele>
        <time>2018-10-30T08:22:06.000Z</time>
      </trkpt>
      <trkpt lat="43.40945" lon="5.45056">
        <ele>407.20001220703</ele>
        <time>2018-10-30T08:22:07.000Z</time>
      </trkpt>
      <trkpt lat="43.40945" lon="5.45055">
        <ele>407.79998779297</ele>
        <time>2018-10-30T08:22:09.000Z</time>
      </trkpt>
      <trkpt lat="43.40946" lon="5.45052">
        <ele>408</ele>
        <time>2018-10-30T08:22:11.000Z</time>
      </trkpt>
      <trkpt lat="43.40946" lon="5.45048">
        <ele>409</ele>
        <time>2018-10-30T08:22:15.000Z</time>
      </trkpt>
      <trkpt lat="43.40946" lon="5.45045">
        <ele>409.39999389648</ele>
        <time>2018-10-30T08:22:18.000Z</time>
      </trkpt>
      <trkpt lat="43.40946" lon="5.45042">
        <ele>410</ele>
        <time>2018-10-30T08:22:21.000Z</time>
      </trkpt>
      <trkpt lat="43.40946" lon="5.45039">
        <ele>410.39999389648</ele>
        <time>2018-10-30T08:22:25.000Z</time>
      </trkpt>
      <trkpt lat="43.40948" lon="5.45036">
        <ele>411</ele>
        <time>2018-10-30T08:22:33.000Z</time>
      </trkpt>
      <trkpt lat="43.40948" lon="5.45034">
        <ele>411.39999389648</ele>
        <time>2018-10-30T08:22:39.000Z</time>
      </trkpt>
      <trkpt lat="43.40948" lon="5.45034">
        <ele>411.39999389648</ele>
        <time>2018-10-30T08:22:51.000Z</time>
      </trkpt>
      <trkpt lat="43.40947" lon="5.45032">
        <ele>411.20001220703</ele>
        <time>2018-10-30T08:23:02.000Z</time>
      </trkpt>
      <trkpt lat="43.40947" lon="5.45032">
        <ele>411.20001220703</ele>
        <time>2018-10-30T08:23:13.000Z</time>
      </trkpt>
      <trkpt lat="43.40947" lon="5.45032">
        <ele>411.20001220703</ele>
        <time>2018-10-30T08:23:22.000Z</time>
      </trkpt>
      <trkpt lat="43.40947" lon="5.45031">
        <ele>411.39999389648</ele>
        <time>2018-10-30T08:23:31.000Z</time>
      </trkpt>
      <trkpt lat="43.40947" lon="5.45031">
        <ele>411</ele>
        <time>2018-10-30T08:23:43.000Z</time>
      </trkpt>
      <trkpt lat="43.40947" lon="5.45031">
        <ele>411.20001220703</ele>
        <time>2018-10-30T08:23:51.000Z</time>
      </trkpt>
      <trkpt lat="43.40947" lon="5.4503">
        <ele>411.20001220703</ele>
        <time>2018-10-30T08:23:52.000Z</time>
      </trkpt>
      <trkpt lat="43.40946" lon="5.4503">
        <ele>411.20001220703</ele>
        <time>2018-10-30T08:24:03.000Z</time>
      </trkpt>
      <trkpt lat="43.40945" lon="5.45026">
        <ele>411.39999389648</ele>
        <time>2018-10-30T08:24:09.000Z</time>
      </trkpt>
      <trkpt lat="43.40945" lon="5.45022">
        <ele>412.20001220703</ele>
        <time>2018-10-30T08:24:13.000Z</time>
      </trkpt>
      <trkpt lat="43.40943" lon="5.45019">
        <ele>413</ele>
        <time>2018-10-30T08:24:17.000Z</time>
      </trkpt>
      <trkpt lat="43.40943" lon="5.45019">
        <ele>413.20001220703</ele>
        <time>2018-10-30T08:24:19.000Z</time>
      </trkpt>
      <trkpt lat="43.40941" lon="5.45014">
        <ele>414</ele>
        <time>2018-10-30T08:24:26.000Z</time>
      </trkpt>
      <trkpt lat="43.40941" lon="5.45011">
        <ele>414.39999389648</ele>
        <time>2018-10-30T08:24:30.000Z</time>
      </trkpt>
      <trkpt lat="43.4094" lon="5.45006">
        <ele>415</ele>
        <time>2018-10-30T08:24:34.000Z</time>
      </trkpt>
      <trkpt lat="43.40939" lon="5.45003">
        <ele>415.60000610352</ele>
        <time>2018-10-30T08:24:37.000Z</time>
      </trkpt>
      <trkpt lat="43.40936" lon="5.44999">
        <ele>416.60000610352</ele>
        <time>2018-10-30T08:24:44.000Z</time>
      </trkpt>
      <trkpt lat="43.40936" lon="5.44998">
        <ele>416.60000610352</ele>
        <time>2018-10-30T08:24:45.000Z</time>
      </trkpt>
      <trkpt lat="43.40937" lon="5.44997">
        <ele>416.79998779297</ele>
        <time>2018-10-30T08:24:53.000Z</time>
      </trkpt>
      <trkpt lat="43.40936" lon="5.44996">
        <ele>417</ele>
        <time>2018-10-30T08:25:03.000Z</time>
      </trkpt>
      <trkpt lat="43.40932" lon="5.44993">
        <ele>417.60000610352</ele>
        <time>2018-10-30T08:25:09.000Z</time>
      </trkpt>
      <trkpt lat="43.4093" lon="5.4499">
        <ele>418</ele>
        <time>2018-10-30T08:25:12.000Z</time>
      </trkpt>
      <trkpt lat="43.40928" lon="5.44985">
        <ele>418.79998779297</ele>
        <time>2018-10-30T08:25:18.000Z</time>
      </trkpt>
      <trkpt lat="43.40927" lon="5.44984">
        <ele>419</ele>
        <time>2018-10-30T08:25:19.000Z</time>
      </trkpt>
      <trkpt lat="43.40924" lon="5.4498">
        <ele>419.39999389648</ele>
        <time>2018-10-30T08:25:22.000Z</time>
      </trkpt>
      <trkpt lat="43.40922" lon="5.44975">
        <ele>420</ele>
        <time>2018-10-30T08:25:26.000Z</time>
      </trkpt>
      <trkpt lat="43.40922" lon="5.44974">
        <ele>420.20001220703</ele>
        <time>2018-10-30T08:25:27.000Z</time>
      </trkpt>
      <trkpt lat="43.4092" lon="5.44972">
        <ele>421</ele>
        <time>2018-10-30T08:25:32.000Z</time>
      </trkpt>
      <trkpt lat="43.40919" lon="5.4497">
        <ele>421.39999389648</ele>
        <time>2018-10-30T08:25:35.000Z</time>
      </trkpt>
      <trkpt lat="43.40917" lon="5.44966">
        <ele>422.39999389648</ele>
        <time>2018-10-30T08:25:41.000Z</time>
      </trkpt>
      <trkpt lat="43.40916" lon="5.44963">
        <ele>423</ele>
        <time>2018-10-30T08:25:44.000Z</time>
      </trkpt>
      <trkpt lat="43.40916" lon="5.44961">
        <ele>423.39999389648</ele>
        <time>2018-10-30T08:25:46.000Z</time>
      </trkpt>
      <trkpt lat="43.40917" lon="5.44953">
        <ele>424.20001220703</ele>
        <time>2018-10-30T08:25:54.000Z</time>
      </trkpt>
      <trkpt lat="43.40918" lon="5.4495">
        <ele>424.39999389648</ele>
        <time>2018-10-30T08:25:58.000Z</time>
      </trkpt>
      <trkpt lat="43.4092" lon="5.44948">
        <ele>424.79998779297</ele>
        <time>2018-10-30T08:26:01.000Z</time>
      </trkpt>
      <trkpt lat="43.4092" lon="5.44937">
        <ele>425.60000610352</ele>
        <time>2018-10-30T08:26:08.000Z</time>
      </trkpt>
      <trkpt lat="43.4092" lon="5.44936">
        <ele>426.20001220703</ele>
        <time>2018-10-30T08:26:10.000Z</time>
      </trkpt>
      <trkpt lat="43.40918" lon="5.44931">
        <ele>426.60000610352</ele>
        <time>2018-10-30T08:26:18.000Z</time>
      </trkpt>
      <trkpt lat="43.40917" lon="5.44928">
        <ele>426.60000610352</ele>
        <time>2018-10-30T08:26:27.000Z</time>
      </trkpt>
      <trkpt lat="43.40917" lon="5.44927">
        <ele>426.79998779297</ele>
        <time>2018-10-30T08:26:28.000Z</time>
      </trkpt>
      <trkpt lat="43.40916" lon="5.44926">
        <ele>427.79998779297</ele>
        <time>2018-10-30T08:26:32.000Z</time>
      </trkpt>
      <trkpt lat="43.40915" lon="5.44925">
        <ele>428</ele>
        <time>2018-10-30T08:26:37.000Z</time>
      </trkpt>
      <trkpt lat="43.40914" lon="5.44926">
        <ele>428</ele>
        <time>2018-10-30T08:26:47.000Z</time>
      </trkpt>
      <trkpt lat="43.40912" lon="5.44924">
        <ele>428.20001220703</ele>
        <time>2018-10-30T08:26:53.000Z</time>
      </trkpt>
      <trkpt lat="43.40911" lon="5.44924">
        <ele>428.20001220703</ele>
        <time>2018-10-30T08:26:56.000Z</time>
      </trkpt>
      <trkpt lat="43.40912" lon="5.44924">
        <ele>427.79998779297</ele>
        <time>2018-10-30T08:27:04.000Z</time>
      </trkpt>
      <trkpt lat="43.40912" lon="5.4492">
        <ele>428.60000610352</ele>
        <time>2018-10-30T08:27:11.000Z</time>
      </trkpt>
      <trkpt lat="43.40913" lon="5.44919">
        <ele>429.39999389648</ele>
        <time>2018-10-30T08:27:14.000Z</time>
      </trkpt>
      <trkpt lat="43.40913" lon="5.44915">
        <ele>430.39999389648</ele>
        <time>2018-10-30T08:27:22.000Z</time>
      </trkpt>
      <trkpt lat="43.40913" lon="5.44913">
        <ele>430.39999389648</ele>
        <time>2018-10-30T08:27:29.000Z</time>
      </trkpt>
      <trkpt lat="43.40912" lon="5.4491">
        <ele>430.60000610352</ele>
        <time>2018-10-30T08:27:36.000Z</time>
      </trkpt>
      <trkpt lat="43.40911" lon="5.4491">
        <ele>430.60000610352</ele>
        <time>2018-10-30T08:27:37.000Z</time>
      </trkpt>
      <trkpt lat="43.4091" lon="5.44909">
        <ele>430.60000610352</ele>
        <time>2018-10-30T08:27:50.000Z</time>
      </trkpt>
      <trkpt lat="43.40908" lon="5.4491">
        <ele>430.60000610352</ele>
        <time>2018-10-30T08:27:59.000Z</time>
      </trkpt>
      <trkpt lat="43.40907" lon="5.44912">
        <ele>432</ele>
        <time>2018-10-30T08:28:08.000Z</time>
      </trkpt>
      <trkpt lat="43.40905" lon="5.44915">
        <ele>432.79998779297</ele>
        <time>2018-10-30T08:28:14.000Z</time>
      </trkpt>
      <trkpt lat="43.40904" lon="5.44917">
        <ele>433.39999389648</ele>
        <time>2018-10-30T08:28:17.000Z</time>
      </trkpt>
      <trkpt lat="43.40901" lon="5.4492">
        <ele>434.20001220703</ele>
        <time>2018-10-30T08:28:25.000Z</time>
      </trkpt>
      <trkpt lat="43.409" lon="5.44921">
        <ele>434.39999389648</ele>
        <time>2018-10-30T08:28:27.000Z</time>
      </trkpt>
      <trkpt lat="43.40896" lon="5.44931">
        <ele>435.20001220703</ele>
        <time>2018-10-30T08:28:38.000Z</time>
      </trkpt>
      <trkpt lat="43.40894" lon="5.44933">
        <ele>435.39999389648</ele>
        <time>2018-10-30T08:28:40.000Z</time>
      </trkpt>
      <trkpt lat="43.4089" lon="5.44939">
        <ele>436.20001220703</ele>
        <time>2018-10-30T08:28:47.000Z</time>
      </trkpt>
      <trkpt lat="43.40887" lon="5.44948">
        <ele>436.60000610352</ele>
        <time>2018-10-30T08:28:54.000Z</time>
      </trkpt>
      <trkpt lat="43.40887" lon="5.44948">
        <ele>436.79998779297</ele>
        <time>2018-10-30T08:28:55.000Z</time>
      </trkpt>
      <trkpt lat="43.40884" lon="5.44953">
        <ele>437.60000610352</ele>
        <time>2018-10-30T08:29:02.000Z</time>
      </trkpt>
      <trkpt lat="43.40884" lon="5.44959">
        <ele>438.20001220703</ele>
        <time>2018-10-30T08:29:06.000Z</time>
      </trkpt>
      <trkpt lat="43.40883" lon="5.44962">
        <ele>439</ele>
        <time>2018-10-30T08:29:10.000Z</time>
      </trkpt>
      <trkpt lat="43.4088" lon="5.44969">
        <ele>439.60000610352</ele>
        <time>2018-10-30T08:29:14.000Z</time>
      </trkpt>
      <trkpt lat="43.4088" lon="5.44972">
        <ele>440.20001220703</ele>
        <time>2018-10-30T08:29:17.000Z</time>
      </trkpt>
      <trkpt lat="43.4088" lon="5.44976">
        <ele>441</ele>
        <time>2018-10-30T08:29:22.000Z</time>
      </trkpt>
      <trkpt lat="43.40879" lon="5.44977">
        <ele>441</ele>
        <time>2018-10-30T08:29:32.000Z</time>
      </trkpt>
      <trkpt lat="43.40879" lon="5.44984">
        <ele>441.60000610352</ele>
        <time>2018-10-30T08:29:39.000Z</time>
      </trkpt>
      <trkpt lat="43.40879" lon="5.44987">
        <ele>442</ele>
        <time>2018-10-30T08:29:41.000Z</time>
      </trkpt>
      <trkpt lat="43.4088" lon="5.44989">
        <ele>442.20001220703</ele>
        <time>2018-10-30T08:29:43.000Z</time>
      </trkpt>
      <trkpt lat="43.40881" lon="5.44992">
        <ele>442.79998779297</ele>
        <time>2018-10-30T08:29:46.000Z</time>
      </trkpt>
      <trkpt lat="43.40882" lon="5.44993">
        <ele>443</ele>
        <time>2018-10-30T08:29:47.000Z</time>
      </trkpt>
      <trkpt lat="43.40882" lon="5.44992">
        <ele>443.39999389648</ele>
        <time>2018-10-30T08:29:59.000Z</time>
      </trkpt>
      <trkpt lat="43.40881" lon="5.44994">
        <ele>443.20001220703</ele>
        <time>2018-10-30T08:30:11.000Z</time>
      </trkpt>
      <trkpt lat="43.40881" lon="5.44994">
        <ele>443.39999389648</ele>
        <time>2018-10-30T08:30:27.000Z</time>
      </trkpt>
      <trkpt lat="43.40881" lon="5.44994">
        <ele>443.20001220703</ele>
        <time>2018-10-30T08:30:47.000Z</time>
      </trkpt>
      <trkpt lat="43.40881" lon="5.44994">
        <ele>442.79998779297</ele>
        <time>2018-10-30T08:31:02.000Z</time>
      </trkpt>
      <trkpt lat="43.40881" lon="5.44994">
        <ele>442.79998779297</ele>
        <time>2018-10-30T08:31:06.000Z</time>
      </trkpt>
      <trkpt lat="43.40881" lon="5.44994">
        <ele>442.60000610352</ele>
        <time>2018-10-30T08:31:21.000Z</time>
      </trkpt>
      <trkpt lat="43.40881" lon="5.44994">
        <ele>442.60000610352</ele>
        <time>2018-10-30T08:31:30.000Z</time>
      </trkpt>
      <trkpt lat="43.4088" lon="5.44996">
        <ele>442.60000610352</ele>
        <time>2018-10-30T08:31:41.000Z</time>
      </trkpt>
      <trkpt lat="43.40875" lon="5.45003">
        <ele>443.39999389648</ele>
        <time>2018-10-30T08:31:50.000Z</time>
      </trkpt>
      <trkpt lat="43.40872" lon="5.45007">
        <ele>444.39999389648</ele>
        <time>2018-10-30T08:31:58.000Z</time>
      </trkpt>
      <trkpt lat="43.4087" lon="5.45007">
        <ele>444.60000610352</ele>
        <time>2018-10-30T08:32:03.000Z</time>
      </trkpt>
      <trkpt lat="43.40866" lon="5.4501">
        <ele>445.20001220703</ele>
        <time>2018-10-30T08:32:09.000Z</time>
      </trkpt>
      <trkpt lat="43.40865" lon="5.4501">
        <ele>445.60000610352</ele>
        <time>2018-10-30T08:32:11.000Z</time>
      </trkpt>
      <trkpt lat="43.40861" lon="5.4501">
        <ele>446.79998779297</ele>
        <time>2018-10-30T08:32:18.000Z</time>
      </trkpt>
      <trkpt lat="43.4086" lon="5.45011">
        <ele>446.79998779297</ele>
        <time>2018-10-30T08:32:19.000Z</time>
      </trkpt>
      <trkpt lat="43.40855" lon="5.45015">
        <ele>448</ele>
        <time>2018-10-30T08:32:26.000Z</time>
      </trkpt>
      <trkpt lat="43.40853" lon="5.45016">
        <ele>448.20001220703</ele>
        <time>2018-10-30T08:32:27.000Z</time>
      </trkpt>
      <trkpt lat="43.40849" lon="5.45021">
        <ele>448.79998779297</ele>
        <time>2018-10-30T08:32:36.000Z</time>
      </trkpt>
      <trkpt lat="43.40846" lon="5.45025">
        <ele>449.20001220703</ele>
        <time>2018-10-30T08:32:42.000Z</time>
      </trkpt>
      <trkpt lat="43.40842" lon="5.4503">
        <ele>449.60000610352</ele>
        <time>2018-10-30T08:32:46.000Z</time>
      </trkpt>
      <trkpt lat="43.40837" lon="5.45037">
        <ele>450.39999389648</ele>
        <time>2018-10-30T08:32:53.000Z</time>
      </trkpt>
      <trkpt lat="43.40837" lon="5.45038">
        <ele>450.39999389648</ele>
        <time>2018-10-30T08:32:54.000Z</time>
      </trkpt>
      <trkpt lat="43.40834" lon="5.45041">
        <ele>451.60000610352</ele>
        <time>2018-10-30T08:33:01.000Z</time>
      </trkpt>
      <trkpt lat="43.40835" lon="5.45041">
        <ele>451.79998779297</ele>
        <time>2018-10-30T08:33:04.000Z</time>
      </trkpt>
      <trkpt lat="43.40832" lon="5.45044">
        <ele>452.60000610352</ele>
        <time>2018-10-30T08:33:13.000Z</time>
      </trkpt>
      <trkpt lat="43.40827" lon="5.45055">
        <ele>454</ele>
        <time>2018-10-30T08:33:22.000Z</time>
      </trkpt>
      <trkpt lat="43.40827" lon="5.45055">
        <ele>454.20001220703</ele>
        <time>2018-10-30T08:33:23.000Z</time>
      </trkpt>
      <trkpt lat="43.40825" lon="5.45061">
        <ele>455</ele>
        <time>2018-10-30T08:33:29.000Z</time>
      </trkpt>
      <trkpt lat="43.40823" lon="5.45066">
        <ele>455.60000610352</ele>
        <time>2018-10-30T08:33:33.000Z</time>
      </trkpt>
      <trkpt lat="43.40822" lon="5.45071">
        <ele>456.20001220703</ele>
        <time>2018-10-30T08:33:38.000Z</time>
      </trkpt>
      <trkpt lat="43.40821" lon="5.45076">
        <ele>457.39999389648</ele>
        <time>2018-10-30T08:33:45.000Z</time>
      </trkpt>
      <trkpt lat="43.40821" lon="5.45082">
        <ele>458.79998779297</ele>
        <time>2018-10-30T08:33:52.000Z</time>
      </trkpt>
      <trkpt lat="43.40819" lon="5.45083">
        <ele>459.39999389648</ele>
        <time>2018-10-30T08:33:55.000Z</time>
      </trkpt>
      <trkpt lat="43.40817" lon="5.45086">
        <ele>460</ele>
        <time>2018-10-30T08:34:01.000Z</time>
      </trkpt>
      <trkpt lat="43.40815" lon="5.45087">
        <ele>460.39999389648</ele>
        <time>2018-10-30T08:34:05.000Z</time>
      </trkpt>
      <trkpt lat="43.40813" lon="5.45091">
        <ele>461</ele>
        <time>2018-10-30T08:34:08.000Z</time>
      </trkpt>
      <trkpt lat="43.40811" lon="5.45099">
        <ele>461.39999389648</ele>
        <time>2018-10-30T08:34:14.000Z</time>
      </trkpt>
      <trkpt lat="43.40809" lon="5.451">
        <ele>462.20001220703</ele>
        <time>2018-10-30T08:34:19.000Z</time>
      </trkpt>
      <trkpt lat="43.40808" lon="5.45101">
        <ele>462.79998779297</ele>
        <time>2018-10-30T08:34:21.000Z</time>
      </trkpt>
      <trkpt lat="43.40807" lon="5.45103">
        <ele>463.39999389648</ele>
        <time>2018-10-30T08:34:24.000Z</time>
      </trkpt>
      <trkpt lat="43.40807" lon="5.45104">
        <ele>464</ele>
        <time>2018-10-30T08:34:29.000Z</time>
      </trkpt>
      <trkpt lat="43.40804" lon="5.45108">
        <ele>464</ele>
        <time>2018-10-30T08:34:36.000Z</time>
      </trkpt>
      <trkpt lat="43.40802" lon="5.45111">
        <ele>464.39999389648</ele>
        <time>2018-10-30T08:34:40.000Z</time>
      </trkpt>
      <trkpt lat="43.40801" lon="5.45117">
        <ele>464.79998779297</ele>
        <time>2018-10-30T08:34:45.000Z</time>
      </trkpt>
      <trkpt lat="43.40799" lon="5.45122">
        <ele>465.60000610352</ele>
        <time>2018-10-30T08:34:51.000Z</time>
      </trkpt>
      <trkpt lat="43.40798" lon="5.45124">
        <ele>465.79998779297</ele>
        <time>2018-10-30T08:34:53.000Z</time>
      </trkpt>
      <trkpt lat="43.40798" lon="5.45127">
        <ele>465.79998779297</ele>
        <time>2018-10-30T08:35:01.000Z</time>
      </trkpt>
      <trkpt lat="43.40797" lon="5.45131">
        <ele>466.20001220703</ele>
        <time>2018-10-30T08:35:10.000Z</time>
      </trkpt>
      <trkpt lat="43.40796" lon="5.45137">
        <ele>466.60000610352</ele>
        <time>2018-10-30T08:35:16.000Z</time>
      </trkpt>
      <trkpt lat="43.40795" lon="5.45137">
        <ele>466.60000610352</ele>
        <time>2018-10-30T08:35:17.000Z</time>
      </trkpt>
      <trkpt lat="43.40795" lon="5.45139">
        <ele>467.20001220703</ele>
        <time>2018-10-30T08:35:24.000Z</time>
      </trkpt>
      <trkpt lat="43.40793" lon="5.45138">
        <ele>467.20001220703</ele>
        <time>2018-10-30T08:35:33.000Z</time>
      </trkpt>
      <trkpt lat="43.40794" lon="5.45139">
        <ele>467</ele>
        <time>2018-10-30T08:35:37.000Z</time>
      </trkpt>
      <trkpt lat="43.40794" lon="5.45141">
        <ele>467</ele>
        <time>2018-10-30T08:35:39.000Z</time>
      </trkpt>
      <trkpt lat="43.40794" lon="5.45146">
        <ele>467</ele>
        <time>2018-10-30T08:35:47.000Z</time>
      </trkpt>
      <trkpt lat="43.40794" lon="5.45152">
        <ele>467.60000610352</ele>
        <time>2018-10-30T08:35:52.000Z</time>
      </trkpt>
      <trkpt lat="43.40794" lon="5.45155">
        <ele>467.79998779297</ele>
        <time>2018-10-30T08:35:56.000Z</time>
      </trkpt>
      <trkpt lat="43.40795" lon="5.45162">
        <ele>468.20001220703</ele>
        <time>2018-10-30T08:36:04.000Z</time>
      </trkpt>
      <trkpt lat="43.40796" lon="5.45166">
        <ele>468.60000610352</ele>
        <time>2018-10-30T08:36:08.000Z</time>
      </trkpt>
      <trkpt lat="43.40797" lon="5.45172">
        <ele>469.60000610352</ele>
        <time>2018-10-30T08:36:14.000Z</time>
      </trkpt>
      <trkpt lat="43.40798" lon="5.45173">
        <ele>469.79998779297</ele>
        <time>2018-10-30T08:36:15.000Z</time>
      </trkpt>
      <trkpt lat="43.40802" lon="5.45178">
        <ele>471</ele>
        <time>2018-10-30T08:36:22.000Z</time>
      </trkpt>
      <trkpt lat="43.40805" lon="5.45181">
        <ele>471.20001220703</ele>
        <time>2018-10-30T08:36:26.000Z</time>
      </trkpt>
      <trkpt lat="43.40806" lon="5.45183">
        <ele>471.20001220703</ele>
        <time>2018-10-30T08:36:28.000Z</time>
      </trkpt>
      <trkpt lat="43.40808" lon="5.4519">
        <ele>472</ele>
        <time>2018-10-30T08:36:35.000Z</time>
      </trkpt>
      <trkpt lat="43.40809" lon="5.45199">
        <ele>472.79998779297</ele>
        <time>2018-10-30T08:36:42.000Z</time>
      </trkpt>
      <trkpt lat="43.4081" lon="5.45204">
        <ele>473</ele>
        <time>2018-10-30T08:36:46.000Z</time>
      </trkpt>
      <trkpt lat="43.4081" lon="5.45209">
        <ele>474</ele>
        <time>2018-10-30T08:36:51.000Z</time>
      </trkpt>
      <trkpt lat="43.4081" lon="5.45211">
        <ele>474.20001220703</ele>
        <time>2018-10-30T08:36:53.000Z</time>
      </trkpt>
      <trkpt lat="43.4081" lon="5.45216">
        <ele>475.20001220703</ele>
        <time>2018-10-30T08:36:58.000Z</time>
      </trkpt>
      <trkpt lat="43.4081" lon="5.4522">
        <ele>475.79998779297</ele>
        <time>2018-10-30T08:37:02.000Z</time>
      </trkpt>
      <trkpt lat="43.4081" lon="5.45223">
        <ele>476.39999389648</ele>
        <time>2018-10-30T08:37:06.000Z</time>
      </trkpt>
      <trkpt lat="43.40811" lon="5.45226">
        <ele>477.20001220703</ele>
        <time>2018-10-30T08:37:11.000Z</time>
      </trkpt>
      <trkpt lat="43.40811" lon="5.45227">
        <ele>477.39999389648</ele>
        <time>2018-10-30T08:37:14.000Z</time>
      </trkpt>
      <trkpt lat="43.40811" lon="5.4523">
        <ele>477.60000610352</ele>
        <time>2018-10-30T08:37:18.000Z</time>
      </trkpt>
      <trkpt lat="43.40813" lon="5.45235">
        <ele>478.39999389648</ele>
        <time>2018-10-30T08:37:24.000Z</time>
      </trkpt>
      <trkpt lat="43.40813" lon="5.45236">
        <ele>478.79998779297</ele>
        <time>2018-10-30T08:37:25.000Z</time>
      </trkpt>
      <trkpt lat="43.40813" lon="5.45239">
        <ele>479.39999389648</ele>
        <time>2018-10-30T08:37:28.000Z</time>
      </trkpt>
      <trkpt lat="43.40815" lon="5.45244">
        <ele>480</ele>
        <time>2018-10-30T08:37:33.000Z</time>
      </trkpt>
      <trkpt lat="43.40816" lon="5.45248">
        <ele>480.60000610352</ele>
        <time>2018-10-30T08:37:38.000Z</time>
      </trkpt>
      <trkpt lat="43.40818" lon="5.45253">
        <ele>481</ele>
        <time>2018-10-30T08:37:44.000Z</time>
      </trkpt>
      <trkpt lat="43.40819" lon="5.45257">
        <ele>481.60000610352</ele>
        <time>2018-10-30T08:37:48.000Z</time>
      </trkpt>
      <trkpt lat="43.4082" lon="5.4526">
        <ele>482.20001220703</ele>
        <time>2018-10-30T08:37:51.000Z</time>
      </trkpt>
      <trkpt lat="43.40821" lon="5.45262">
        <ele>482.79998779297</ele>
        <time>2018-10-30T08:37:54.000Z</time>
      </trkpt>
      <trkpt lat="43.40821" lon="5.45266">
        <ele>483.60000610352</ele>
        <time>2018-10-30T08:37:59.000Z</time>
      </trkpt>
      <trkpt lat="43.40821" lon="5.45266">
        <ele>483.79998779297</ele>
        <time>2018-10-30T08:38:01.000Z</time>
      </trkpt>
      <trkpt lat="43.40822" lon="5.45266">
        <ele>484.20001220703</ele>
        <time>2018-10-30T08:38:09.000Z</time>
      </trkpt>
      <trkpt lat="43.40821" lon="5.45268">
        <ele>484</ele>
        <time>2018-10-30T08:38:17.000Z</time>
      </trkpt>
      <trkpt lat="43.40821" lon="5.4527">
        <ele>484.20001220703</ele>
        <time>2018-10-30T08:38:25.000Z</time>
      </trkpt>
      <trkpt lat="43.40822" lon="5.45272">
        <ele>485</ele>
        <time>2018-10-30T08:38:31.000Z</time>
      </trkpt>
      <trkpt lat="43.40822" lon="5.45273">
        <ele>485.39999389648</ele>
        <time>2018-10-30T08:38:34.000Z</time>
      </trkpt>
      <trkpt lat="43.40822" lon="5.45277">
        <ele>485.20001220703</ele>
        <time>2018-10-30T08:38:39.000Z</time>
      </trkpt>
      <trkpt lat="43.40822" lon="5.45278">
        <ele>485.39999389648</ele>
        <time>2018-10-30T08:38:40.000Z</time>
      </trkpt>
      <trkpt lat="43.40822" lon="5.45283">
        <ele>486</ele>
        <time>2018-10-30T08:38:44.000Z</time>
      </trkpt>
      <trkpt lat="43.40822" lon="5.45286">
        <ele>486.20001220703</ele>
        <time>2018-10-30T08:38:46.000Z</time>
      </trkpt>
      <trkpt lat="43.40822" lon="5.45291">
        <ele>487.20001220703</ele>
        <time>2018-10-30T08:38:51.000Z</time>
      </trkpt>
      <trkpt lat="43.40822" lon="5.453">
        <ele>488.39999389648</ele>
        <time>2018-10-30T08:38:59.000Z</time>
      </trkpt>
      <trkpt lat="43.40821" lon="5.45302">
        <ele>488.39999389648</ele>
        <time>2018-10-30T08:39:00.000Z</time>
      </trkpt>
      <trkpt lat="43.4082" lon="5.45312">
        <ele>489.39999389648</ele>
        <time>2018-10-30T08:39:08.000Z</time>
      </trkpt>
      <trkpt lat="43.4082" lon="5.45314">
        <ele>489.79998779297</ele>
        <time>2018-10-30T08:39:10.000Z</time>
      </trkpt>
      <trkpt lat="43.40822" lon="5.4532">
        <ele>490.60000610352</ele>
        <time>2018-10-30T08:39:17.000Z</time>
      </trkpt>
      <trkpt lat="43.40823" lon="5.45323">
        <ele>491</ele>
        <time>2018-10-30T08:39:20.000Z</time>
      </trkpt>
      <trkpt lat="43.40823" lon="5.45327">
        <ele>491.60000610352</ele>
        <time>2018-10-30T08:39:24.000Z</time>
      </trkpt>
      <trkpt lat="43.40822" lon="5.45329">
        <ele>492.20001220703</ele>
        <time>2018-10-30T08:39:27.000Z</time>
      </trkpt>
      <trkpt lat="43.40823" lon="5.45331">
        <ele>492.60000610352</ele>
        <time>2018-10-30T08:39:29.000Z</time>
      </trkpt>
      <trkpt lat="43.40824" lon="5.45337">
        <ele>493.39999389648</ele>
        <time>2018-10-30T08:39:34.000Z</time>
      </trkpt>
      <trkpt lat="43.40824" lon="5.45338">
        <ele>493.60000610352</ele>
        <time>2018-10-30T08:39:35.000Z</time>
      </trkpt>
      <trkpt lat="43.40824" lon="5.45338">
        <ele>493.79998779297</ele>
        <time>2018-10-30T08:39:36.000Z</time>
      </trkpt>
      <trkpt lat="43.40825" lon="5.45342">
        <ele>494.39999389648</ele>
        <time>2018-10-30T08:39:41.000Z</time>
      </trkpt>
      <trkpt lat="43.40826" lon="5.45344">
        <ele>494.79998779297</ele>
        <time>2018-10-30T08:39:43.000Z</time>
      </trkpt>
      <trkpt lat="43.40827" lon="5.45351">
        <ele>495.60000610352</ele>
        <time>2018-10-30T08:39:49.000Z</time>
      </trkpt>
      <trkpt lat="43.40827" lon="5.45354">
        <ele>496</ele>
        <time>2018-10-30T08:39:52.000Z</time>
      </trkpt>
      <trkpt lat="43.40829" lon="5.45359">
        <ele>497</ele>
        <time>2018-10-30T08:39:58.000Z</time>
      </trkpt>
      <trkpt lat="43.40829" lon="5.4536">
        <ele>497</ele>
        <time>2018-10-30T08:39:59.000Z</time>
      </trkpt>
      <trkpt lat="43.40829" lon="5.45366">
        <ele>498.20001220703</ele>
        <time>2018-10-30T08:40:06.000Z</time>
      </trkpt>
      <trkpt lat="43.4083" lon="5.45366">
        <ele>498.60000610352</ele>
        <time>2018-10-30T08:40:07.000Z</time>
      </trkpt>
      <trkpt lat="43.40831" lon="5.45368">
        <ele>499.20001220703</ele>
        <time>2018-10-30T08:40:11.000Z</time>
      </trkpt>
      <trkpt lat="43.40831" lon="5.45369">
        <ele>499.20001220703</ele>
        <time>2018-10-30T08:40:14.000Z</time>
      </trkpt>
      <trkpt lat="43.4083" lon="5.45371">
        <ele>499.20001220703</ele>
        <time>2018-10-30T08:40:21.000Z</time>
      </trkpt>
      <trkpt lat="43.4083" lon="5.45372">
        <ele>499.39999389648</ele>
        <time>2018-10-30T08:40:30.000Z</time>
      </trkpt>
      <trkpt lat="43.4083" lon="5.45372">
        <ele>499.20001220703</ele>
        <time>2018-10-30T08:40:34.000Z</time>
      </trkpt>
      <trkpt lat="43.40829" lon="5.45373">
        <ele>498.39999389648</ele>
        <time>2018-10-30T08:40:41.000Z</time>
      </trkpt>
      <trkpt lat="43.40828" lon="5.45374">
        <ele>498.20001220703</ele>
        <time>2018-10-30T08:40:52.000Z</time>
      </trkpt>
      <trkpt lat="43.40828" lon="5.45374">
        <ele>498.20001220703</ele>
        <time>2018-10-30T08:41:01.000Z</time>
      </trkpt>
      <trkpt lat="43.40829" lon="5.45373">
        <ele>498.20001220703</ele>
        <time>2018-10-30T08:41:11.000Z</time>
      </trkpt>
      <trkpt lat="43.40829" lon="5.45373">
        <ele>499</ele>
        <time>2018-10-30T08:41:17.000Z</time>
      </trkpt>
      <trkpt lat="43.40829" lon="5.45372">
        <ele>498.79998779297</ele>
        <time>2018-10-30T08:41:26.000Z</time>
      </trkpt>
      <trkpt lat="43.40829" lon="5.45372">
        <ele>498.60000610352</ele>
        <time>2018-10-30T08:41:37.000Z</time>
      </trkpt>
      <trkpt lat="43.40829" lon="5.45375">
        <ele>498.39999389648</ele>
        <time>2018-10-30T08:41:44.000Z</time>
      </trkpt>
      <trkpt lat="43.40832" lon="5.45381">
        <ele>498.79998779297</ele>
        <time>2018-10-30T08:41:49.000Z</time>
      </trkpt>
      <trkpt lat="43.40832" lon="5.45382">
        <ele>498.79998779297</ele>
        <time>2018-10-30T08:41:50.000Z</time>
      </trkpt>
      <trkpt lat="43.40833" lon="5.45387">
        <ele>499.39999389648</ele>
        <time>2018-10-30T08:41:54.000Z</time>
      </trkpt>
      <trkpt lat="43.40834" lon="5.45389">
        <ele>499.60000610352</ele>
        <time>2018-10-30T08:41:55.000Z</time>
      </trkpt>
      <trkpt lat="43.40834" lon="5.4539">
        <ele>499.79998779297</ele>
        <time>2018-10-30T08:41:56.000Z</time>
      </trkpt>
      <trkpt lat="43.40836" lon="5.45394">
        <ele>500.20001220703</ele>
        <time>2018-10-30T08:42:00.000Z</time>
      </trkpt>
      <trkpt lat="43.40837" lon="5.45395">
        <ele>500.39999389648</ele>
        <time>2018-10-30T08:42:02.000Z</time>
      </trkpt>
      <trkpt lat="43.40838" lon="5.45396">
        <ele>500.60000610352</ele>
        <time>2018-10-30T08:42:03.000Z</time>
      </trkpt>
      <trkpt lat="43.40839" lon="5.45402">
        <ele>501.79998779297</ele>
        <time>2018-10-30T08:42:10.000Z</time>
      </trkpt>
      <trkpt lat="43.40841" lon="5.45408">
        <ele>502.20001220703</ele>
        <time>2018-10-30T08:42:17.000Z</time>
      </trkpt>
      <trkpt lat="43.40842" lon="5.45412">
        <ele>502.79998779297</ele>
        <time>2018-10-30T08:42:21.000Z</time>
      </trkpt>
      <trkpt lat="43.40844" lon="5.45417">
        <ele>503.20001220703</ele>
        <time>2018-10-30T08:42:25.000Z</time>
      </trkpt>
      <trkpt lat="43.40846" lon="5.4542">
        <ele>503.79998779297</ele>
        <time>2018-10-30T08:42:28.000Z</time>
      </trkpt>
      <trkpt lat="43.40848" lon="5.45422">
        <ele>504.20001220703</ele>
        <time>2018-10-30T08:42:31.000Z</time>
      </trkpt>
      <trkpt lat="43.40848" lon="5.45428">
        <ele>504.60000610352</ele>
        <time>2018-10-30T08:42:36.000Z</time>
      </trkpt>
      <trkpt lat="43.40849" lon="5.45429">
        <ele>504.79998779297</ele>
        <time>2018-10-30T08:42:37.000Z</time>
      </trkpt>
      <trkpt lat="43.4085" lon="5.45436">
        <ele>505.79998779297</ele>
        <time>2018-10-30T08:42:44.000Z</time>
      </trkpt>
      <trkpt lat="43.40851" lon="5.45443">
        <ele>506.60000610352</ele>
        <time>2018-10-30T08:42:51.000Z</time>
      </trkpt>
      <trkpt lat="43.40851" lon="5.45445">
        <ele>506.79998779297</ele>
        <time>2018-10-30T08:42:53.000Z</time>
      </trkpt>
      <trkpt lat="43.40851" lon="5.4545">
        <ele>507.60000610352</ele>
        <time>2018-10-30T08:42:58.000Z</time>
      </trkpt>
      <trkpt lat="43.40851" lon="5.45451">
        <ele>507.79998779297</ele>
        <time>2018-10-30T08:42:59.000Z</time>
      </trkpt>
      <trkpt lat="43.40852" lon="5.45456">
        <ele>508.79998779297</ele>
        <time>2018-10-30T08:43:05.000Z</time>
      </trkpt>
      <trkpt lat="43.40853" lon="5.45457">
        <ele>508.79998779297</ele>
        <time>2018-10-30T08:43:06.000Z</time>
      </trkpt>
      <trkpt lat="43.40854" lon="5.45464">
        <ele>509.39999389648</ele>
        <time>2018-10-30T08:43:14.000Z</time>
      </trkpt>
      <trkpt lat="43.40854" lon="5.45466">
        <ele>509.79998779297</ele>
        <time>2018-10-30T08:43:16.000Z</time>
      </trkpt>
      <trkpt lat="43.40855" lon="5.45471">
        <ele>510.79998779297</ele>
        <time>2018-10-30T08:43:22.000Z</time>
      </trkpt>
      <trkpt lat="43.40855" lon="5.45472">
        <ele>511</ele>
        <time>2018-10-30T08:43:23.000Z</time>
      </trkpt>
      <trkpt lat="43.40857" lon="5.45478">
        <ele>512</ele>
        <time>2018-10-30T08:43:31.000Z</time>
      </trkpt>
      <trkpt lat="43.40857" lon="5.45478">
        <ele>512.20001220703</ele>
        <time>2018-10-30T08:43:32.000Z</time>
      </trkpt>
      <trkpt lat="43.40857" lon="5.45481">
        <ele>512.79998779297</ele>
        <time>2018-10-30T08:43:37.000Z</time>
      </trkpt>
      <trkpt lat="43.40858" lon="5.45481">
        <ele>513</ele>
        <time>2018-10-30T08:43:39.000Z</time>
      </trkpt>
      <trkpt lat="43.40858" lon="5.45487">
        <ele>514</ele>
        <time>2018-10-30T08:43:48.000Z</time>
      </trkpt>
      <trkpt lat="43.40858" lon="5.4549">
        <ele>514.59997558594</ele>
        <time>2018-10-30T08:43:53.000Z</time>
      </trkpt>
      <trkpt lat="43.40858" lon="5.45491">
        <ele>515</ele>
        <time>2018-10-30T08:43:54.000Z</time>
      </trkpt>
      <trkpt lat="43.40858" lon="5.45492">
        <ele>516.20001220703</ele>
        <time>2018-10-30T08:43:56.000Z</time>
      </trkpt>
      <trkpt lat="43.40859" lon="5.45494">
        <ele>517.20001220703</ele>
        <time>2018-10-30T08:44:00.000Z</time>
      </trkpt>
      <trkpt lat="43.40862" lon="5.45499">
        <ele>518.40002441406</ele>
        <time>2018-10-30T08:44:08.000Z</time>
      </trkpt>
      <trkpt lat="43.40862" lon="5.455">
        <ele>518.40002441406</ele>
        <time>2018-10-30T08:44:09.000Z</time>
      </trkpt>
      <trkpt lat="43.40863" lon="5.45505">
        <ele>519.40002441406</ele>
        <time>2018-10-30T08:44:17.000Z</time>
      </trkpt>
      <trkpt lat="43.40863" lon="5.45506">
        <ele>520</ele>
        <time>2018-10-30T08:44:19.000Z</time>
      </trkpt>
      <trkpt lat="43.40863" lon="5.45506">
        <ele>520.59997558594</ele>
        <time>2018-10-30T08:44:20.000Z</time>
      </trkpt>
      <trkpt lat="43.40863" lon="5.45509">
        <ele>521</ele>
        <time>2018-10-30T08:44:29.000Z</time>
      </trkpt>
      <trkpt lat="43.40865" lon="5.45514">
        <ele>521.79998779297</ele>
        <time>2018-10-30T08:44:34.000Z</time>
      </trkpt>
      <trkpt lat="43.40865" lon="5.45516">
        <ele>522</ele>
        <time>2018-10-30T08:44:37.000Z</time>
      </trkpt>
      <trkpt lat="43.40864" lon="5.45518">
        <ele>522.79998779297</ele>
        <time>2018-10-30T08:44:41.000Z</time>
      </trkpt>
      <trkpt lat="43.40863" lon="5.4552">
        <ele>523</ele>
        <time>2018-10-30T08:44:45.000Z</time>
      </trkpt>
      <trkpt lat="43.40862" lon="5.45523">
        <ele>524</ele>
        <time>2018-10-30T08:44:49.000Z</time>
      </trkpt>
      <trkpt lat="43.40863" lon="5.45525">
        <ele>524.79998779297</ele>
        <time>2018-10-30T08:44:52.000Z</time>
      </trkpt>
      <trkpt lat="43.40863" lon="5.45526">
        <ele>524.79998779297</ele>
        <time>2018-10-30T08:44:53.000Z</time>
      </trkpt>
      <trkpt lat="43.40864" lon="5.45533">
        <ele>526</ele>
        <time>2018-10-30T08:45:04.000Z</time>
      </trkpt>
      <trkpt lat="43.40863" lon="5.45536">
        <ele>527</ele>
        <time>2018-10-30T08:45:10.000Z</time>
      </trkpt>
      <trkpt lat="43.40864" lon="5.45539">
        <ele>528</ele>
        <time>2018-10-30T08:45:14.000Z</time>
      </trkpt>
      <trkpt lat="43.40864" lon="5.45539">
        <ele>528.20001220703</ele>
        <time>2018-10-30T08:45:15.000Z</time>
      </trkpt>
      <trkpt lat="43.40866" lon="5.45542">
        <ele>529.20001220703</ele>
        <time>2018-10-30T08:45:18.000Z</time>
      </trkpt>
      <trkpt lat="43.40867" lon="5.45547">
        <ele>529.79998779297</ele>
        <time>2018-10-30T08:45:25.000Z</time>
      </trkpt>
      <trkpt lat="43.40868" lon="5.45549">
        <ele>530.40002441406</ele>
        <time>2018-10-30T08:45:29.000Z</time>
      </trkpt>
      <trkpt lat="43.40869" lon="5.45552">
        <ele>530.59997558594</ele>
        <time>2018-10-30T08:45:35.000Z</time>
      </trkpt>
      <trkpt lat="43.4087" lon="5.45555">
        <ele>531.59997558594</ele>
        <time>2018-10-30T08:45:42.000Z</time>
      </trkpt>
      <trkpt lat="43.40872" lon="5.45558">
        <ele>532.59997558594</ele>
        <time>2018-10-30T08:45:46.000Z</time>
      </trkpt>
      <trkpt lat="43.40872" lon="5.45559">
        <ele>532.59997558594</ele>
        <time>2018-10-30T08:45:47.000Z</time>
      </trkpt>
      <trkpt lat="43.40873" lon="5.45562">
        <ele>534</ele>
        <time>2018-10-30T08:45:53.000Z</time>
      </trkpt>
      <trkpt lat="43.40873" lon="5.45564">
        <ele>534.40002441406</ele>
        <time>2018-10-30T08:45:56.000Z</time>
      </trkpt>
      <trkpt lat="43.40874" lon="5.45567">
        <ele>535</ele>
        <time>2018-10-30T08:46:00.000Z</time>
      </trkpt>
      <trkpt lat="43.40875" lon="5.45569">
        <ele>535.59997558594</ele>
        <time>2018-10-30T08:46:06.000Z</time>
      </trkpt>
      <trkpt lat="43.40875" lon="5.4557">
        <ele>535.59997558594</ele>
        <time>2018-10-30T08:46:15.000Z</time>
      </trkpt>
      <trkpt lat="43.40874" lon="5.45573">
        <ele>536.40002441406</ele>
        <time>2018-10-30T08:46:20.000Z</time>
      </trkpt>
      <trkpt lat="43.40876" lon="5.45576">
        <ele>537.40002441406</ele>
        <time>2018-10-30T08:46:24.000Z</time>
      </trkpt>
      <trkpt lat="43.40876" lon="5.45577">
        <ele>537.59997558594</ele>
        <time>2018-10-30T08:46:25.000Z</time>
      </trkpt>
      <trkpt lat="43.40878" lon="5.4558">
        <ele>538.59997558594</ele>
        <time>2018-10-30T08:46:30.000Z</time>
      </trkpt>
      <trkpt lat="43.40881" lon="5.45585">
        <ele>539.40002441406</ele>
        <time>2018-10-30T08:46:37.000Z</time>
      </trkpt>
      <trkpt lat="43.40881" lon="5.45587">
        <ele>539.79998779297</ele>
        <time>2018-10-30T08:46:39.000Z</time>
      </trkpt>
      <trkpt lat="43.40882" lon="5.45588">
        <ele>540.20001220703</ele>
        <time>2018-10-30T08:46:41.000Z</time>
      </trkpt>
      <trkpt lat="43.40883" lon="5.45588">
        <ele>540.59997558594</ele>
        <time>2018-10-30T08:46:43.000Z</time>
      </trkpt>
      <trkpt lat="43.40883" lon="5.4559">
        <ele>540.79998779297</ele>
        <time>2018-10-30T08:46:47.000Z</time>
      </trkpt>
      <trkpt lat="43.40884" lon="5.45593">
        <ele>541.79998779297</ele>
        <time>2018-10-30T08:46:50.000Z</time>
      </trkpt>
      <trkpt lat="43.40886" lon="5.45596">
        <ele>542.59997558594</ele>
        <time>2018-10-30T08:46:56.000Z</time>
      </trkpt>
      <trkpt lat="43.40887" lon="5.45597">
        <ele>543.20001220703</ele>
        <time>2018-10-30T08:46:58.000Z</time>
      </trkpt>
      <trkpt lat="43.40888" lon="5.456">
        <ele>544.40002441406</ele>
        <time>2018-10-30T08:47:02.000Z</time>
      </trkpt>
      <trkpt lat="43.4089" lon="5.45601">
        <ele>545</ele>
        <time>2018-10-30T08:47:05.000Z</time>
      </trkpt>
      <trkpt lat="43.40894" lon="5.45601">
        <ele>545</ele>
        <time>2018-10-30T08:47:14.000Z</time>
      </trkpt>
      <trkpt lat="43.40894" lon="5.45601">
        <ele>545.40002441406</ele>
        <time>2018-10-30T08:47:16.000Z</time>
      </trkpt>
      <trkpt lat="43.40895" lon="5.45601">
        <ele>545.40002441406</ele>
        <time>2018-10-30T08:47:22.000Z</time>
      </trkpt>
      <trkpt lat="43.40895" lon="5.45601">
        <ele>544.79998779297</ele>
        <time>2018-10-30T08:47:30.000Z</time>
      </trkpt>
      <trkpt lat="43.40896" lon="5.45601">
        <ele>544.79998779297</ele>
        <time>2018-10-30T08:47:38.000Z</time>
      </trkpt>
      <trkpt lat="43.40895" lon="5.45602">
        <ele>544.59997558594</ele>
        <time>2018-10-30T08:47:47.000Z</time>
      </trkpt>
      <trkpt lat="43.40896" lon="5.45601">
        <ele>544.79998779297</ele>
        <time>2018-10-30T08:47:53.000Z</time>
      </trkpt>
      <trkpt lat="43.409" lon="5.45597">
        <ele>544.59997558594</ele>
        <time>2018-10-30T08:47:59.000Z</time>
      </trkpt>
      <trkpt lat="43.40902" lon="5.45595">
        <ele>544.40002441406</ele>
        <time>2018-10-30T08:48:05.000Z</time>
      </trkpt>
      <trkpt lat="43.40902" lon="5.45594">
        <ele>544.40002441406</ele>
        <time>2018-10-30T08:48:06.000Z</time>
      </trkpt>
      <trkpt lat="43.40905" lon="5.45592">
        <ele>544.40002441406</ele>
        <time>2018-10-30T08:48:12.000Z</time>
      </trkpt>
      <trkpt lat="43.40906" lon="5.45592">
        <ele>544.20001220703</ele>
        <time>2018-10-30T08:48:24.000Z</time>
      </trkpt>
      <trkpt lat="43.40906" lon="5.45594">
        <ele>544</ele>
        <time>2018-10-30T08:48:33.000Z</time>
      </trkpt>
      <trkpt lat="43.40906" lon="5.45593">
        <ele>544</ele>
        <time>2018-10-30T08:48:44.000Z</time>
      </trkpt>
      <trkpt lat="43.40905" lon="5.45595">
        <ele>544.20001220703</ele>
        <time>2018-10-30T08:48:52.000Z</time>
      </trkpt>
      <trkpt lat="43.40905" lon="5.45595">
        <ele>544</ele>
        <time>2018-10-30T08:49:04.000Z</time>
      </trkpt>
      <trkpt lat="43.40904" lon="5.45595">
        <ele>544.20001220703</ele>
        <time>2018-10-30T08:49:11.000Z</time>
      </trkpt>
      <trkpt lat="43.40902" lon="5.45598">
        <ele>544.20001220703</ele>
        <time>2018-10-30T08:49:16.000Z</time>
      </trkpt>
      <trkpt lat="43.40902" lon="5.45597">
        <ele>544.20001220703</ele>
        <time>2018-10-30T08:49:25.000Z</time>
      </trkpt>
      <trkpt lat="43.40902" lon="5.45597">
        <ele>544.20001220703</ele>
        <time>2018-10-30T08:49:33.000Z</time>
      </trkpt>
      <trkpt lat="43.40902" lon="5.45597">
        <ele>544.20001220703</ele>
        <time>2018-10-30T08:49:43.000Z</time>
      </trkpt>
      <trkpt lat="43.40901" lon="5.45597">
        <ele>544.20001220703</ele>
        <time>2018-10-30T08:49:58.000Z</time>
      </trkpt>
      <trkpt lat="43.40902" lon="5.45597">
        <ele>544</ele>
        <time>2018-10-30T08:50:19.000Z</time>
      </trkpt>
      <trkpt lat="43.40901" lon="5.45597">
        <ele>544.20001220703</ele>
        <time>2018-10-30T08:50:31.000Z</time>
      </trkpt>
      <trkpt lat="43.40902" lon="5.45597">
        <ele>543.79998779297</ele>
        <time>2018-10-30T08:50:55.000Z</time>
      </trkpt>
      <trkpt lat="43.40903" lon="5.45599">
        <ele>543.40002441406</ele>
        <time>2018-10-30T08:51:09.000Z</time>
      </trkpt>
      <trkpt lat="43.40904" lon="5.45599">
        <ele>543.40002441406</ele>
        <time>2018-10-30T08:51:19.000Z</time>
      </trkpt>
      <trkpt lat="43.40904" lon="5.45599">
        <ele>543.20001220703</ele>
        <time>2018-10-30T08:51:33.000Z</time>
      </trkpt>
      <trkpt lat="43.40902" lon="5.45597">
        <ele>543.40002441406</ele>
        <time>2018-10-30T08:51:42.000Z</time>
      </trkpt>
      <trkpt lat="43.40902" lon="5.45598">
        <ele>543.20001220703</ele>
        <time>2018-10-30T08:51:54.000Z</time>
      </trkpt>
      <trkpt lat="43.40902" lon="5.45598">
        <ele>543.20001220703</ele>
        <time>2018-10-30T08:52:06.000Z</time>
      </trkpt>
      <trkpt lat="43.40902" lon="5.45598">
        <ele>543.20001220703</ele>
        <time>2018-10-30T08:52:23.000Z</time>
      </trkpt>
      <trkpt lat="43.40902" lon="5.45598">
        <ele>543.20001220703</ele>
        <time>2018-10-30T08:52:37.000Z</time>
      </trkpt>
      <trkpt lat="43.40902" lon="5.45598">
        <ele>543.20001220703</ele>
        <time>2018-10-30T08:52:47.000Z</time>
      </trkpt>
      <trkpt lat="43.40901" lon="5.45599">
        <ele>543.20001220703</ele>
        <time>2018-10-30T08:52:48.000Z</time>
      </trkpt>
      <trkpt lat="43.409" lon="5.45604">
        <ele>543.59997558594</ele>
        <time>2018-10-30T08:52:56.000Z</time>
      </trkpt>
      <trkpt lat="43.40901" lon="5.4561">
        <ele>543</ele>
        <time>2018-10-30T08:53:03.000Z</time>
      </trkpt>
      <trkpt lat="43.40903" lon="5.45614">
        <ele>543.20001220703</ele>
        <time>2018-10-30T08:53:12.000Z</time>
      </trkpt>
      <trkpt lat="43.40905" lon="5.45623">
        <ele>542.40002441406</ele>
        <time>2018-10-30T08:53:19.000Z</time>
      </trkpt>
      <trkpt lat="43.40907" lon="5.45631">
        <ele>541.59997558594</ele>
        <time>2018-10-30T08:53:26.000Z</time>
      </trkpt>
      <trkpt lat="43.40907" lon="5.45635">
        <ele>541.20001220703</ele>
        <time>2018-10-30T08:53:29.000Z</time>
      </trkpt>
      <trkpt lat="43.40907" lon="5.45638">
        <ele>540.79998779297</ele>
        <time>2018-10-30T08:53:32.000Z</time>
      </trkpt>
      <trkpt lat="43.40909" lon="5.45644">
        <ele>540.20001220703</ele>
        <time>2018-10-30T08:53:38.000Z</time>
      </trkpt>
      <trkpt lat="43.4091" lon="5.45646">
        <ele>540</ele>
        <time>2018-10-30T08:53:39.000Z</time>
      </trkpt>
      <trkpt lat="43.4091" lon="5.45648">
        <ele>539.79998779297</ele>
        <time>2018-10-30T08:53:41.000Z</time>
      </trkpt>
      <trkpt lat="43.40911" lon="5.45651">
        <ele>539.40002441406</ele>
        <time>2018-10-30T08:53:44.000Z</time>
      </trkpt>
      <trkpt lat="43.40912" lon="5.45653">
        <ele>539</ele>
        <time>2018-10-30T08:53:46.000Z</time>
      </trkpt>
      <trkpt lat="43.40914" lon="5.45659">
        <ele>538.40002441406</ele>
        <time>2018-10-30T08:53:51.000Z</time>
      </trkpt>
      <trkpt lat="43.40914" lon="5.4566">
        <ele>538.20001220703</ele>
        <time>2018-10-30T08:53:52.000Z</time>
      </trkpt>
      <trkpt lat="43.40914" lon="5.45664">
        <ele>537.79998779297</ele>
        <time>2018-10-30T08:53:55.000Z</time>
      </trkpt>
      <trkpt lat="43.40915" lon="5.45665">
        <ele>537.59997558594</ele>
        <time>2018-10-30T08:53:56.000Z</time>
      </trkpt>
      <trkpt lat="43.40916" lon="5.45673">
        <ele>537.40002441406</ele>
        <time>2018-10-30T08:54:02.000Z</time>
      </trkpt>
      <trkpt lat="43.40916" lon="5.45674">
        <ele>537.20001220703</ele>
        <time>2018-10-30T08:54:03.000Z</time>
      </trkpt>
      <trkpt lat="43.40917" lon="5.45681">
        <ele>536.79998779297</ele>
        <time>2018-10-30T08:54:08.000Z</time>
      </trkpt>
      <trkpt lat="43.40917" lon="5.45682">
        <ele>536.59997558594</ele>
        <time>2018-10-30T08:54:09.000Z</time>
      </trkpt>
      <trkpt lat="43.40917" lon="5.45691">
        <ele>536.40002441406</ele>
        <time>2018-10-30T08:54:15.000Z</time>
      </trkpt>
      <trkpt lat="43.40917" lon="5.45694">
        <ele>536.20001220703</ele>
        <time>2018-10-30T08:54:17.000Z</time>
      </trkpt>
      <trkpt lat="43.40917" lon="5.457">
        <ele>536</ele>
        <time>2018-10-30T08:54:22.000Z</time>
      </trkpt>
      <trkpt lat="43.40917" lon="5.45704">
        <ele>535.79998779297</ele>
        <time>2018-10-30T08:54:25.000Z</time>
      </trkpt>
      <trkpt lat="43.40918" lon="5.45705">
        <ele>535.79998779297</ele>
        <time>2018-10-30T08:54:26.000Z</time>
      </trkpt>
      <trkpt lat="43.40918" lon="5.45711">
        <ele>535.59997558594</ele>
        <time>2018-10-30T08:54:33.000Z</time>
      </trkpt>
      <trkpt lat="43.40919" lon="5.45721">
        <ele>535.20001220703</ele>
        <time>2018-10-30T08:54:41.000Z</time>
      </trkpt>
      <trkpt lat="43.40917" lon="5.45728">
        <ele>535</ele>
        <time>2018-10-30T08:54:48.000Z</time>
      </trkpt>
      <trkpt lat="43.40917" lon="5.45731">
        <ele>534.79998779297</ele>
        <time>2018-10-30T08:54:54.000Z</time>
      </trkpt>
      <trkpt lat="43.40916" lon="5.45737">
        <ele>534.40002441406</ele>
        <time>2018-10-30T08:55:03.000Z</time>
      </trkpt>
      <trkpt lat="43.40915" lon="5.45742">
        <ele>533.40002441406</ele>
        <time>2018-10-30T08:55:08.000Z</time>
      </trkpt>
      <trkpt lat="43.40915" lon="5.45743">
        <ele>533.20001220703</ele>
        <time>2018-10-30T08:55:09.000Z</time>
      </trkpt>
      <trkpt lat="43.40917" lon="5.45748">
        <ele>532.40002441406</ele>
        <time>2018-10-30T08:55:15.000Z</time>
      </trkpt>
      <trkpt lat="43.40917" lon="5.45749">
        <ele>532</ele>
        <time>2018-10-30T08:55:16.000Z</time>
      </trkpt>
      <trkpt lat="43.40917" lon="5.45755">
        <ele>531</ele>
        <time>2018-10-30T08:55:22.000Z</time>
      </trkpt>
      <trkpt lat="43.40917" lon="5.45756">
        <ele>530.79998779297</ele>
        <time>2018-10-30T08:55:23.000Z</time>
      </trkpt>
      <trkpt lat="43.40916" lon="5.45761">
        <ele>530.20001220703</ele>
        <time>2018-10-30T08:55:29.000Z</time>
      </trkpt>
      <trkpt lat="43.40915" lon="5.45763">
        <ele>529.79998779297</ele>
        <time>2018-10-30T08:55:31.000Z</time>
      </trkpt>
      <trkpt lat="43.40914" lon="5.45768">
        <ele>528.79998779297</ele>
        <time>2018-10-30T08:55:37.000Z</time>
      </trkpt>
      <trkpt lat="43.40912" lon="5.45773">
        <ele>527.79998779297</ele>
        <time>2018-10-30T08:55:43.000Z</time>
      </trkpt>
      <trkpt lat="43.40912" lon="5.45774">
        <ele>527.59997558594</ele>
        <time>2018-10-30T08:55:45.000Z</time>
      </trkpt>
      <trkpt lat="43.40911" lon="5.45777">
        <ele>527.59997558594</ele>
        <time>2018-10-30T08:55:48.000Z</time>
      </trkpt>
      <trkpt lat="43.40911" lon="5.45778">
        <ele>527.40002441406</ele>
        <time>2018-10-30T08:55:49.000Z</time>
      </trkpt>
      <trkpt lat="43.40909" lon="5.45782">
        <ele>526.40002441406</ele>
        <time>2018-10-30T08:55:54.000Z</time>
      </trkpt>
      <trkpt lat="43.40909" lon="5.45784">
        <ele>525.79998779297</ele>
        <time>2018-10-30T08:55:56.000Z</time>
      </trkpt>
      <trkpt lat="43.40908" lon="5.45786">
        <ele>525.20001220703</ele>
        <time>2018-10-30T08:55:59.000Z</time>
      </trkpt>
      <trkpt lat="43.40907" lon="5.4579">
        <ele>524.79998779297</ele>
        <time>2018-10-30T08:56:02.000Z</time>
      </trkpt>
      <trkpt lat="43.40907" lon="5.45791">
        <ele>524.59997558594</ele>
        <time>2018-10-30T08:56:03.000Z</time>
      </trkpt>
      <trkpt lat="43.40906" lon="5.45793">
        <ele>524.20001220703</ele>
        <time>2018-10-30T08:56:06.000Z</time>
      </trkpt>
      <trkpt lat="43.40905" lon="5.45795">
        <ele>523.79998779297</ele>
        <time>2018-10-30T08:56:09.000Z</time>
      </trkpt>
      <trkpt lat="43.40904" lon="5.45799">
        <ele>523</ele>
        <time>2018-10-30T08:56:14.000Z</time>
      </trkpt>
      <trkpt lat="43.40903" lon="5.45802">
        <ele>522.79998779297</ele>
        <time>2018-10-30T08:56:17.000Z</time>
      </trkpt>
      <trkpt lat="43.40902" lon="5.45805">
        <ele>522</ele>
        <time>2018-10-30T08:56:20.000Z</time>
      </trkpt>
      <trkpt lat="43.40901" lon="5.45809">
        <ele>521</ele>
        <time>2018-10-30T08:56:26.000Z</time>
      </trkpt>
      <trkpt lat="43.409" lon="5.4581">
        <ele>520.79998779297</ele>
        <time>2018-10-30T08:56:27.000Z</time>
      </trkpt>
      <trkpt lat="43.40898" lon="5.45815">
        <ele>519.79998779297</ele>
        <time>2018-10-30T08:56:34.000Z</time>
      </trkpt>
      <trkpt lat="43.40894" lon="5.45821">
        <ele>518.79998779297</ele>
        <time>2018-10-30T08:56:43.000Z</time>
      </trkpt>
      <trkpt lat="43.40894" lon="5.45821">
        <ele>518.79998779297</ele>
        <time>2018-10-30T08:56:44.000Z</time>
      </trkpt>
      <trkpt lat="43.4089" lon="5.45825">
        <ele>517.79998779297</ele>
        <time>2018-10-30T08:56:51.000Z</time>
      </trkpt>
      <trkpt lat="43.40885" lon="5.45833">
        <ele>516.59997558594</ele>
        <time>2018-10-30T08:57:00.000Z</time>
      </trkpt>
      <trkpt lat="43.40882" lon="5.45838">
        <ele>515.79998779297</ele>
        <time>2018-10-30T08:57:07.000Z</time>
      </trkpt>
      <trkpt lat="43.40881" lon="5.45845">
        <ele>515.40002441406</ele>
        <time>2018-10-30T08:57:13.000Z</time>
      </trkpt>
      <trkpt lat="43.40879" lon="5.45853">
        <ele>515</ele>
        <time>2018-10-30T08:57:19.000Z</time>
      </trkpt>
      <trkpt lat="43.40879" lon="5.45855">
        <ele>514.79998779297</ele>
        <time>2018-10-30T08:57:21.000Z</time>
      </trkpt>
      <trkpt lat="43.40879" lon="5.45856">
        <ele>514.59997558594</ele>
        <time>2018-10-30T08:57:22.000Z</time>
      </trkpt>
      <trkpt lat="43.40879" lon="5.45858">
        <ele>514.40002441406</ele>
        <time>2018-10-30T08:57:23.000Z</time>
      </trkpt>
      <trkpt lat="43.40878" lon="5.45863">
        <ele>514</ele>
        <time>2018-10-30T08:57:27.000Z</time>
      </trkpt>
      <trkpt lat="43.40878" lon="5.45873">
        <ele>513.59997558594</ele>
        <time>2018-10-30T08:57:35.000Z</time>
      </trkpt>
      <trkpt lat="43.40879" lon="5.45881">
        <ele>513.79998779297</ele>
        <time>2018-10-30T08:57:43.000Z</time>
      </trkpt>
      <trkpt lat="43.40879" lon="5.45887">
        <ele>514.40002441406</ele>
        <time>2018-10-30T08:57:49.000Z</time>
      </trkpt>
      <trkpt lat="43.4088" lon="5.45896">
        <ele>515.20001220703</ele>
        <time>2018-10-30T08:57:56.000Z</time>
      </trkpt>
      <trkpt lat="43.4088" lon="5.45899">
        <ele>515.40002441406</ele>
        <time>2018-10-30T08:57:58.000Z</time>
      </trkpt>
      <trkpt lat="43.40881" lon="5.45908">
        <ele>515.40002441406</ele>
        <time>2018-10-30T08:58:06.000Z</time>
      </trkpt>
      <trkpt lat="43.40882" lon="5.45916">
        <ele>515.79998779297</ele>
        <time>2018-10-30T08:58:12.000Z</time>
      </trkpt>
      <trkpt lat="43.40884" lon="5.45924">
        <ele>516.20001220703</ele>
        <time>2018-10-30T08:58:17.000Z</time>
      </trkpt>
      <trkpt lat="43.40884" lon="5.45925">
        <ele>516.20001220703</ele>
        <time>2018-10-30T08:58:18.000Z</time>
      </trkpt>
      <trkpt lat="43.40885" lon="5.45928">
        <ele>516.20001220703</ele>
        <time>2018-10-30T08:58:21.000Z</time>
      </trkpt>
      <trkpt lat="43.40886" lon="5.45934">
        <ele>516.40002441406</ele>
        <time>2018-10-30T08:58:25.000Z</time>
      </trkpt>
      <trkpt lat="43.40888" lon="5.4594">
        <ele>516.79998779297</ele>
        <time>2018-10-30T08:58:30.000Z</time>
      </trkpt>
      <trkpt lat="43.40889" lon="5.45943">
        <ele>517.20001220703</ele>
        <time>2018-10-30T08:58:33.000Z</time>
      </trkpt>
      <trkpt lat="43.40889" lon="5.45947">
        <ele>517.20001220703</ele>
        <time>2018-10-30T08:58:36.000Z</time>
      </trkpt>
      <trkpt lat="43.40888" lon="5.4595">
        <ele>517.79998779297</ele>
        <time>2018-10-30T08:58:41.000Z</time>
      </trkpt>
      <trkpt lat="43.40887" lon="5.45951">
        <ele>518.20001220703</ele>
        <time>2018-10-30T08:58:44.000Z</time>
      </trkpt>
      <trkpt lat="43.40884" lon="5.45954">
        <ele>518.59997558594</ele>
        <time>2018-10-30T08:58:49.000Z</time>
      </trkpt>
      <trkpt lat="43.40882" lon="5.45956">
        <ele>519.20001220703</ele>
        <time>2018-10-30T08:58:53.000Z</time>
      </trkpt>
      <trkpt lat="43.40878" lon="5.45958">
        <ele>519.40002441406</ele>
        <time>2018-10-30T08:58:58.000Z</time>
      </trkpt>
      <trkpt lat="43.40877" lon="5.4596">
        <ele>520</ele>
        <time>2018-10-30T08:59:00.000Z</time>
      </trkpt>
      <trkpt lat="43.40876" lon="5.45964">
        <ele>520.40002441406</ele>
        <time>2018-10-30T08:59:04.000Z</time>
      </trkpt>
      <trkpt lat="43.40875" lon="5.45968">
        <ele>520.79998779297</ele>
        <time>2018-10-30T08:59:12.000Z</time>
      </trkpt>
      <trkpt lat="43.40872" lon="5.45966">
        <ele>521.20001220703</ele>
        <time>2018-10-30T08:59:18.000Z</time>
      </trkpt>
      <trkpt lat="43.40871" lon="5.45967">
        <ele>521.20001220703</ele>
        <time>2018-10-30T08:59:20.000Z</time>
      </trkpt>
      <trkpt lat="43.40868" lon="5.45969">
        <ele>522</ele>
        <time>2018-10-30T08:59:25.000Z</time>
      </trkpt>
      <trkpt lat="43.40865" lon="5.4597">
        <ele>522.59997558594</ele>
        <time>2018-10-30T08:59:29.000Z</time>
      </trkpt>
      <trkpt lat="43.40864" lon="5.45971">
        <ele>523</ele>
        <time>2018-10-30T08:59:31.000Z</time>
      </trkpt>
      <trkpt lat="43.40859" lon="5.45974">
        <ele>523.79998779297</ele>
        <time>2018-10-30T08:59:39.000Z</time>
      </trkpt>
      <trkpt lat="43.40857" lon="5.45975">
        <ele>524.20001220703</ele>
        <time>2018-10-30T08:59:42.000Z</time>
      </trkpt>
      <trkpt lat="43.40855" lon="5.45976">
        <ele>524.59997558594</ele>
        <time>2018-10-30T08:59:47.000Z</time>
      </trkpt>
      <trkpt lat="43.40851" lon="5.45977">
        <ele>524.79998779297</ele>
        <time>2018-10-30T08:59:54.000Z</time>
      </trkpt>
      <trkpt lat="43.4085" lon="5.45978">
        <ele>525</ele>
        <time>2018-10-30T08:59:55.000Z</time>
      </trkpt>
      <trkpt lat="43.40849" lon="5.45979">
        <ele>525</ele>
        <time>2018-10-30T08:59:56.000Z</time>
      </trkpt>
      <trkpt lat="43.40848" lon="5.4598">
        <ele>525.40002441406</ele>
        <time>2018-10-30T09:00:00.000Z</time>
      </trkpt>
      <trkpt lat="43.40847" lon="5.4598">
        <ele>525.40002441406</ele>
        <time>2018-10-30T09:00:07.000Z</time>
      </trkpt>
      <trkpt lat="43.40844" lon="5.45979">
        <ele>525.79998779297</ele>
        <time>2018-10-30T09:00:15.000Z</time>
      </trkpt>
      <trkpt lat="43.40844" lon="5.45979">
        <ele>526.20001220703</ele>
        <time>2018-10-30T09:00:17.000Z</time>
      </trkpt>
      <trkpt lat="43.40843" lon="5.45981">
        <ele>526.59997558594</ele>
        <time>2018-10-30T09:00:24.000Z</time>
      </trkpt>
      <trkpt lat="43.40843" lon="5.45983">
        <ele>527</ele>
        <time>2018-10-30T09:00:28.000Z</time>
      </trkpt>
      <trkpt lat="43.40841" lon="5.45983">
        <ele>527.59997558594</ele>
        <time>2018-10-30T09:00:33.000Z</time>
      </trkpt>
      <trkpt lat="43.40841" lon="5.45983">
        <ele>528.20001220703</ele>
        <time>2018-10-30T09:00:37.000Z</time>
      </trkpt>
      <trkpt lat="43.40841" lon="5.45983">
        <ele>528.40002441406</ele>
        <time>2018-10-30T09:00:42.000Z</time>
      </trkpt>
      <trkpt lat="43.4084" lon="5.45983">
        <ele>528.59997558594</ele>
        <time>2018-10-30T09:00:49.000Z</time>
      </trkpt>
      <trkpt lat="43.40837" lon="5.45981">
        <ele>529</ele>
        <time>2018-10-30T09:00:55.000Z</time>
      </trkpt>
      <trkpt lat="43.40836" lon="5.45981">
        <ele>529.40002441406</ele>
        <time>2018-10-30T09:00:56.000Z</time>
      </trkpt>
      <trkpt lat="43.40834" lon="5.45981">
        <ele>530.40002441406</ele>
        <time>2018-10-30T09:01:02.000Z</time>
      </trkpt>
      <trkpt lat="43.40834" lon="5.45981">
        <ele>530.40002441406</ele>
        <time>2018-10-30T09:01:05.000Z</time>
      </trkpt>
      <trkpt lat="43.40834" lon="5.45981">
        <ele>530</ele>
        <time>2018-10-30T09:01:06.000Z</time>
      </trkpt>
      <trkpt lat="43.40834" lon="5.45982">
        <ele>529.79998779297</ele>
        <time>2018-10-30T09:01:09.000Z</time>
      </trkpt>
      <trkpt lat="43.40832" lon="5.45989">
        <ele>529</ele>
        <time>2018-10-30T09:01:16.000Z</time>
      </trkpt>
      <trkpt lat="43.40831" lon="5.45995">
        <ele>528.40002441406</ele>
        <time>2018-10-30T09:01:19.000Z</time>
      </trkpt>
      <trkpt lat="43.4083" lon="5.45995">
        <ele>528</ele>
        <time>2018-10-30T09:01:20.000Z</time>
      </trkpt>
      <trkpt lat="43.4083" lon="5.45996">
        <ele>527.79998779297</ele>
        <time>2018-10-30T09:01:21.000Z</time>
      </trkpt>
      <trkpt lat="43.40825" lon="5.45999">
        <ele>527.59997558594</ele>
        <time>2018-10-30T09:01:28.000Z</time>
      </trkpt>
      <trkpt lat="43.4082" lon="5.45998">
        <ele>528</ele>
        <time>2018-10-30T09:01:35.000Z</time>
      </trkpt>
      <trkpt lat="43.40814" lon="5.45998">
        <ele>528.59997558594</ele>
        <time>2018-10-30T09:01:44.000Z</time>
      </trkpt>
      <trkpt lat="43.40814" lon="5.45998">
        <ele>529</ele>
        <time>2018-10-30T09:01:45.000Z</time>
      </trkpt>
      <trkpt lat="43.40809" lon="5.46001">
        <ele>529.59997558594</ele>
        <time>2018-10-30T09:01:53.000Z</time>
      </trkpt>
      <trkpt lat="43.40809" lon="5.46">
        <ele>530</ele>
        <time>2018-10-30T09:01:54.000Z</time>
      </trkpt>
      <trkpt lat="43.40805" lon="5.46">
        <ele>530.79998779297</ele>
        <time>2018-10-30T09:02:00.000Z</time>
      </trkpt>
      <trkpt lat="43.40804" lon="5.45999">
        <ele>530.79998779297</ele>
        <time>2018-10-30T09:02:01.000Z</time>
      </trkpt>
      <trkpt lat="43.40801" lon="5.45998">
        <ele>531.79998779297</ele>
        <time>2018-10-30T09:02:07.000Z</time>
      </trkpt>
      <trkpt lat="43.408" lon="5.45998">
        <ele>532.20001220703</ele>
        <time>2018-10-30T09:02:09.000Z</time>
      </trkpt>
      <trkpt lat="43.40799" lon="5.45998">
        <ele>533</ele>
        <time>2018-10-30T09:02:12.000Z</time>
      </trkpt>
      <trkpt lat="43.40796" lon="5.45998">
        <ele>533.79998779297</ele>
        <time>2018-10-30T09:02:18.000Z</time>
      </trkpt>
      <trkpt lat="43.40795" lon="5.45997">
        <ele>534</ele>
        <time>2018-10-30T09:02:20.000Z</time>
      </trkpt>
      <trkpt lat="43.40792" lon="5.45996">
        <ele>535.20001220703</ele>
        <time>2018-10-30T09:02:25.000Z</time>
      </trkpt>
      <trkpt lat="43.40792" lon="5.45995">
        <ele>535.40002441406</ele>
        <time>2018-10-30T09:02:26.000Z</time>
      </trkpt>
      <trkpt lat="43.40788" lon="5.45993">
        <ele>536.59997558594</ele>
        <time>2018-10-30T09:02:34.000Z</time>
      </trkpt>
      <trkpt lat="43.40786" lon="5.45992">
        <ele>537.59997558594</ele>
        <time>2018-10-30T09:02:40.000Z</time>
      </trkpt>
      <trkpt lat="43.40785" lon="5.45993">
        <ele>538</ele>
        <time>2018-10-30T09:02:42.000Z</time>
      </trkpt>
      <trkpt lat="43.40784" lon="5.45992">
        <ele>538.79998779297</ele>
        <time>2018-10-30T09:02:50.000Z</time>
      </trkpt>
      <trkpt lat="43.40783" lon="5.45992">
        <ele>539.20001220703</ele>
        <time>2018-10-30T09:02:51.000Z</time>
      </trkpt>
      <trkpt lat="43.4078" lon="5.45991">
        <ele>540.20001220703</ele>
        <time>2018-10-30T09:03:00.000Z</time>
      </trkpt>
      <trkpt lat="43.40777" lon="5.45989">
        <ele>541.20001220703</ele>
        <time>2018-10-30T09:03:08.000Z</time>
      </trkpt>
      <trkpt lat="43.40777" lon="5.45989">
        <ele>541.20001220703</ele>
        <time>2018-10-30T09:03:09.000Z</time>
      </trkpt>
      <trkpt lat="43.40775" lon="5.45989">
        <ele>542.20001220703</ele>
        <time>2018-10-30T09:03:15.000Z</time>
      </trkpt>
      <trkpt lat="43.40773" lon="5.4599">
        <ele>542.59997558594</ele>
        <time>2018-10-30T09:03:17.000Z</time>
      </trkpt>
      <trkpt lat="43.40769" lon="5.4599">
        <ele>543.20001220703</ele>
        <time>2018-10-30T09:03:23.000Z</time>
      </trkpt>
      <trkpt lat="43.40767" lon="5.45989">
        <ele>544.40002441406</ele>
        <time>2018-10-30T09:03:28.000Z</time>
      </trkpt>
      <trkpt lat="43.40766" lon="5.45989">
        <ele>544.79998779297</ele>
        <time>2018-10-30T09:03:30.000Z</time>
      </trkpt>
      <trkpt lat="43.40764" lon="5.45989">
        <ele>544.59997558594</ele>
        <time>2018-10-30T09:03:37.000Z</time>
      </trkpt>
      <trkpt lat="43.40763" lon="5.45988">
        <ele>545.40002441406</ele>
        <time>2018-10-30T09:03:40.000Z</time>
      </trkpt>
      <trkpt lat="43.40761" lon="5.45989">
        <ele>546.59997558594</ele>
        <time>2018-10-30T09:03:46.000Z</time>
      </trkpt>
      <trkpt lat="43.40754" lon="5.4599">
        <ele>548</ele>
        <time>2018-10-30T09:03:57.000Z</time>
      </trkpt>
      <trkpt lat="43.40753" lon="5.45991">
        <ele>549.20001220703</ele>
        <time>2018-10-30T09:04:02.000Z</time>
      </trkpt>
      <trkpt lat="43.40752" lon="5.45992">
        <ele>549.59997558594</ele>
        <time>2018-10-30T09:04:04.000Z</time>
      </trkpt>
      <trkpt lat="43.4075" lon="5.45992">
        <ele>550.20001220703</ele>
        <time>2018-10-30T09:04:11.000Z</time>
      </trkpt>
      <trkpt lat="43.40749" lon="5.45994">
        <ele>550.59997558594</ele>
        <time>2018-10-30T09:04:14.000Z</time>
      </trkpt>
      <trkpt lat="43.40746" lon="5.45995">
        <ele>551.40002441406</ele>
        <time>2018-10-30T09:04:22.000Z</time>
      </trkpt>
      <trkpt lat="43.40746" lon="5.45996">
        <ele>551.59997558594</ele>
        <time>2018-10-30T09:04:24.000Z</time>
      </trkpt>
      <trkpt lat="43.40744" lon="5.45996">
        <ele>552.40002441406</ele>
        <time>2018-10-30T09:04:31.000Z</time>
      </trkpt>
      <trkpt lat="43.40742" lon="5.45998">
        <ele>553.40002441406</ele>
        <time>2018-10-30T09:04:39.000Z</time>
      </trkpt>
      <trkpt lat="43.40741" lon="5.45998">
        <ele>553.40002441406</ele>
        <time>2018-10-30T09:04:40.000Z</time>
      </trkpt>
      <trkpt lat="43.40739" lon="5.46">
        <ele>554.59997558594</ele>
        <time>2018-10-30T09:04:47.000Z</time>
      </trkpt>
      <trkpt lat="43.40739" lon="5.46001">
        <ele>554.79998779297</ele>
        <time>2018-10-30T09:04:48.000Z</time>
      </trkpt>
      <trkpt lat="43.40736" lon="5.46003">
        <ele>555.59997558594</ele>
        <time>2018-10-30T09:04:53.000Z</time>
      </trkpt>
      <trkpt lat="43.40735" lon="5.46004">
        <ele>555.79998779297</ele>
        <time>2018-10-30T09:04:54.000Z</time>
      </trkpt>
      <trkpt lat="43.40734" lon="5.46008">
        <ele>556.59997558594</ele>
        <time>2018-10-30T09:05:00.000Z</time>
      </trkpt>
      <trkpt lat="43.40733" lon="5.46008">
        <ele>556.79998779297</ele>
        <time>2018-10-30T09:05:01.000Z</time>
      </trkpt>
      <trkpt lat="43.40732" lon="5.4601">
        <ele>557.79998779297</ele>
        <time>2018-10-30T09:05:09.000Z</time>
      </trkpt>
      <trkpt lat="43.4073" lon="5.46013">
        <ele>559</ele>
        <time>2018-10-30T09:05:17.000Z</time>
      </trkpt>
      <trkpt lat="43.40725" lon="5.46016">
        <ele>559.79998779297</ele>
        <time>2018-10-30T09:05:26.000Z</time>
      </trkpt>
      <trkpt lat="43.40722" lon="5.4602">
        <ele>560.20001220703</ele>
        <time>2018-10-30T09:05:34.000Z</time>
      </trkpt>
      <trkpt lat="43.40721" lon="5.46019">
        <ele>560.20001220703</ele>
        <time>2018-10-30T09:05:35.000Z</time>
      </trkpt>
      <trkpt lat="43.40718" lon="5.46021">
        <ele>560.20001220703</ele>
        <time>2018-10-30T09:05:41.000Z</time>
      </trkpt>
      <trkpt lat="43.40715" lon="5.4602">
        <ele>561</ele>
        <time>2018-10-30T09:05:50.000Z</time>
      </trkpt>
      <trkpt lat="43.40713" lon="5.46022">
        <ele>561.40002441406</ele>
        <time>2018-10-30T09:05:53.000Z</time>
      </trkpt>
      <trkpt lat="43.4071" lon="5.46026">
        <ele>561.79998779297</ele>
        <time>2018-10-30T09:05:58.000Z</time>
      </trkpt>
      <trkpt lat="43.40706" lon="5.46027">
        <ele>562.20001220703</ele>
        <time>2018-10-30T09:06:06.000Z</time>
      </trkpt>
      <trkpt lat="43.40705" lon="5.46027">
        <ele>562.40002441406</ele>
        <time>2018-10-30T09:06:07.000Z</time>
      </trkpt>
      <trkpt lat="43.40703" lon="5.46027">
        <ele>563.40002441406</ele>
        <time>2018-10-30T09:06:13.000Z</time>
      </trkpt>
      <trkpt lat="43.40702" lon="5.46027">
        <ele>563.59997558594</ele>
        <time>2018-10-30T09:06:15.000Z</time>
      </trkpt>
      <trkpt lat="43.40701" lon="5.46028">
        <ele>563.79998779297</ele>
        <time>2018-10-30T09:06:26.000Z</time>
      </trkpt>
      <trkpt lat="43.40701" lon="5.46027">
        <ele>564</ele>
        <time>2018-10-30T09:06:35.000Z</time>
      </trkpt>
      <trkpt lat="43.40701" lon="5.46027">
        <ele>563.59997558594</ele>
        <time>2018-10-30T09:06:43.000Z</time>
      </trkpt>
      <trkpt lat="43.40701" lon="5.46028">
        <ele>563.59997558594</ele>
        <time>2018-10-30T09:06:55.000Z</time>
      </trkpt>
      <trkpt lat="43.40697" lon="5.46032">
        <ele>563.40002441406</ele>
        <time>2018-10-30T09:07:01.000Z</time>
      </trkpt>
      <trkpt lat="43.40693" lon="5.46031">
        <ele>562.79998779297</ele>
        <time>2018-10-30T09:07:07.000Z</time>
      </trkpt>
      <trkpt lat="43.40688" lon="5.4603">
        <ele>563.59997558594</ele>
        <time>2018-10-30T09:07:15.000Z</time>
      </trkpt>
      <trkpt lat="43.40685" lon="5.4603">
        <ele>564.40002441406</ele>
        <time>2018-10-30T09:07:20.000Z</time>
      </trkpt>
      <trkpt lat="43.40682" lon="5.4603">
        <ele>565</ele>
        <time>2018-10-30T09:07:25.000Z</time>
      </trkpt>
      <trkpt lat="43.40679" lon="5.46029">
        <ele>565.79998779297</ele>
        <time>2018-10-30T09:07:30.000Z</time>
      </trkpt>
      <trkpt lat="43.40676" lon="5.4603">
        <ele>566.20001220703</ele>
        <time>2018-10-30T09:07:34.000Z</time>
      </trkpt>
      <trkpt lat="43.40674" lon="5.4603">
        <ele>566.79998779297</ele>
        <time>2018-10-30T09:07:38.000Z</time>
      </trkpt>
      <trkpt lat="43.40671" lon="5.46029">
        <ele>567.79998779297</ele>
        <time>2018-10-30T09:07:44.000Z</time>
      </trkpt>
      <trkpt lat="43.4067" lon="5.46029">
        <ele>568</ele>
        <time>2018-10-30T09:07:45.000Z</time>
      </trkpt>
      <trkpt lat="43.40668" lon="5.46031">
        <ele>568.79998779297</ele>
        <time>2018-10-30T09:07:50.000Z</time>
      </trkpt>
      <trkpt lat="43.40666" lon="5.4603">
        <ele>569.40002441406</ele>
        <time>2018-10-30T09:07:55.000Z</time>
      </trkpt>
      <trkpt lat="43.40664" lon="5.46032">
        <ele>570</ele>
        <time>2018-10-30T09:07:58.000Z</time>
      </trkpt>
      <trkpt lat="43.40662" lon="5.46034">
        <ele>571.20001220703</ele>
        <time>2018-10-30T09:08:04.000Z</time>
      </trkpt>
      <trkpt lat="43.40658" lon="5.46036">
        <ele>572.20001220703</ele>
        <time>2018-10-30T09:08:11.000Z</time>
      </trkpt>
      <trkpt lat="43.40656" lon="5.46036">
        <ele>573.40002441406</ele>
        <time>2018-10-30T09:08:19.000Z</time>
      </trkpt>
      <trkpt lat="43.40654" lon="5.46035">
        <ele>574.59997558594</ele>
        <time>2018-10-30T09:08:26.000Z</time>
      </trkpt>
      <trkpt lat="43.40653" lon="5.46036">
        <ele>574.79998779297</ele>
        <time>2018-10-30T09:08:27.000Z</time>
      </trkpt>
      <trkpt lat="43.40649" lon="5.46037">
        <ele>576</ele>
        <time>2018-10-30T09:08:36.000Z</time>
      </trkpt>
      <trkpt lat="43.40644" lon="5.46036">
        <ele>577.20001220703</ele>
        <time>2018-10-30T09:08:45.000Z</time>
      </trkpt>
      <trkpt lat="43.40641" lon="5.46038">
        <ele>578.40002441406</ele>
        <time>2018-10-30T09:08:53.000Z</time>
      </trkpt>
      <trkpt lat="43.40641" lon="5.46039">
        <ele>578.40002441406</ele>
        <time>2018-10-30T09:08:55.000Z</time>
      </trkpt>
      <trkpt lat="43.40641" lon="5.46039">
        <ele>579</ele>
        <time>2018-10-30T09:08:57.000Z</time>
      </trkpt>
      <trkpt lat="43.40642" lon="5.46039">
        <ele>579.59997558594</ele>
        <time>2018-10-30T09:08:59.000Z</time>
      </trkpt>
      <trkpt lat="43.40642" lon="5.46039">
        <ele>579.59997558594</ele>
        <time>2018-10-30T09:09:00.000Z</time>
      </trkpt>
      <trkpt lat="43.4064" lon="5.46042">
        <ele>580.59997558594</ele>
        <time>2018-10-30T09:09:04.000Z</time>
      </trkpt>
      <trkpt lat="43.40639" lon="5.46043">
        <ele>581</ele>
        <time>2018-10-30T09:09:06.000Z</time>
      </trkpt>
      <trkpt lat="43.40637" lon="5.46043">
        <ele>581.40002441406</ele>
        <time>2018-10-30T09:09:16.000Z</time>
      </trkpt>
      <trkpt lat="43.40637" lon="5.46042">
        <ele>581.40002441406</ele>
        <time>2018-10-30T09:09:24.000Z</time>
      </trkpt>
      <trkpt lat="43.40637" lon="5.46043">
        <ele>581.40002441406</ele>
        <time>2018-10-30T09:09:34.000Z</time>
      </trkpt>
      <trkpt lat="43.40637" lon="5.46043">
        <ele>581.40002441406</ele>
        <time>2018-10-30T09:09:42.000Z</time>
      </trkpt>
      <trkpt lat="43.40637" lon="5.46043">
        <ele>581.40002441406</ele>
        <time>2018-10-30T09:09:56.000Z</time>
      </trkpt>
      <trkpt lat="43.40637" lon="5.46043">
        <ele>581.20001220703</ele>
        <time>2018-10-30T09:10:10.000Z</time>
      </trkpt>
      <trkpt lat="43.40638" lon="5.46044">
        <ele>581.20001220703</ele>
        <time>2018-10-30T09:10:21.000Z</time>
      </trkpt>
      <trkpt lat="43.40636" lon="5.46046">
        <ele>581</ele>
        <time>2018-10-30T09:10:29.000Z</time>
      </trkpt>
      <trkpt lat="43.40635" lon="5.46046">
        <ele>581.20001220703</ele>
        <time>2018-10-30T09:10:37.000Z</time>
      </trkpt>
      <trkpt lat="43.40634" lon="5.46046">
        <ele>581.59997558594</ele>
        <time>2018-10-30T09:10:44.000Z</time>
      </trkpt>
      <trkpt lat="43.40634" lon="5.46047">
        <ele>581.40002441406</ele>
        <time>2018-10-30T09:10:46.000Z</time>
      </trkpt>
      <trkpt lat="43.40633" lon="5.46047">
        <ele>581.40002441406</ele>
        <time>2018-10-30T09:10:59.000Z</time>
      </trkpt>
      <trkpt lat="43.40633" lon="5.46047">
        <ele>581.40002441406</ele>
        <time>2018-10-30T09:11:04.000Z</time>
      </trkpt>
      <trkpt lat="43.40633" lon="5.46047">
        <ele>581.59997558594</ele>
        <time>2018-10-30T09:11:14.000Z</time>
      </trkpt>
      <trkpt lat="43.40633" lon="5.46047">
        <ele>581.40002441406</ele>
        <time>2018-10-30T09:11:21.000Z</time>
      </trkpt>
      <trkpt lat="43.40634" lon="5.46047">
        <ele>581.40002441406</ele>
        <time>2018-10-30T09:11:29.000Z</time>
      </trkpt>
      <trkpt lat="43.40632" lon="5.46049">
        <ele>581.40002441406</ele>
        <time>2018-10-30T09:11:36.000Z</time>
      </trkpt>
      <trkpt lat="43.40629" lon="5.46049">
        <ele>582.79998779297</ele>
        <time>2018-10-30T09:11:43.000Z</time>
      </trkpt>
      <trkpt lat="43.40629" lon="5.46048">
        <ele>583</ele>
        <time>2018-10-30T09:11:44.000Z</time>
      </trkpt>
      <trkpt lat="43.40628" lon="5.46048">
        <ele>583.79998779297</ele>
        <time>2018-10-30T09:11:46.000Z</time>
      </trkpt>
      <trkpt lat="43.40627" lon="5.46045">
        <ele>585</ele>
        <time>2018-10-30T09:11:50.000Z</time>
      </trkpt>
      <trkpt lat="43.40625" lon="5.46043">
        <ele>586</ele>
        <time>2018-10-30T09:11:55.000Z</time>
      </trkpt>
      <trkpt lat="43.40622" lon="5.46042">
        <ele>586.59997558594</ele>
        <time>2018-10-30T09:11:58.000Z</time>
      </trkpt>
      <trkpt lat="43.40621" lon="5.46042">
        <ele>587</ele>
        <time>2018-10-30T09:12:00.000Z</time>
      </trkpt>
      <trkpt lat="43.4062" lon="5.46042">
        <ele>588</ele>
        <time>2018-10-30T09:12:07.000Z</time>
      </trkpt>
      <trkpt lat="43.4062" lon="5.46042">
        <ele>588.40002441406</ele>
        <time>2018-10-30T09:12:08.000Z</time>
      </trkpt>
      <trkpt lat="43.40619" lon="5.46043">
        <ele>589.40002441406</ele>
        <time>2018-10-30T09:12:12.000Z</time>
      </trkpt>
      <trkpt lat="43.40618" lon="5.46044">
        <ele>589.79998779297</ele>
        <time>2018-10-30T09:12:17.000Z</time>
      </trkpt>
      <trkpt lat="43.40615" lon="5.46046">
        <ele>590.40002441406</ele>
        <time>2018-10-30T09:12:21.000Z</time>
      </trkpt>
      <trkpt lat="43.40614" lon="5.46047">
        <ele>590.59997558594</ele>
        <time>2018-10-30T09:12:23.000Z</time>
      </trkpt>
      <trkpt lat="43.40612" lon="5.46046">
        <ele>591.40002441406</ele>
        <time>2018-10-30T09:12:30.000Z</time>
      </trkpt>
      <trkpt lat="43.40611" lon="5.46046">
        <ele>591.59997558594</ele>
        <time>2018-10-30T09:12:31.000Z</time>
      </trkpt>
      <trkpt lat="43.40609" lon="5.46046">
        <ele>592.59997558594</ele>
        <time>2018-10-30T09:12:36.000Z</time>
      </trkpt>
      <trkpt lat="43.40608" lon="5.46047">
        <ele>593</ele>
        <time>2018-10-30T09:12:39.000Z</time>
      </trkpt>
      <trkpt lat="43.40606" lon="5.46048">
        <ele>593.59997558594</ele>
        <time>2018-10-30T09:12:44.000Z</time>
      </trkpt>
      <trkpt lat="43.40604" lon="5.46048">
        <ele>594.20001220703</ele>
        <time>2018-10-30T09:12:47.000Z</time>
      </trkpt>
      <trkpt lat="43.40602" lon="5.46049">
        <ele>595</ele>
        <time>2018-10-30T09:12:51.000Z</time>
      </trkpt>
      <trkpt lat="43.40601" lon="5.46049">
        <ele>595.20001220703</ele>
        <time>2018-10-30T09:12:54.000Z</time>
      </trkpt>
      <trkpt lat="43.406" lon="5.4605">
        <ele>595.59997558594</ele>
        <time>2018-10-30T09:13:00.000Z</time>
      </trkpt>
      <trkpt lat="43.40601" lon="5.4605">
        <ele>595.59997558594</ele>
        <time>2018-10-30T09:13:05.000Z</time>
      </trkpt>
      <trkpt lat="43.406" lon="5.4605">
        <ele>595.59997558594</ele>
        <time>2018-10-30T09:13:17.000Z</time>
      </trkpt>
      <trkpt lat="43.406" lon="5.4605">
        <ele>595.59997558594</ele>
        <time>2018-10-30T09:13:30.000Z</time>
      </trkpt>
      <trkpt lat="43.406" lon="5.46051">
        <ele>595.79998779297</ele>
        <time>2018-10-30T09:13:44.000Z</time>
      </trkpt>
      <trkpt lat="43.406" lon="5.46051">
        <ele>596</ele>
        <time>2018-10-30T09:13:45.000Z</time>
      </trkpt>
      <trkpt lat="43.40601" lon="5.46052">
        <ele>595.40002441406</ele>
        <time>2018-10-30T09:13:55.000Z</time>
      </trkpt>
      <trkpt lat="43.40601" lon="5.46054">
        <ele>595.20001220703</ele>
        <time>2018-10-30T09:13:56.000Z</time>
      </trkpt>
      <trkpt lat="43.40598" lon="5.46059">
        <ele>596.20001220703</ele>
        <time>2018-10-30T09:14:03.000Z</time>
      </trkpt>
      <trkpt lat="43.40596" lon="5.46062">
        <ele>596.79998779297</ele>
        <time>2018-10-30T09:14:11.000Z</time>
      </trkpt>
      <trkpt lat="43.40595" lon="5.46063">
        <ele>597.20001220703</ele>
        <time>2018-10-30T09:14:13.000Z</time>
      </trkpt>
      <trkpt lat="43.40593" lon="5.46067">
        <ele>597.79998779297</ele>
        <time>2018-10-30T09:14:18.000Z</time>
      </trkpt>
      <trkpt lat="43.40592" lon="5.46071">
        <ele>598.20001220703</ele>
        <time>2018-10-30T09:14:21.000Z</time>
      </trkpt>
      <trkpt lat="43.4059" lon="5.46073">
        <ele>598.79998779297</ele>
        <time>2018-10-30T09:14:24.000Z</time>
      </trkpt>
      <trkpt lat="43.40589" lon="5.46076">
        <ele>599.20001220703</ele>
        <time>2018-10-30T09:14:27.000Z</time>
      </trkpt>
      <trkpt lat="43.40587" lon="5.46079">
        <ele>600.20001220703</ele>
        <time>2018-10-30T09:14:32.000Z</time>
      </trkpt>
      <trkpt lat="43.40587" lon="5.4608">
        <ele>600.40002441406</ele>
        <time>2018-10-30T09:14:33.000Z</time>
      </trkpt>
      <trkpt lat="43.40585" lon="5.46085">
        <ele>601.40002441406</ele>
        <time>2018-10-30T09:14:39.000Z</time>
      </trkpt>
      <trkpt lat="43.40584" lon="5.46086">
        <ele>602</ele>
        <time>2018-10-30T09:14:41.000Z</time>
      </trkpt>
      <trkpt lat="43.40584" lon="5.46087">
        <ele>602.59997558594</ele>
        <time>2018-10-30T09:14:43.000Z</time>
      </trkpt>
      <trkpt lat="43.40583" lon="5.46091">
        <ele>603</ele>
        <time>2018-10-30T09:14:48.000Z</time>
      </trkpt>
      <trkpt lat="43.40582" lon="5.46091">
        <ele>603.59997558594</ele>
        <time>2018-10-30T09:14:52.000Z</time>
      </trkpt>
      <trkpt lat="43.40582" lon="5.46092">
        <ele>603.59997558594</ele>
        <time>2018-10-30T09:14:55.000Z</time>
      </trkpt>
      <trkpt lat="43.40579" lon="5.46095">
        <ele>604.79998779297</ele>
        <time>2018-10-30T09:15:03.000Z</time>
      </trkpt>
      <trkpt lat="43.40578" lon="5.46097">
        <ele>605.59997558594</ele>
        <time>2018-10-30T09:15:09.000Z</time>
      </trkpt>
      <trkpt lat="43.40578" lon="5.46099">
        <ele>606.40002441406</ele>
        <time>2018-10-30T09:15:12.000Z</time>
      </trkpt>
      <trkpt lat="43.40577" lon="5.461">
        <ele>606.79998779297</ele>
        <time>2018-10-30T09:15:15.000Z</time>
      </trkpt>
      <trkpt lat="43.40576" lon="5.46103">
        <ele>607.79998779297</ele>
        <time>2018-10-30T09:15:21.000Z</time>
      </trkpt>
      <trkpt lat="43.40576" lon="5.46104">
        <ele>608</ele>
        <time>2018-10-30T09:15:22.000Z</time>
      </trkpt>
      <trkpt lat="43.40575" lon="5.46105">
        <ele>608.79998779297</ele>
        <time>2018-10-30T09:15:30.000Z</time>
      </trkpt>
      <trkpt lat="43.40575" lon="5.46108">
        <ele>609</ele>
        <time>2018-10-30T09:15:36.000Z</time>
      </trkpt>
      <trkpt lat="43.40575" lon="5.46108">
        <ele>609.40002441406</ele>
        <time>2018-10-30T09:15:38.000Z</time>
      </trkpt>
      <trkpt lat="43.40574" lon="5.46109">
        <ele>610.20001220703</ele>
        <time>2018-10-30T09:15:44.000Z</time>
      </trkpt>
      <trkpt lat="43.40573" lon="5.4611">
        <ele>610.79998779297</ele>
        <time>2018-10-30T09:15:46.000Z</time>
      </trkpt>
      <trkpt lat="43.40572" lon="5.46113">
        <ele>611.40002441406</ele>
        <time>2018-10-30T09:15:50.000Z</time>
      </trkpt>
      <trkpt lat="43.40571" lon="5.46115">
        <ele>612.20001220703</ele>
        <time>2018-10-30T09:15:53.000Z</time>
      </trkpt>
      <trkpt lat="43.40569" lon="5.46121">
        <ele>612.40002441406</ele>
        <time>2018-10-30T09:15:59.000Z</time>
      </trkpt>
      <trkpt lat="43.40569" lon="5.46121">
        <ele>612.40002441406</ele>
        <time>2018-10-30T09:16:00.000Z</time>
      </trkpt>
      <trkpt lat="43.40568" lon="5.46126">
        <ele>613.40002441406</ele>
        <time>2018-10-30T09:16:07.000Z</time>
      </trkpt>
      <trkpt lat="43.40568" lon="5.46127">
        <ele>613.59997558594</ele>
        <time>2018-10-30T09:16:09.000Z</time>
      </trkpt>
      <trkpt lat="43.40567" lon="5.46134">
        <ele>613.79998779297</ele>
        <time>2018-10-30T09:16:19.000Z</time>
      </trkpt>
      <trkpt lat="43.40566" lon="5.46136">
        <ele>614.40002441406</ele>
        <time>2018-10-30T09:16:22.000Z</time>
      </trkpt>
      <trkpt lat="43.40566" lon="5.46138">
        <ele>615.20001220703</ele>
        <time>2018-10-30T09:16:28.000Z</time>
      </trkpt>
      <trkpt lat="43.40565" lon="5.46138">
        <ele>615.40002441406</ele>
        <time>2018-10-30T09:16:29.000Z</time>
      </trkpt>
      <trkpt lat="43.40564" lon="5.46142">
        <ele>616.79998779297</ele>
        <time>2018-10-30T09:16:36.000Z</time>
      </trkpt>
      <trkpt lat="43.40562" lon="5.46147">
        <ele>617.79998779297</ele>
        <time>2018-10-30T09:16:45.000Z</time>
      </trkpt>
      <trkpt lat="43.4056" lon="5.46151">
        <ele>618.79998779297</ele>
        <time>2018-10-30T09:16:51.000Z</time>
      </trkpt>
      <trkpt lat="43.40559" lon="5.46151">
        <ele>619</ele>
        <time>2018-10-30T09:16:53.000Z</time>
      </trkpt>
      <trkpt lat="43.40559" lon="5.46153">
        <ele>620</ele>
        <time>2018-10-30T09:16:59.000Z</time>
      </trkpt>
      <trkpt lat="43.40559" lon="5.46153">
        <ele>619.79998779297</ele>
        <time>2018-10-30T09:17:01.000Z</time>
      </trkpt>
      <trkpt lat="43.40558" lon="5.46155">
        <ele>621</ele>
        <time>2018-10-30T09:17:05.000Z</time>
      </trkpt>
      <trkpt lat="43.40557" lon="5.4616">
        <ele>621.59997558594</ele>
        <time>2018-10-30T09:17:09.000Z</time>
      </trkpt>
      <trkpt lat="43.40557" lon="5.46162">
        <ele>621.79998779297</ele>
        <time>2018-10-30T09:17:11.000Z</time>
      </trkpt>
      <trkpt lat="43.40557" lon="5.46166">
        <ele>622.59997558594</ele>
        <time>2018-10-30T09:17:16.000Z</time>
      </trkpt>
      <trkpt lat="43.40557" lon="5.46167">
        <ele>622.59997558594</ele>
        <time>2018-10-30T09:17:26.000Z</time>
      </trkpt>
      <trkpt lat="43.40556" lon="5.46168">
        <ele>622.79998779297</ele>
        <time>2018-10-30T09:17:32.000Z</time>
      </trkpt>
      <trkpt lat="43.40557" lon="5.46171">
        <ele>623</ele>
        <time>2018-10-30T09:17:35.000Z</time>
      </trkpt>
      <trkpt lat="43.40556" lon="5.46173">
        <ele>623.79998779297</ele>
        <time>2018-10-30T09:17:42.000Z</time>
      </trkpt>
      <trkpt lat="43.40556" lon="5.46176">
        <ele>623.79998779297</ele>
        <time>2018-10-30T09:17:46.000Z</time>
      </trkpt>
      <trkpt lat="43.40556" lon="5.46179">
        <ele>624</ele>
        <time>2018-10-30T09:17:50.000Z</time>
      </trkpt>
      <trkpt lat="43.40555" lon="5.46184">
        <ele>624.79998779297</ele>
        <time>2018-10-30T09:17:55.000Z</time>
      </trkpt>
      <trkpt lat="43.40556" lon="5.46185">
        <ele>625</ele>
        <time>2018-10-30T09:17:56.000Z</time>
      </trkpt>
      <trkpt lat="43.40556" lon="5.46194">
        <ele>625.59997558594</ele>
        <time>2018-10-30T09:18:04.000Z</time>
      </trkpt>
      <trkpt lat="43.40556" lon="5.46197">
        <ele>626</ele>
        <time>2018-10-30T09:18:06.000Z</time>
      </trkpt>
      <trkpt lat="43.40555" lon="5.462">
        <ele>626.59997558594</ele>
        <time>2018-10-30T09:18:11.000Z</time>
      </trkpt>
      <trkpt lat="43.40555" lon="5.46205">
        <ele>627</ele>
        <time>2018-10-30T09:18:16.000Z</time>
      </trkpt>
      <trkpt lat="43.40555" lon="5.4621">
        <ele>627.40002441406</ele>
        <time>2018-10-30T09:18:20.000Z</time>
      </trkpt>
      <trkpt lat="43.40555" lon="5.46212">
        <ele>628</ele>
        <time>2018-10-30T09:18:24.000Z</time>
      </trkpt>
      <trkpt lat="43.40555" lon="5.46216">
        <ele>628.59997558594</ele>
        <time>2018-10-30T09:18:28.000Z</time>
      </trkpt>
      <trkpt lat="43.40555" lon="5.46218">
        <ele>628.79998779297</ele>
        <time>2018-10-30T09:18:30.000Z</time>
      </trkpt>
      <trkpt lat="43.40554" lon="5.46221">
        <ele>629</ele>
        <time>2018-10-30T09:18:33.000Z</time>
      </trkpt>
      <trkpt lat="43.40554" lon="5.46222">
        <ele>629.40002441406</ele>
        <time>2018-10-30T09:18:35.000Z</time>
      </trkpt>
      <trkpt lat="43.40553" lon="5.46224">
        <ele>630</ele>
        <time>2018-10-30T09:18:40.000Z</time>
      </trkpt>
      <trkpt lat="43.40553" lon="5.46227">
        <ele>630.40002441406</ele>
        <time>2018-10-30T09:18:43.000Z</time>
      </trkpt>
      <trkpt lat="43.40552" lon="5.46231">
        <ele>631</ele>
        <time>2018-10-30T09:18:48.000Z</time>
      </trkpt>
      <trkpt lat="43.40551" lon="5.46233">
        <ele>631.59997558594</ele>
        <time>2018-10-30T09:18:52.000Z</time>
      </trkpt>
      <trkpt lat="43.4055" lon="5.46235">
        <ele>632.20001220703</ele>
        <time>2018-10-30T09:18:56.000Z</time>
      </trkpt>
      <trkpt lat="43.40548" lon="5.46237">
        <ele>633</ele>
        <time>2018-10-30T09:19:00.000Z</time>
      </trkpt>
      <trkpt lat="43.40548" lon="5.46238">
        <ele>633.20001220703</ele>
        <time>2018-10-30T09:19:01.000Z</time>
      </trkpt>
      <trkpt lat="43.40548" lon="5.46239">
        <ele>634</ele>
        <time>2018-10-30T09:19:09.000Z</time>
      </trkpt>
      <trkpt lat="43.40548" lon="5.4624">
        <ele>634.20001220703</ele>
        <time>2018-10-30T09:19:19.000Z</time>
      </trkpt>
      <trkpt lat="43.40548" lon="5.4624">
        <ele>634.40002441406</ele>
        <time>2018-10-30T09:19:20.000Z</time>
      </trkpt>
      <trkpt lat="43.40545" lon="5.46242">
        <ele>635.20001220703</ele>
        <time>2018-10-30T09:19:27.000Z</time>
      </trkpt>
      <trkpt lat="43.40544" lon="5.46243">
        <ele>635.79998779297</ele>
        <time>2018-10-30T09:19:29.000Z</time>
      </trkpt>
      <trkpt lat="43.40544" lon="5.46243">
        <ele>636.20001220703</ele>
        <time>2018-10-30T09:19:30.000Z</time>
      </trkpt>
      <trkpt lat="43.40542" lon="5.46245">
        <ele>637.20001220703</ele>
        <time>2018-10-30T09:19:37.000Z</time>
      </trkpt>
      <trkpt lat="43.40541" lon="5.46246">
        <ele>637.40002441406</ele>
        <time>2018-10-30T09:19:38.000Z</time>
      </trkpt>
      <trkpt lat="43.40541" lon="5.46248">
        <ele>638.20001220703</ele>
        <time>2018-10-30T09:19:41.000Z</time>
      </trkpt>
      <trkpt lat="43.4054" lon="5.4625">
        <ele>639</ele>
        <time>2018-10-30T09:19:47.000Z</time>
      </trkpt>
      <trkpt lat="43.4054" lon="5.46252">
        <ele>639.40002441406</ele>
        <time>2018-10-30T09:19:50.000Z</time>
      </trkpt>
      <trkpt lat="43.40539" lon="5.46253">
        <ele>639.59997558594</ele>
        <time>2018-10-30T09:19:52.000Z</time>
      </trkpt>
      <trkpt lat="43.40538" lon="5.46256">
        <ele>640.20001220703</ele>
        <time>2018-10-30T09:19:56.000Z</time>
      </trkpt>
      <trkpt lat="43.40538" lon="5.46257">
        <ele>640.40002441406</ele>
        <time>2018-10-30T09:19:57.000Z</time>
      </trkpt>
      <trkpt lat="43.40537" lon="5.46257">
        <ele>641.20001220703</ele>
        <time>2018-10-30T09:20:06.000Z</time>
      </trkpt>
      <trkpt lat="43.40537" lon="5.46258">
        <ele>641.40002441406</ele>
        <time>2018-10-30T09:20:07.000Z</time>
      </trkpt>
      <trkpt lat="43.40534" lon="5.46261">
        <ele>642.59997558594</ele>
        <time>2018-10-30T09:20:11.000Z</time>
      </trkpt>
      <trkpt lat="43.40534" lon="5.46262">
        <ele>643</ele>
        <time>2018-10-30T09:20:12.000Z</time>
      </trkpt>
      <trkpt lat="43.40533" lon="5.46264">
        <ele>643.79998779297</ele>
        <time>2018-10-30T09:20:15.000Z</time>
      </trkpt>
      <trkpt lat="43.40532" lon="5.46266">
        <ele>644.40002441406</ele>
        <time>2018-10-30T09:20:19.000Z</time>
      </trkpt>
      <trkpt lat="43.40532" lon="5.46267">
        <ele>645</ele>
        <time>2018-10-30T09:20:21.000Z</time>
      </trkpt>
      <trkpt lat="43.40532" lon="5.46269">
        <ele>645.59997558594</ele>
        <time>2018-10-30T09:20:26.000Z</time>
      </trkpt>
      <trkpt lat="43.40532" lon="5.46274">
        <ele>646</ele>
        <time>2018-10-30T09:20:30.000Z</time>
      </trkpt>
      <trkpt lat="43.40529" lon="5.46275">
        <ele>646.40002441406</ele>
        <time>2018-10-30T09:20:34.000Z</time>
      </trkpt>
      <trkpt lat="43.40528" lon="5.46277">
        <ele>646.59997558594</ele>
        <time>2018-10-30T09:20:40.000Z</time>
      </trkpt>
      <trkpt lat="43.40528" lon="5.46277">
        <ele>646.59997558594</ele>
        <time>2018-10-30T09:20:51.000Z</time>
      </trkpt>
      <trkpt lat="43.40529" lon="5.46277">
        <ele>646.59997558594</ele>
        <time>2018-10-30T09:21:05.000Z</time>
      </trkpt>
      <trkpt lat="43.40529" lon="5.46277">
        <ele>646.59997558594</ele>
        <time>2018-10-30T09:21:17.000Z</time>
      </trkpt>
      <trkpt lat="43.40529" lon="5.46276">
        <ele>646.59997558594</ele>
        <time>2018-10-30T09:21:24.000Z</time>
      </trkpt>
      <trkpt lat="43.40529" lon="5.46275">
        <ele>646.59997558594</ele>
        <time>2018-10-30T09:21:26.000Z</time>
      </trkpt>
      <trkpt lat="43.40529" lon="5.46275">
        <ele>646.40002441406</ele>
        <time>2018-10-30T09:21:40.000Z</time>
      </trkpt>
      <trkpt lat="43.40529" lon="5.46276">
        <ele>646.79998779297</ele>
        <time>2018-10-30T09:21:55.000Z</time>
      </trkpt>
      <trkpt lat="43.40528" lon="5.46275">
        <ele>646.79998779297</ele>
        <time>2018-10-30T09:22:06.000Z</time>
      </trkpt>
      <trkpt lat="43.4053" lon="5.46275">
        <ele>647</ele>
        <time>2018-10-30T09:22:15.000Z</time>
      </trkpt>
      <trkpt lat="43.4053" lon="5.46275">
        <ele>647</ele>
        <time>2018-10-30T09:22:29.000Z</time>
      </trkpt>
      <trkpt lat="43.4053" lon="5.46275">
        <ele>646.79998779297</ele>
        <time>2018-10-30T09:22:49.000Z</time>
      </trkpt>
      <trkpt lat="43.4053" lon="5.46275">
        <ele>647.20001220703</ele>
        <time>2018-10-30T09:23:12.000Z</time>
      </trkpt>
      <trkpt lat="43.4053" lon="5.46275">
        <ele>647.20001220703</ele>
        <time>2018-10-30T09:23:21.000Z</time>
      </trkpt>
      <trkpt lat="43.4053" lon="5.46275">
        <ele>647</ele>
        <time>2018-10-30T09:23:34.000Z</time>
      </trkpt>
      <trkpt lat="43.4053" lon="5.46276">
        <ele>647.20001220703</ele>
        <time>2018-10-30T09:23:48.000Z</time>
      </trkpt>
      <trkpt lat="43.40529" lon="5.46274">
        <ele>647.20001220703</ele>
        <time>2018-10-30T09:23:57.000Z</time>
      </trkpt>
      <trkpt lat="43.4053" lon="5.46274">
        <ele>647.20001220703</ele>
        <time>2018-10-30T09:24:07.000Z</time>
      </trkpt>
      <trkpt lat="43.4053" lon="5.46274">
        <ele>647</ele>
        <time>2018-10-30T09:24:27.000Z</time>
      </trkpt>
      <trkpt lat="43.4053" lon="5.46274">
        <ele>646.79998779297</ele>
        <time>2018-10-30T09:24:47.000Z</time>
      </trkpt>
      <trkpt lat="43.4053" lon="5.46274">
        <ele>646.79998779297</ele>
        <time>2018-10-30T09:25:00.000Z</time>
      </trkpt>
      <trkpt lat="43.4053" lon="5.46275">
        <ele>646.79998779297</ele>
        <time>2018-10-30T09:25:27.000Z</time>
      </trkpt>
      <trkpt lat="43.4053" lon="5.46275">
        <ele>646.79998779297</ele>
        <time>2018-10-30T09:25:44.000Z</time>
      </trkpt>
      <trkpt lat="43.4053" lon="5.46274">
        <ele>647</ele>
        <time>2018-10-30T09:25:55.000Z</time>
      </trkpt>
      <trkpt lat="43.40529" lon="5.46275">
        <ele>646.79998779297</ele>
        <time>2018-10-30T09:26:05.000Z</time>
      </trkpt>
      <trkpt lat="43.4053" lon="5.46274">
        <ele>647</ele>
        <time>2018-10-30T09:26:15.000Z</time>
      </trkpt>
      <trkpt lat="43.4053" lon="5.46274">
        <ele>646.79998779297</ele>
        <time>2018-10-30T09:26:32.000Z</time>
      </trkpt>
      <trkpt lat="43.4053" lon="5.46274">
        <ele>647</ele>
        <time>2018-10-30T09:26:56.000Z</time>
      </trkpt>
      <trkpt lat="43.4053" lon="5.46274">
        <ele>646.79998779297</ele>
        <time>2018-10-30T09:27:18.000Z</time>
      </trkpt>
      <trkpt lat="43.4053" lon="5.46274">
        <ele>647</ele>
        <time>2018-10-30T09:27:28.000Z</time>
      </trkpt>
      <trkpt lat="43.4053" lon="5.46274">
        <ele>646.59997558594</ele>
        <time>2018-10-30T09:27:58.000Z</time>
      </trkpt>
      <trkpt lat="43.4053" lon="5.46274">
        <ele>646.79998779297</ele>
        <time>2018-10-30T09:28:14.000Z</time>
      </trkpt>
      <trkpt lat="43.4053" lon="5.46274">
        <ele>646.59997558594</ele>
        <time>2018-10-30T09:28:21.000Z</time>
      </trkpt>
      <trkpt lat="43.4053" lon="5.46274">
        <ele>646.79998779297</ele>
        <time>2018-10-30T09:28:31.000Z</time>
      </trkpt>
      <trkpt lat="43.40531" lon="5.46274">
        <ele>646.79998779297</ele>
        <time>2018-10-30T09:28:36.000Z</time>
      </trkpt>
      <trkpt lat="43.40531" lon="5.46275">
        <ele>646.79998779297</ele>
        <time>2018-10-30T09:29:08.000Z</time>
      </trkpt>
      <trkpt lat="43.40531" lon="5.46275">
        <ele>647</ele>
        <time>2018-10-30T09:29:23.000Z</time>
      </trkpt>
      <trkpt lat="43.4053" lon="5.46278">
        <ele>646.79998779297</ele>
        <time>2018-10-30T09:29:33.000Z</time>
      </trkpt>
      <trkpt lat="43.4053" lon="5.46277">
        <ele>647.20001220703</ele>
        <time>2018-10-30T09:29:41.000Z</time>
      </trkpt>
      <trkpt lat="43.40529" lon="5.46281">
        <ele>646.79998779297</ele>
        <time>2018-10-30T09:29:49.000Z</time>
      </trkpt>
      <trkpt lat="43.40527" lon="5.46285">
        <ele>646.40002441406</ele>
        <time>2018-10-30T09:29:56.000Z</time>
      </trkpt>
      <trkpt lat="43.40528" lon="5.46291">
        <ele>647</ele>
        <time>2018-10-30T09:30:05.000Z</time>
      </trkpt>
      <trkpt lat="43.40525" lon="5.46297">
        <ele>645.79998779297</ele>
        <time>2018-10-30T09:30:12.000Z</time>
      </trkpt>
      <trkpt lat="43.40526" lon="5.46303">
        <ele>645.59997558594</ele>
        <time>2018-10-30T09:30:20.000Z</time>
      </trkpt>
      <trkpt lat="43.40527" lon="5.46308">
        <ele>646.40002441406</ele>
        <time>2018-10-30T09:30:28.000Z</time>
      </trkpt>
      <trkpt lat="43.40528" lon="5.46311">
        <ele>646.20001220703</ele>
        <time>2018-10-30T09:30:37.000Z</time>
      </trkpt>
      <trkpt lat="43.40527" lon="5.46316">
        <ele>647</ele>
        <time>2018-10-30T09:30:44.000Z</time>
      </trkpt>
      <trkpt lat="43.40527" lon="5.46318">
        <ele>647.40002441406</ele>
        <time>2018-10-30T09:30:47.000Z</time>
      </trkpt>
      <trkpt lat="43.40526" lon="5.46321">
        <ele>647.79998779297</ele>
        <time>2018-10-30T09:30:52.000Z</time>
      </trkpt>
      <trkpt lat="43.40526" lon="5.46325">
        <ele>647.40002441406</ele>
        <time>2018-10-30T09:30:58.000Z</time>
      </trkpt>
      <trkpt lat="43.40526" lon="5.46327">
        <ele>646.40002441406</ele>
        <time>2018-10-30T09:31:06.000Z</time>
      </trkpt>
      <trkpt lat="43.40525" lon="5.46329">
        <ele>646.20001220703</ele>
        <time>2018-10-30T09:31:09.000Z</time>
      </trkpt>
      <trkpt lat="43.40525" lon="5.46331">
        <ele>645.40002441406</ele>
        <time>2018-10-30T09:31:13.000Z</time>
      </trkpt>
      <trkpt lat="43.40525" lon="5.46331">
        <ele>645</ele>
        <time>2018-10-30T09:31:14.000Z</time>
      </trkpt>
      <trkpt lat="43.40526" lon="5.46331">
        <ele>644.79998779297</ele>
        <time>2018-10-30T09:31:20.000Z</time>
      </trkpt>
      <trkpt lat="43.40526" lon="5.46334">
        <ele>644</ele>
        <time>2018-10-30T09:31:24.000Z</time>
      </trkpt>
      <trkpt lat="43.40526" lon="5.46338">
        <ele>643.40002441406</ele>
        <time>2018-10-30T09:31:28.000Z</time>
      </trkpt>
      <trkpt lat="43.40526" lon="5.4634">
        <ele>642.79998779297</ele>
        <time>2018-10-30T09:31:30.000Z</time>
      </trkpt>
      <trkpt lat="43.40528" lon="5.46345">
        <ele>642.20001220703</ele>
        <time>2018-10-30T09:31:36.000Z</time>
      </trkpt>
      <trkpt lat="43.40528" lon="5.46347">
        <ele>641.59997558594</ele>
        <time>2018-10-30T09:31:38.000Z</time>
      </trkpt>
      <trkpt lat="43.4053" lon="5.46353">
        <ele>640.59997558594</ele>
        <time>2018-10-30T09:31:42.000Z</time>
      </trkpt>
      <trkpt lat="43.4053" lon="5.46354">
        <ele>640.40002441406</ele>
        <time>2018-10-30T09:31:43.000Z</time>
      </trkpt>
      <trkpt lat="43.40533" lon="5.4636">
        <ele>639.59997558594</ele>
        <time>2018-10-30T09:31:50.000Z</time>
      </trkpt>
      <trkpt lat="43.40533" lon="5.46362">
        <ele>639.20001220703</ele>
        <time>2018-10-30T09:31:52.000Z</time>
      </trkpt>
      <trkpt lat="43.40535" lon="5.46368">
        <ele>638.59997558594</ele>
        <time>2018-10-30T09:32:00.000Z</time>
      </trkpt>
      <trkpt lat="43.40535" lon="5.46368">
        <ele>638.40002441406</ele>
        <time>2018-10-30T09:32:01.000Z</time>
      </trkpt>
      <trkpt lat="43.40535" lon="5.46368">
        <ele>638.20001220703</ele>
        <time>2018-10-30T09:32:12.000Z</time>
      </trkpt>
      <trkpt lat="43.40535" lon="5.4637">
        <ele>638.40002441406</ele>
        <time>2018-10-30T09:32:17.000Z</time>
      </trkpt>
      <trkpt lat="43.40535" lon="5.46373">
        <ele>638.20001220703</ele>
        <time>2018-10-30T09:32:19.000Z</time>
      </trkpt>
      <trkpt lat="43.40533" lon="5.46382">
        <ele>637.40002441406</ele>
        <time>2018-10-30T09:32:23.000Z</time>
      </trkpt>
      <trkpt lat="43.40533" lon="5.46383">
        <ele>637</ele>
        <time>2018-10-30T09:32:24.000Z</time>
      </trkpt>
      <trkpt lat="43.40533" lon="5.46384">
        <ele>636.59997558594</ele>
        <time>2018-10-30T09:32:25.000Z</time>
      </trkpt>
      <trkpt lat="43.40532" lon="5.46389">
        <ele>636.40002441406</ele>
        <time>2018-10-30T09:32:31.000Z</time>
      </trkpt>
      <trkpt lat="43.40531" lon="5.46392">
        <ele>636</ele>
        <time>2018-10-30T09:32:35.000Z</time>
      </trkpt>
      <trkpt lat="43.40531" lon="5.46396">
        <ele>635.59997558594</ele>
        <time>2018-10-30T09:32:38.000Z</time>
      </trkpt>
      <trkpt lat="43.40532" lon="5.46402">
        <ele>635.79998779297</ele>
        <time>2018-10-30T09:32:45.000Z</time>
      </trkpt>
      <trkpt lat="43.40532" lon="5.46407">
        <ele>636.59997558594</ele>
        <time>2018-10-30T09:32:52.000Z</time>
      </trkpt>
      <trkpt lat="43.40527" lon="5.46414">
        <ele>636.59997558594</ele>
        <time>2018-10-30T09:32:59.000Z</time>
      </trkpt>
      <trkpt lat="43.40525" lon="5.4642">
        <ele>637</ele>
        <time>2018-10-30T09:33:07.000Z</time>
      </trkpt>
      <trkpt lat="43.40525" lon="5.46421">
        <ele>637.20001220703</ele>
        <time>2018-10-30T09:33:08.000Z</time>
      </trkpt>
      <trkpt lat="43.40524" lon="5.46424">
        <ele>638.20001220703</ele>
        <time>2018-10-30T09:33:14.000Z</time>
      </trkpt>
      <trkpt lat="43.40524" lon="5.46426">
        <ele>638.59997558594</ele>
        <time>2018-10-30T09:33:16.000Z</time>
      </trkpt>
      <trkpt lat="43.40524" lon="5.4643">
        <ele>639</ele>
        <time>2018-10-30T09:33:22.000Z</time>
      </trkpt>
      <trkpt lat="43.40525" lon="5.46431">
        <ele>639.20001220703</ele>
        <time>2018-10-30T09:33:23.000Z</time>
      </trkpt>
      <trkpt lat="43.40525" lon="5.46433">
        <ele>639.20001220703</ele>
        <time>2018-10-30T09:33:29.000Z</time>
      </trkpt>
      <trkpt lat="43.40525" lon="5.46434">
        <ele>639</ele>
        <time>2018-10-30T09:33:40.000Z</time>
      </trkpt>
      <trkpt lat="43.40525" lon="5.46434">
        <ele>639.20001220703</ele>
        <time>2018-10-30T09:33:47.000Z</time>
      </trkpt>
      <trkpt lat="43.40526" lon="5.46435">
        <ele>638.79998779297</ele>
        <time>2018-10-30T09:33:54.000Z</time>
      </trkpt>
      <trkpt lat="43.40526" lon="5.46438">
        <ele>637.79998779297</ele>
        <time>2018-10-30T09:33:58.000Z</time>
      </trkpt>
      <trkpt lat="43.40525" lon="5.4644">
        <ele>637.40002441406</ele>
        <time>2018-10-30T09:34:00.000Z</time>
      </trkpt>
      <trkpt lat="43.40524" lon="5.46442">
        <ele>637.20001220703</ele>
        <time>2018-10-30T09:34:01.000Z</time>
      </trkpt>
      <trkpt lat="43.40523" lon="5.46444">
        <ele>636.59997558594</ele>
        <time>2018-10-30T09:34:04.000Z</time>
      </trkpt>
      <trkpt lat="43.40523" lon="5.46445">
        <ele>636.59997558594</ele>
        <time>2018-10-30T09:34:05.000Z</time>
      </trkpt>
      <trkpt lat="43.4052" lon="5.46453">
        <ele>637.20001220703</ele>
        <time>2018-10-30T09:34:14.000Z</time>
      </trkpt>
      <trkpt lat="43.40519" lon="5.46456">
        <ele>637.79998779297</ele>
        <time>2018-10-30T09:34:17.000Z</time>
      </trkpt>
      <trkpt lat="43.40519" lon="5.46461">
        <ele>638.79998779297</ele>
        <time>2018-10-30T09:34:22.000Z</time>
      </trkpt>
      <trkpt lat="43.40519" lon="5.46464">
        <ele>640</ele>
        <time>2018-10-30T09:34:28.000Z</time>
      </trkpt>
      <trkpt lat="43.4052" lon="5.46466">
        <ele>640.20001220703</ele>
        <time>2018-10-30T09:34:30.000Z</time>
      </trkpt>
      <trkpt lat="43.40519" lon="5.4647">
        <ele>641</ele>
        <time>2018-10-30T09:34:35.000Z</time>
      </trkpt>
      <trkpt lat="43.4052" lon="5.46471">
        <ele>641.40002441406</ele>
        <time>2018-10-30T09:34:37.000Z</time>
      </trkpt>
      <trkpt lat="43.40519" lon="5.46474">
        <ele>641.59997558594</ele>
        <time>2018-10-30T09:34:39.000Z</time>
      </trkpt>
      <trkpt lat="43.40519" lon="5.46477">
        <ele>641.79998779297</ele>
        <time>2018-10-30T09:34:43.000Z</time>
      </trkpt>
      <trkpt lat="43.4052" lon="5.46479">
        <ele>641.79998779297</ele>
        <time>2018-10-30T09:34:45.000Z</time>
      </trkpt>
      <trkpt lat="43.40523" lon="5.4648">
        <ele>642.40002441406</ele>
        <time>2018-10-30T09:34:51.000Z</time>
      </trkpt>
      <trkpt lat="43.40523" lon="5.4648">
        <ele>643</ele>
        <time>2018-10-30T09:34:53.000Z</time>
      </trkpt>
      <trkpt lat="43.40523" lon="5.46482">
        <ele>643.79998779297</ele>
        <time>2018-10-30T09:35:00.000Z</time>
      </trkpt>
      <trkpt lat="43.40524" lon="5.46484">
        <ele>643.20001220703</ele>
        <time>2018-10-30T09:35:06.000Z</time>
      </trkpt>
      <trkpt lat="43.40525" lon="5.46491">
        <ele>643.20001220703</ele>
        <time>2018-10-30T09:35:12.000Z</time>
      </trkpt>
      <trkpt lat="43.40525" lon="5.46496">
        <ele>643</ele>
        <time>2018-10-30T09:35:18.000Z</time>
      </trkpt>
      <trkpt lat="43.40524" lon="5.465">
        <ele>643</ele>
        <time>2018-10-30T09:35:24.000Z</time>
      </trkpt>
      <trkpt lat="43.40525" lon="5.46503">
        <ele>642.59997558594</ele>
        <time>2018-10-30T09:35:27.000Z</time>
      </trkpt>
      <trkpt lat="43.40525" lon="5.46504">
        <ele>642</ele>
        <time>2018-10-30T09:35:30.000Z</time>
      </trkpt>
      <trkpt lat="43.40526" lon="5.46506">
        <ele>641.79998779297</ele>
        <time>2018-10-30T09:35:33.000Z</time>
      </trkpt>
      <trkpt lat="43.40526" lon="5.46508">
        <ele>641.59997558594</ele>
        <time>2018-10-30T09:35:36.000Z</time>
      </trkpt>
      <trkpt lat="43.40526" lon="5.46511">
        <ele>641.20001220703</ele>
        <time>2018-10-30T09:35:42.000Z</time>
      </trkpt>
      <trkpt lat="43.40527" lon="5.46512">
        <ele>640.79998779297</ele>
        <time>2018-10-30T09:35:44.000Z</time>
      </trkpt>
      <trkpt lat="43.40527" lon="5.46513">
        <ele>640.79998779297</ele>
        <time>2018-10-30T09:35:45.000Z</time>
      </trkpt>
      <trkpt lat="43.40527" lon="5.46515">
        <ele>640.40002441406</ele>
        <time>2018-10-30T09:35:47.000Z</time>
      </trkpt>
      <trkpt lat="43.40528" lon="5.46517">
        <ele>639.59997558594</ele>
        <time>2018-10-30T09:35:51.000Z</time>
      </trkpt>
      <trkpt lat="43.4053" lon="5.4652">
        <ele>639.20001220703</ele>
        <time>2018-10-30T09:35:55.000Z</time>
      </trkpt>
      <trkpt lat="43.4053" lon="5.46521">
        <ele>639.20001220703</ele>
        <time>2018-10-30T09:35:56.000Z</time>
      </trkpt>
      <trkpt lat="43.4053" lon="5.46524">
        <ele>639</ele>
        <time>2018-10-30T09:36:00.000Z</time>
      </trkpt>
      <trkpt lat="43.4053" lon="5.46529">
        <ele>638.40002441406</ele>
        <time>2018-10-30T09:36:06.000Z</time>
      </trkpt>
      <trkpt lat="43.40532" lon="5.46533">
        <ele>638</ele>
        <time>2018-10-30T09:36:12.000Z</time>
      </trkpt>
      <trkpt lat="43.40534" lon="5.46534">
        <ele>638</ele>
        <time>2018-10-30T09:36:14.000Z</time>
      </trkpt>
      <trkpt lat="43.40535" lon="5.46535">
        <ele>638</ele>
        <time>2018-10-30T09:36:16.000Z</time>
      </trkpt>
      <trkpt lat="43.40536" lon="5.46539">
        <ele>637.40002441406</ele>
        <time>2018-10-30T09:36:19.000Z</time>
      </trkpt>
      <trkpt lat="43.40536" lon="5.4654">
        <ele>637.40002441406</ele>
        <time>2018-10-30T09:36:20.000Z</time>
      </trkpt>
      <trkpt lat="43.40536" lon="5.46542">
        <ele>637.20001220703</ele>
        <time>2018-10-30T09:36:22.000Z</time>
      </trkpt>
      <trkpt lat="43.40536" lon="5.46543">
        <ele>637.20001220703</ele>
        <time>2018-10-30T09:36:24.000Z</time>
      </trkpt>
      <trkpt lat="43.40538" lon="5.46549">
        <ele>638</ele>
        <time>2018-10-30T09:36:31.000Z</time>
      </trkpt>
      <trkpt lat="43.40538" lon="5.46553">
        <ele>637.40002441406</ele>
        <time>2018-10-30T09:36:36.000Z</time>
      </trkpt>
      <trkpt lat="43.4054" lon="5.46557">
        <ele>637.20001220703</ele>
        <time>2018-10-30T09:36:42.000Z</time>
      </trkpt>
      <trkpt lat="43.4054" lon="5.46559">
        <ele>637.20001220703</ele>
        <time>2018-10-30T09:36:44.000Z</time>
      </trkpt>
      <trkpt lat="43.40539" lon="5.46562">
        <ele>636.79998779297</ele>
        <time>2018-10-30T09:36:47.000Z</time>
      </trkpt>
      <trkpt lat="43.40538" lon="5.46566">
        <ele>636.20001220703</ele>
        <time>2018-10-30T09:36:51.000Z</time>
      </trkpt>
      <trkpt lat="43.40539" lon="5.46567">
        <ele>636</ele>
        <time>2018-10-30T09:36:52.000Z</time>
      </trkpt>
      <trkpt lat="43.40539" lon="5.46569">
        <ele>635.79998779297</ele>
        <time>2018-10-30T09:36:57.000Z</time>
      </trkpt>
      <trkpt lat="43.40539" lon="5.46571">
        <ele>635.79998779297</ele>
        <time>2018-10-30T09:37:07.000Z</time>
      </trkpt>
      <trkpt lat="43.40539" lon="5.46571">
        <ele>635.79998779297</ele>
        <time>2018-10-30T09:37:16.000Z</time>
      </trkpt>
      <trkpt lat="43.40538" lon="5.46571">
        <ele>635.59997558594</ele>
        <time>2018-10-30T09:37:26.000Z</time>
      </trkpt>
      <trkpt lat="43.40539" lon="5.46571">
        <ele>636</ele>
        <time>2018-10-30T09:37:33.000Z</time>
      </trkpt>
      <trkpt lat="43.40539" lon="5.46572">
        <ele>635.79998779297</ele>
        <time>2018-10-30T09:37:46.000Z</time>
      </trkpt>
      <trkpt lat="43.40539" lon="5.46572">
        <ele>635.79998779297</ele>
        <time>2018-10-30T09:37:54.000Z</time>
      </trkpt>
      <trkpt lat="43.4054" lon="5.46574">
        <ele>635.79998779297</ele>
        <time>2018-10-30T09:38:07.000Z</time>
      </trkpt>
      <trkpt lat="43.40541" lon="5.46575">
        <ele>635.59997558594</ele>
        <time>2018-10-30T09:38:20.000Z</time>
      </trkpt>
      <trkpt lat="43.40542" lon="5.46576">
        <ele>635.20001220703</ele>
        <time>2018-10-30T09:38:34.000Z</time>
      </trkpt>
      <trkpt lat="43.40543" lon="5.4658">
        <ele>635</ele>
        <time>2018-10-30T09:38:41.000Z</time>
      </trkpt>
      <trkpt lat="43.40546" lon="5.46585">
        <ele>634.20001220703</ele>
        <time>2018-10-30T09:38:50.000Z</time>
      </trkpt>
      <trkpt lat="43.40548" lon="5.46591">
        <ele>634</ele>
        <time>2018-10-30T09:38:53.000Z</time>
      </trkpt>
      <trkpt lat="43.40549" lon="5.46595">
        <ele>633.59997558594</ele>
        <time>2018-10-30T09:38:55.000Z</time>
      </trkpt>
      <trkpt lat="43.4055" lon="5.466">
        <ele>632.59997558594</ele>
        <time>2018-10-30T09:38:58.000Z</time>
      </trkpt>
      <trkpt lat="43.4055" lon="5.46602">
        <ele>632.20001220703</ele>
        <time>2018-10-30T09:38:59.000Z</time>
      </trkpt>
      <trkpt lat="43.4055" lon="5.46605">
        <ele>631.79998779297</ele>
        <time>2018-10-30T09:39:01.000Z</time>
      </trkpt>
      <trkpt lat="43.40551" lon="5.46608">
        <ele>631.59997558594</ele>
        <time>2018-10-30T09:39:03.000Z</time>
      </trkpt>
      <trkpt lat="43.40551" lon="5.46616">
        <ele>630.40002441406</ele>
        <time>2018-10-30T09:39:07.000Z</time>
      </trkpt>
      <trkpt lat="43.40551" lon="5.46623">
        <ele>629.20001220703</ele>
        <time>2018-10-30T09:39:11.000Z</time>
      </trkpt>
      <trkpt lat="43.40552" lon="5.4663">
        <ele>628</ele>
        <time>2018-10-30T09:39:14.000Z</time>
      </trkpt>
      <trkpt lat="43.40553" lon="5.46633">
        <ele>627.40002441406</ele>
        <time>2018-10-30T09:39:16.000Z</time>
      </trkpt>
      <trkpt lat="43.40553" lon="5.46635">
        <ele>627.20001220703</ele>
        <time>2018-10-30T09:39:17.000Z</time>
      </trkpt>
      <trkpt lat="43.40554" lon="5.46638">
        <ele>626.79998779297</ele>
        <time>2018-10-30T09:39:19.000Z</time>
      </trkpt>
      <trkpt lat="43.40553" lon="5.46643">
        <ele>625.59997558594</ele>
        <time>2018-10-30T09:39:23.000Z</time>
      </trkpt>
      <trkpt lat="43.40552" lon="5.46649">
        <ele>624.20001220703</ele>
        <time>2018-10-30T09:39:29.000Z</time>
      </trkpt>
      <trkpt lat="43.40552" lon="5.4665">
        <ele>624</ele>
        <time>2018-10-30T09:39:30.000Z</time>
      </trkpt>
      <trkpt lat="43.40552" lon="5.46654">
        <ele>623.20001220703</ele>
        <time>2018-10-30T09:39:34.000Z</time>
      </trkpt>
      <trkpt lat="43.40551" lon="5.46656">
        <ele>622.79998779297</ele>
        <time>2018-10-30T09:39:37.000Z</time>
      </trkpt>
      <trkpt lat="43.40551" lon="5.46659">
        <ele>622.59997558594</ele>
        <time>2018-10-30T09:39:39.000Z</time>
      </trkpt>
      <trkpt lat="43.4055" lon="5.46663">
        <ele>622.20001220703</ele>
        <time>2018-10-30T09:39:42.000Z</time>
      </trkpt>
      <trkpt lat="43.4055" lon="5.46665">
        <ele>621.79998779297</ele>
        <time>2018-10-30T09:39:43.000Z</time>
      </trkpt>
      <trkpt lat="43.40548" lon="5.46672">
        <ele>620.79998779297</ele>
        <time>2018-10-30T09:39:48.000Z</time>
      </trkpt>
      <trkpt lat="43.40548" lon="5.46673">
        <ele>620.59997558594</ele>
        <time>2018-10-30T09:39:49.000Z</time>
      </trkpt>
      <trkpt lat="43.40548" lon="5.46681">
        <ele>619.79998779297</ele>
        <time>2018-10-30T09:39:54.000Z</time>
      </trkpt>
      <trkpt lat="43.40547" lon="5.46682">
        <ele>619.59997558594</ele>
        <time>2018-10-30T09:39:55.000Z</time>
      </trkpt>
      <trkpt lat="43.40547" lon="5.46684">
        <ele>619</ele>
        <time>2018-10-30T09:40:03.000Z</time>
      </trkpt>
      <trkpt lat="43.40547" lon="5.46687">
        <ele>619.20001220703</ele>
        <time>2018-10-30T09:40:19.000Z</time>
      </trkpt>
      <trkpt lat="43.40548" lon="5.46688">
        <ele>618.40002441406</ele>
        <time>2018-10-30T09:40:21.000Z</time>
      </trkpt>
      <trkpt lat="43.40549" lon="5.46692">
        <ele>617.59997558594</ele>
        <time>2018-10-30T09:40:27.000Z</time>
      </trkpt>
      <trkpt lat="43.4055" lon="5.46693">
        <ele>617.40002441406</ele>
        <time>2018-10-30T09:40:28.000Z</time>
      </trkpt>
      <trkpt lat="43.4055" lon="5.46698">
        <ele>616.59997558594</ele>
        <time>2018-10-30T09:40:37.000Z</time>
      </trkpt>
      <trkpt lat="43.40552" lon="5.46704">
        <ele>616.40002441406</ele>
        <time>2018-10-30T09:40:41.000Z</time>
      </trkpt>
      <trkpt lat="43.40554" lon="5.46708">
        <ele>615.79998779297</ele>
        <time>2018-10-30T09:40:44.000Z</time>
      </trkpt>
      <trkpt lat="43.40556" lon="5.46708">
        <ele>615.20001220703</ele>
        <time>2018-10-30T09:40:48.000Z</time>
      </trkpt>
      <trkpt lat="43.40556" lon="5.46706">
        <ele>615</ele>
        <time>2018-10-30T09:40:50.000Z</time>
      </trkpt>
      <trkpt lat="43.40554" lon="5.46699">
        <ele>614.40002441406</ele>
        <time>2018-10-30T09:40:58.000Z</time>
      </trkpt>
      <trkpt lat="43.40554" lon="5.46697">
        <ele>614</ele>
        <time>2018-10-30T09:41:00.000Z</time>
      </trkpt>
      <trkpt lat="43.40555" lon="5.46691">
        <ele>613.40002441406</ele>
        <time>2018-10-30T09:41:07.000Z</time>
      </trkpt>
      <trkpt lat="43.40555" lon="5.46687">
        <ele>613</ele>
        <time>2018-10-30T09:41:11.000Z</time>
      </trkpt>
      <trkpt lat="43.40555" lon="5.46684">
        <ele>612.59997558594</ele>
        <time>2018-10-30T09:41:16.000Z</time>
      </trkpt>
      <trkpt lat="43.40557" lon="5.46681">
        <ele>612</ele>
        <time>2018-10-30T09:41:24.000Z</time>
      </trkpt>
      <trkpt lat="43.40558" lon="5.46679">
        <ele>611.79998779297</ele>
        <time>2018-10-30T09:41:26.000Z</time>
      </trkpt>
      <trkpt lat="43.40562" lon="5.46672">
        <ele>611</ele>
        <time>2018-10-30T09:41:32.000Z</time>
      </trkpt>
      <trkpt lat="43.40563" lon="5.46671">
        <ele>610.79998779297</ele>
        <time>2018-10-30T09:41:33.000Z</time>
      </trkpt>
      <trkpt lat="43.40566" lon="5.46664">
        <ele>609.79998779297</ele>
        <time>2018-10-30T09:41:41.000Z</time>
      </trkpt>
      <trkpt lat="43.40568" lon="5.46659">
        <ele>609.59997558594</ele>
        <time>2018-10-30T09:41:45.000Z</time>
      </trkpt>
      <trkpt lat="43.4057" lon="5.46656">
        <ele>609</ele>
        <time>2018-10-30T09:41:48.000Z</time>
      </trkpt>
      <trkpt lat="43.40571" lon="5.46655">
        <ele>609</ele>
        <time>2018-10-30T09:41:49.000Z</time>
      </trkpt>
      <trkpt lat="43.40575" lon="5.46651">
        <ele>608.40002441406</ele>
        <time>2018-10-30T09:41:54.000Z</time>
      </trkpt>
      <trkpt lat="43.4058" lon="5.46639">
        <ele>607.79998779297</ele>
        <time>2018-10-30T09:42:04.000Z</time>
      </trkpt>
      <trkpt lat="43.40585" lon="5.46631">
        <ele>607.20001220703</ele>
        <time>2018-10-30T09:42:12.000Z</time>
      </trkpt>
      <trkpt lat="43.40586" lon="5.4663">
        <ele>607.20001220703</ele>
        <time>2018-10-30T09:42:13.000Z</time>
      </trkpt>
      <trkpt lat="43.40591" lon="5.46623">
        <ele>606.59997558594</ele>
        <time>2018-10-30T09:42:19.000Z</time>
      </trkpt>
      <trkpt lat="43.40595" lon="5.46614">
        <ele>606.40002441406</ele>
        <time>2018-10-30T09:42:27.000Z</time>
      </trkpt>
      <trkpt lat="43.40597" lon="5.46606">
        <ele>606.20001220703</ele>
        <time>2018-10-30T09:42:36.000Z</time>
      </trkpt>
      <trkpt lat="43.40596" lon="5.46604">
        <ele>606</ele>
        <time>2018-10-30T09:42:38.000Z</time>
      </trkpt>
      <trkpt lat="43.40594" lon="5.46594">
        <ele>605.59997558594</ele>
        <time>2018-10-30T09:42:48.000Z</time>
      </trkpt>
      <trkpt lat="43.40592" lon="5.46582">
        <ele>605.59997558594</ele>
        <time>2018-10-30T09:42:57.000Z</time>
      </trkpt>
      <trkpt lat="43.40591" lon="5.46575">
        <ele>605</ele>
        <time>2018-10-30T09:43:03.000Z</time>
      </trkpt>
      <trkpt lat="43.40591" lon="5.46574">
        <ele>604.79998779297</ele>
        <time>2018-10-30T09:43:04.000Z</time>
      </trkpt>
      <trkpt lat="43.40591" lon="5.46571">
        <ele>604.79998779297</ele>
        <time>2018-10-30T09:43:06.000Z</time>
      </trkpt>
      <trkpt lat="43.4059" lon="5.46561">
        <ele>604</ele>
        <time>2018-10-30T09:43:14.000Z</time>
      </trkpt>
      <trkpt lat="43.4059" lon="5.46553">
        <ele>603.79998779297</ele>
        <time>2018-10-30T09:43:21.000Z</time>
      </trkpt>
      <trkpt lat="43.4059" lon="5.46551">
        <ele>603.79998779297</ele>
        <time>2018-10-30T09:43:22.000Z</time>
      </trkpt>
      <trkpt lat="43.4059" lon="5.46548">
        <ele>603.59997558594</ele>
        <time>2018-10-30T09:43:24.000Z</time>
      </trkpt>
      <trkpt lat="43.4059" lon="5.46543">
        <ele>603.20001220703</ele>
        <time>2018-10-30T09:43:28.000Z</time>
      </trkpt>
      <trkpt lat="43.40588" lon="5.46534">
        <ele>602.79998779297</ele>
        <time>2018-10-30T09:43:35.000Z</time>
      </trkpt>
      <trkpt lat="43.40589" lon="5.46533">
        <ele>602.79998779297</ele>
        <time>2018-10-30T09:43:36.000Z</time>
      </trkpt>
      <trkpt lat="43.40587" lon="5.46528">
        <ele>602.79998779297</ele>
        <time>2018-10-30T09:43:40.000Z</time>
      </trkpt>
      <trkpt lat="43.40586" lon="5.46524">
        <ele>602.59997558594</ele>
        <time>2018-10-30T09:43:43.000Z</time>
      </trkpt>
      <trkpt lat="43.40584" lon="5.46514">
        <ele>602</ele>
        <time>2018-10-30T09:43:51.000Z</time>
      </trkpt>
      <trkpt lat="43.40585" lon="5.46509">
        <ele>602</ele>
        <time>2018-10-30T09:43:54.000Z</time>
      </trkpt>
      <trkpt lat="43.40584" lon="5.46506">
        <ele>601.79998779297</ele>
        <time>2018-10-30T09:43:57.000Z</time>
      </trkpt>
      <trkpt lat="43.40584" lon="5.46504">
        <ele>601.40002441406</ele>
        <time>2018-10-30T09:44:02.000Z</time>
      </trkpt>
      <trkpt lat="43.40583" lon="5.46504">
        <ele>601.20001220703</ele>
        <time>2018-10-30T09:44:03.000Z</time>
      </trkpt>
      <trkpt lat="43.40584" lon="5.46504">
        <ele>601</ele>
        <time>2018-10-30T09:44:05.000Z</time>
      </trkpt>
      <trkpt lat="43.40587" lon="5.46496">
        <ele>600.40002441406</ele>
        <time>2018-10-30T09:44:11.000Z</time>
      </trkpt>
      <trkpt lat="43.40587" lon="5.46495">
        <ele>600.20001220703</ele>
        <time>2018-10-30T09:44:12.000Z</time>
      </trkpt>
      <trkpt lat="43.4059" lon="5.46488">
        <ele>599.20001220703</ele>
        <time>2018-10-30T09:44:18.000Z</time>
      </trkpt>
      <trkpt lat="43.40593" lon="5.46481">
        <ele>598.20001220703</ele>
        <time>2018-10-30T09:44:27.000Z</time>
      </trkpt>
      <trkpt lat="43.40593" lon="5.4648">
        <ele>598</ele>
        <time>2018-10-30T09:44:28.000Z</time>
      </trkpt>
      <trkpt lat="43.40597" lon="5.46471">
        <ele>597</ele>
        <time>2018-10-30T09:44:38.000Z</time>
      </trkpt>
      <trkpt lat="43.40598" lon="5.4647">
        <ele>596.79998779297</ele>
        <time>2018-10-30T09:44:39.000Z</time>
      </trkpt>
      <trkpt lat="43.40601" lon="5.46461">
        <ele>595.79998779297</ele>
        <time>2018-10-30T09:44:46.000Z</time>
      </trkpt>
      <trkpt lat="43.40601" lon="5.46459">
        <ele>595.79998779297</ele>
        <time>2018-10-30T09:44:48.000Z</time>
      </trkpt>
      <trkpt lat="43.40606" lon="5.46449">
        <ele>595.20001220703</ele>
        <time>2018-10-30T09:44:56.000Z</time>
      </trkpt>
      <trkpt lat="43.40608" lon="5.46444">
        <ele>594.59997558594</ele>
        <time>2018-10-30T09:45:00.000Z</time>
      </trkpt>
      <trkpt lat="43.40609" lon="5.4644">
        <ele>594.20001220703</ele>
        <time>2018-10-30T09:45:03.000Z</time>
      </trkpt>
      <trkpt lat="43.40612" lon="5.46433">
        <ele>593.40002441406</ele>
        <time>2018-10-30T09:45:09.000Z</time>
      </trkpt>
      <trkpt lat="43.40614" lon="5.46429">
        <ele>593.20001220703</ele>
        <time>2018-10-30T09:45:12.000Z</time>
      </trkpt>
      <trkpt lat="43.40617" lon="5.46421">
        <ele>592.79998779297</ele>
        <time>2018-10-30T09:45:19.000Z</time>
      </trkpt>
      <trkpt lat="43.40617" lon="5.46417">
        <ele>592.40002441406</ele>
        <time>2018-10-30T09:45:22.000Z</time>
      </trkpt>
      <trkpt lat="43.40618" lon="5.46412">
        <ele>592</ele>
        <time>2018-10-30T09:45:25.000Z</time>
      </trkpt>
      <trkpt lat="43.40618" lon="5.46401">
        <ele>591.20001220703</ele>
        <time>2018-10-30T09:45:32.000Z</time>
      </trkpt>
      <trkpt lat="43.40618" lon="5.464">
        <ele>591</ele>
        <time>2018-10-30T09:45:33.000Z</time>
      </trkpt>
      <trkpt lat="43.40618" lon="5.46391">
        <ele>590.59997558594</ele>
        <time>2018-10-30T09:45:42.000Z</time>
      </trkpt>
      <trkpt lat="43.40618" lon="5.46391">
        <ele>590.20001220703</ele>
        <time>2018-10-30T09:45:53.000Z</time>
      </trkpt>
      <trkpt lat="43.40618" lon="5.46391">
        <ele>590.20001220703</ele>
        <time>2018-10-30T09:45:54.000Z</time>
      </trkpt>
      <trkpt lat="43.40618" lon="5.46385">
        <ele>590.20001220703</ele>
        <time>2018-10-30T09:46:01.000Z</time>
      </trkpt>
      <trkpt lat="43.40617" lon="5.4638">
        <ele>590.20001220703</ele>
        <time>2018-10-30T09:46:06.000Z</time>
      </trkpt>
      <trkpt lat="43.40618" lon="5.46376">
        <ele>590</ele>
        <time>2018-10-30T09:46:09.000Z</time>
      </trkpt>
      <trkpt lat="43.40617" lon="5.46366">
        <ele>589.59997558594</ele>
        <time>2018-10-30T09:46:16.000Z</time>
      </trkpt>
      <trkpt lat="43.40616" lon="5.46357">
        <ele>589.40002441406</ele>
        <time>2018-10-30T09:46:23.000Z</time>
      </trkpt>
      <trkpt lat="43.40614" lon="5.46347">
        <ele>588.79998779297</ele>
        <time>2018-10-30T09:46:30.000Z</time>
      </trkpt>
      <trkpt lat="43.40613" lon="5.46346">
        <ele>588.59997558594</ele>
        <time>2018-10-30T09:46:35.000Z</time>
      </trkpt>
      <trkpt lat="43.40614" lon="5.46346">
        <ele>588.79998779297</ele>
        <time>2018-10-30T09:46:49.000Z</time>
      </trkpt>
      <trkpt lat="43.40613" lon="5.46346">
        <ele>588.79998779297</ele>
        <time>2018-10-30T09:47:00.000Z</time>
      </trkpt>
      <trkpt lat="43.40615" lon="5.46342">
        <ele>588.79998779297</ele>
        <time>2018-10-30T09:47:05.000Z</time>
      </trkpt>
      <trkpt lat="43.40615" lon="5.46332">
        <ele>588.20001220703</ele>
        <time>2018-10-30T09:47:12.000Z</time>
      </trkpt>
      <trkpt lat="43.40614" lon="5.46328">
        <ele>588</ele>
        <time>2018-10-30T09:47:14.000Z</time>
      </trkpt>
      <trkpt lat="43.40614" lon="5.46322">
        <ele>588</ele>
        <time>2018-10-30T09:47:18.000Z</time>
      </trkpt>
      <trkpt lat="43.40613" lon="5.46314">
        <ele>587.79998779297</ele>
        <time>2018-10-30T09:47:24.000Z</time>
      </trkpt>
      <trkpt lat="43.40612" lon="5.46309">
        <ele>587.59997558594</ele>
        <time>2018-10-30T09:47:27.000Z</time>
      </trkpt>
      <trkpt lat="43.40612" lon="5.46303">
        <ele>587.40002441406</ele>
        <time>2018-10-30T09:47:31.000Z</time>
      </trkpt>
      <trkpt lat="43.40612" lon="5.463">
        <ele>587.20001220703</ele>
        <time>2018-10-30T09:47:33.000Z</time>
      </trkpt>
      <trkpt lat="43.40612" lon="5.46297">
        <ele>587.20001220703</ele>
        <time>2018-10-30T09:47:35.000Z</time>
      </trkpt>
      <trkpt lat="43.40612" lon="5.46294">
        <ele>587.20001220703</ele>
        <time>2018-10-30T09:47:37.000Z</time>
      </trkpt>
      <trkpt lat="43.40612" lon="5.46285">
        <ele>587.40002441406</ele>
        <time>2018-10-30T09:47:43.000Z</time>
      </trkpt>
      <trkpt lat="43.40612" lon="5.46277">
        <ele>587.59997558594</ele>
        <time>2018-10-30T09:47:48.000Z</time>
      </trkpt>
      <trkpt lat="43.40612" lon="5.46276">
        <ele>587.59997558594</ele>
        <time>2018-10-30T09:47:49.000Z</time>
      </trkpt>
      <trkpt lat="43.40611" lon="5.46267">
        <ele>587.79998779297</ele>
        <time>2018-10-30T09:47:55.000Z</time>
      </trkpt>
      <trkpt lat="43.40611" lon="5.46265">
        <ele>587.79998779297</ele>
        <time>2018-10-30T09:47:56.000Z</time>
      </trkpt>
      <trkpt lat="43.40612" lon="5.46257">
        <ele>588.20001220703</ele>
        <time>2018-10-30T09:48:01.000Z</time>
      </trkpt>
      <trkpt lat="43.40611" lon="5.46254">
        <ele>588.20001220703</ele>
        <time>2018-10-30T09:48:03.000Z</time>
      </trkpt>
      <trkpt lat="43.40612" lon="5.46248">
        <ele>588.20001220703</ele>
        <time>2018-10-30T09:48:08.000Z</time>
      </trkpt>
      <trkpt lat="43.40615" lon="5.46238">
        <ele>588.59997558594</ele>
        <time>2018-10-30T09:48:16.000Z</time>
      </trkpt>
      <trkpt lat="43.40617" lon="5.46235">
        <ele>589</ele>
        <time>2018-10-30T09:48:19.000Z</time>
      </trkpt>
      <trkpt lat="43.40618" lon="5.46233">
        <ele>589</ele>
        <time>2018-10-30T09:48:20.000Z</time>
      </trkpt>
      <trkpt lat="43.40621" lon="5.46225">
        <ele>589.20001220703</ele>
        <time>2018-10-30T09:48:26.000Z</time>
      </trkpt>
      <trkpt lat="43.40622" lon="5.46215">
        <ele>589.40002441406</ele>
        <time>2018-10-30T09:48:32.000Z</time>
      </trkpt>
      <trkpt lat="43.40622" lon="5.46214">
        <ele>589.40002441406</ele>
        <time>2018-10-30T09:48:33.000Z</time>
      </trkpt>
      <trkpt lat="43.4062" lon="5.46208">
        <ele>589</ele>
        <time>2018-10-30T09:48:37.000Z</time>
      </trkpt>
      <trkpt lat="43.40617" lon="5.46202">
        <ele>588.59997558594</ele>
        <time>2018-10-30T09:48:41.000Z</time>
      </trkpt>
      <trkpt lat="43.40616" lon="5.46198">
        <ele>588.20001220703</ele>
        <time>2018-10-30T09:48:44.000Z</time>
      </trkpt>
      <trkpt lat="43.40616" lon="5.46193">
        <ele>588</ele>
        <time>2018-10-30T09:48:47.000Z</time>
      </trkpt>
      <trkpt lat="43.40615" lon="5.46192">
        <ele>587.79998779297</ele>
        <time>2018-10-30T09:48:48.000Z</time>
      </trkpt>
      <trkpt lat="43.40615" lon="5.4619">
        <ele>587.40002441406</ele>
        <time>2018-10-30T09:48:50.000Z</time>
      </trkpt>
      <trkpt lat="43.40614" lon="5.46186">
        <ele>587.20001220703</ele>
        <time>2018-10-30T09:48:53.000Z</time>
      </trkpt>
      <trkpt lat="43.40613" lon="5.46181">
        <ele>586.79998779297</ele>
        <time>2018-10-30T09:48:57.000Z</time>
      </trkpt>
      <trkpt lat="43.40613" lon="5.4618">
        <ele>586.79998779297</ele>
        <time>2018-10-30T09:48:58.000Z</time>
      </trkpt>
      <trkpt lat="43.40612" lon="5.46175">
        <ele>586.79998779297</ele>
        <time>2018-10-30T09:49:02.000Z</time>
      </trkpt>
      <trkpt lat="43.40612" lon="5.46172">
        <ele>586.59997558594</ele>
        <time>2018-10-30T09:49:04.000Z</time>
      </trkpt>
      <trkpt lat="43.40611" lon="5.4617">
        <ele>586.59997558594</ele>
        <time>2018-10-30T09:49:05.000Z</time>
      </trkpt>
      <trkpt lat="43.40611" lon="5.46167">
        <ele>586.40002441406</ele>
        <time>2018-10-30T09:49:07.000Z</time>
      </trkpt>
      <trkpt lat="43.4061" lon="5.46164">
        <ele>586.20001220703</ele>
        <time>2018-10-30T09:49:09.000Z</time>
      </trkpt>
      <trkpt lat="43.4061" lon="5.46159">
        <ele>585.59997558594</ele>
        <time>2018-10-30T09:49:12.000Z</time>
      </trkpt>
      <trkpt lat="43.40609" lon="5.46157">
        <ele>585.59997558594</ele>
        <time>2018-10-30T09:49:14.000Z</time>
      </trkpt>
      <trkpt lat="43.40609" lon="5.46153">
        <ele>585.40002441406</ele>
        <time>2018-10-30T09:49:17.000Z</time>
      </trkpt>
      <trkpt lat="43.40609" lon="5.4615">
        <ele>585.20001220703</ele>
        <time>2018-10-30T09:49:19.000Z</time>
      </trkpt>
      <trkpt lat="43.4061" lon="5.46144">
        <ele>584.20001220703</ele>
        <time>2018-10-30T09:49:23.000Z</time>
      </trkpt>
      <trkpt lat="43.40611" lon="5.4614">
        <ele>584</ele>
        <time>2018-10-30T09:49:26.000Z</time>
      </trkpt>
      <trkpt lat="43.40612" lon="5.4613">
        <ele>583.59997558594</ele>
        <time>2018-10-30T09:49:33.000Z</time>
      </trkpt>
      <trkpt lat="43.40613" lon="5.46126">
        <ele>583.59997558594</ele>
        <time>2018-10-30T09:49:36.000Z</time>
      </trkpt>
      <trkpt lat="43.40613" lon="5.46122">
        <ele>583.20001220703</ele>
        <time>2018-10-30T09:49:39.000Z</time>
      </trkpt>
      <trkpt lat="43.40613" lon="5.4612">
        <ele>583</ele>
        <time>2018-10-30T09:49:40.000Z</time>
      </trkpt>
      <trkpt lat="43.40614" lon="5.46116">
        <ele>582.79998779297</ele>
        <time>2018-10-30T09:49:43.000Z</time>
      </trkpt>
      <trkpt lat="43.40614" lon="5.46114">
        <ele>582.79998779297</ele>
        <time>2018-10-30T09:49:45.000Z</time>
      </trkpt>
      <trkpt lat="43.40615" lon="5.46109">
        <ele>582.79998779297</ele>
        <time>2018-10-30T09:49:49.000Z</time>
      </trkpt>
      <trkpt lat="43.40616" lon="5.46104">
        <ele>582.59997558594</ele>
        <time>2018-10-30T09:49:52.000Z</time>
      </trkpt>
      <trkpt lat="43.40617" lon="5.46097">
        <ele>582</ele>
        <time>2018-10-30T09:49:58.000Z</time>
      </trkpt>
      <trkpt lat="43.40617" lon="5.46094">
        <ele>581.79998779297</ele>
        <time>2018-10-30T09:50:00.000Z</time>
      </trkpt>
      <trkpt lat="43.40618" lon="5.46087">
        <ele>581.40002441406</ele>
        <time>2018-10-30T09:50:05.000Z</time>
      </trkpt>
      <trkpt lat="43.4062" lon="5.46085">
        <ele>581.20001220703</ele>
        <time>2018-10-30T09:50:07.000Z</time>
      </trkpt>
      <trkpt lat="43.4062" lon="5.46084">
        <ele>581</ele>
        <time>2018-10-30T09:50:08.000Z</time>
      </trkpt>
      <trkpt lat="43.40623" lon="5.46078">
        <ele>580</ele>
        <time>2018-10-30T09:50:13.000Z</time>
      </trkpt>
      <trkpt lat="43.40624" lon="5.46077">
        <ele>579.79998779297</ele>
        <time>2018-10-30T09:50:14.000Z</time>
      </trkpt>
      <trkpt lat="43.40624" lon="5.46076">
        <ele>579.59997558594</ele>
        <time>2018-10-30T09:50:15.000Z</time>
      </trkpt>
      <trkpt lat="43.4063" lon="5.46069">
        <ele>578.79998779297</ele>
        <time>2018-10-30T09:50:22.000Z</time>
      </trkpt>
      <trkpt lat="43.40631" lon="5.46067">
        <ele>578.59997558594</ele>
        <time>2018-10-30T09:50:24.000Z</time>
      </trkpt>
      <trkpt lat="43.40633" lon="5.46065">
        <ele>578.40002441406</ele>
        <time>2018-10-30T09:50:28.000Z</time>
      </trkpt>
      <trkpt lat="43.40635" lon="5.46061">
        <ele>578.20001220703</ele>
        <time>2018-10-30T09:50:35.000Z</time>
      </trkpt>
      <trkpt lat="43.40638" lon="5.46057">
        <ele>578.20001220703</ele>
        <time>2018-10-30T09:50:38.000Z</time>
      </trkpt>
      <trkpt lat="43.4064" lon="5.46054">
        <ele>578.20001220703</ele>
        <time>2018-10-30T09:50:41.000Z</time>
      </trkpt>
      <trkpt lat="43.40645" lon="5.46046">
        <ele>577.59997558594</ele>
        <time>2018-10-30T09:50:48.000Z</time>
      </trkpt>
      <trkpt lat="43.40647" lon="5.46044">
        <ele>577.20001220703</ele>
        <time>2018-10-30T09:50:50.000Z</time>
      </trkpt>
      <trkpt lat="43.4065" lon="5.46039">
        <ele>577</ele>
        <time>2018-10-30T09:50:55.000Z</time>
      </trkpt>
      <trkpt lat="43.4065" lon="5.46038">
        <ele>576.79998779297</ele>
        <time>2018-10-30T09:50:56.000Z</time>
      </trkpt>
      <trkpt lat="43.40653" lon="5.46033">
        <ele>576.79998779297</ele>
        <time>2018-10-30T09:51:00.000Z</time>
      </trkpt>
      <trkpt lat="43.40657" lon="5.46029">
        <ele>577</ele>
        <time>2018-10-30T09:51:04.000Z</time>
      </trkpt>
      <trkpt lat="43.40658" lon="5.46027">
        <ele>577</ele>
        <time>2018-10-30T09:51:06.000Z</time>
      </trkpt>
      <trkpt lat="43.40664" lon="5.46022">
        <ele>577</ele>
        <time>2018-10-30T09:51:13.000Z</time>
      </trkpt>
      <trkpt lat="43.40667" lon="5.46018">
        <ele>576.79998779297</ele>
        <time>2018-10-30T09:51:17.000Z</time>
      </trkpt>
      <trkpt lat="43.40667" lon="5.46017">
        <ele>576.79998779297</ele>
        <time>2018-10-30T09:51:18.000Z</time>
      </trkpt>
      <trkpt lat="43.40668" lon="5.46016">
        <ele>576.79998779297</ele>
        <time>2018-10-30T09:51:19.000Z</time>
      </trkpt>
      <trkpt lat="43.40671" lon="5.46013">
        <ele>576.40002441406</ele>
        <time>2018-10-30T09:51:23.000Z</time>
      </trkpt>
      <trkpt lat="43.40672" lon="5.46012">
        <ele>576.40002441406</ele>
        <time>2018-10-30T09:51:24.000Z</time>
      </trkpt>
      <trkpt lat="43.40679" lon="5.46007">
        <ele>576</ele>
        <time>2018-10-30T09:51:31.000Z</time>
      </trkpt>
      <trkpt lat="43.4068" lon="5.46007">
        <ele>576</ele>
        <time>2018-10-30T09:51:32.000Z</time>
      </trkpt>
      <trkpt lat="43.4069" lon="5.46003">
        <ele>575.79998779297</ele>
        <time>2018-10-30T09:51:41.000Z</time>
      </trkpt>
      <trkpt lat="43.40693" lon="5.46001">
        <ele>575.59997558594</ele>
        <time>2018-10-30T09:51:45.000Z</time>
      </trkpt>
      <trkpt lat="43.40696" lon="5.45999">
        <ele>575.40002441406</ele>
        <time>2018-10-30T09:51:48.000Z</time>
      </trkpt>
      <trkpt lat="43.407" lon="5.45995">
        <ele>575</ele>
        <time>2018-10-30T09:51:52.000Z</time>
      </trkpt>
      <trkpt lat="43.40703" lon="5.45992">
        <ele>574.40002441406</ele>
        <time>2018-10-30T09:51:55.000Z</time>
      </trkpt>
      <trkpt lat="43.40706" lon="5.45987">
        <ele>573.79998779297</ele>
        <time>2018-10-30T09:52:00.000Z</time>
      </trkpt>
      <trkpt lat="43.40708" lon="5.45984">
        <ele>573.40002441406</ele>
        <time>2018-10-30T09:52:03.000Z</time>
      </trkpt>
      <trkpt lat="43.40709" lon="5.45983">
        <ele>573.20001220703</ele>
        <time>2018-10-30T09:52:04.000Z</time>
      </trkpt>
      <trkpt lat="43.40712" lon="5.45977">
        <ele>572.79998779297</ele>
        <time>2018-10-30T09:52:09.000Z</time>
      </trkpt>
      <trkpt lat="43.40712" lon="5.45976">
        <ele>572.79998779297</ele>
        <time>2018-10-30T09:52:10.000Z</time>
      </trkpt>
      <trkpt lat="43.40714" lon="5.45971">
        <ele>572.40002441406</ele>
        <time>2018-10-30T09:52:14.000Z</time>
      </trkpt>
      <trkpt lat="43.40715" lon="5.4597">
        <ele>572.40002441406</ele>
        <time>2018-10-30T09:52:15.000Z</time>
      </trkpt>
      <trkpt lat="43.40716" lon="5.45969">
        <ele>572.20001220703</ele>
        <time>2018-10-30T09:52:16.000Z</time>
      </trkpt>
      <trkpt lat="43.4072" lon="5.45962">
        <ele>571.79998779297</ele>
        <time>2018-10-30T09:52:23.000Z</time>
      </trkpt>
      <trkpt lat="43.40723" lon="5.45959">
        <ele>571.40002441406</ele>
        <time>2018-10-30T09:52:26.000Z</time>
      </trkpt>
      <trkpt lat="43.40723" lon="5.45958">
        <ele>571.40002441406</ele>
        <time>2018-10-30T09:52:27.000Z</time>
      </trkpt>
      <trkpt lat="43.40724" lon="5.45957">
        <ele>571.20001220703</ele>
        <time>2018-10-30T09:52:28.000Z</time>
      </trkpt>
      <trkpt lat="43.40725" lon="5.45956">
        <ele>571.20001220703</ele>
        <time>2018-10-30T09:52:29.000Z</time>
      </trkpt>
      <trkpt lat="43.40731" lon="5.45952">
        <ele>570.79998779297</ele>
        <time>2018-10-30T09:52:35.000Z</time>
      </trkpt>
      <trkpt lat="43.40734" lon="5.45949">
        <ele>570.40002441406</ele>
        <time>2018-10-30T09:52:38.000Z</time>
      </trkpt>
      <trkpt lat="43.40738" lon="5.45946">
        <ele>569.59997558594</ele>
        <time>2018-10-30T09:52:43.000Z</time>
      </trkpt>
      <trkpt lat="43.40742" lon="5.45943">
        <ele>569.59997558594</ele>
        <time>2018-10-30T09:52:49.000Z</time>
      </trkpt>
      <trkpt lat="43.40745" lon="5.45942">
        <ele>569.40002441406</ele>
        <time>2018-10-30T09:52:51.000Z</time>
      </trkpt>
      <trkpt lat="43.40747" lon="5.4594">
        <ele>569.40002441406</ele>
        <time>2018-10-30T09:52:53.000Z</time>
      </trkpt>
      <trkpt lat="43.40749" lon="5.45939">
        <ele>569.20001220703</ele>
        <time>2018-10-30T09:52:55.000Z</time>
      </trkpt>
      <trkpt lat="43.40751" lon="5.45938">
        <ele>569.40002441406</ele>
        <time>2018-10-30T09:52:57.000Z</time>
      </trkpt>
      <trkpt lat="43.40754" lon="5.45936">
        <ele>569.20001220703</ele>
        <time>2018-10-30T09:53:00.000Z</time>
      </trkpt>
      <trkpt lat="43.40758" lon="5.45933">
        <ele>568.59997558594</ele>
        <time>2018-10-30T09:53:04.000Z</time>
      </trkpt>
      <trkpt lat="43.4076" lon="5.45931">
        <ele>568.20001220703</ele>
        <time>2018-10-30T09:53:06.000Z</time>
      </trkpt>
      <trkpt lat="43.40761" lon="5.4593">
        <ele>568.20001220703</ele>
        <time>2018-10-30T09:53:07.000Z</time>
      </trkpt>
      <trkpt lat="43.40766" lon="5.45926">
        <ele>567.59997558594</ele>
        <time>2018-10-30T09:53:12.000Z</time>
      </trkpt>
      <trkpt lat="43.4077" lon="5.45923">
        <ele>567</ele>
        <time>2018-10-30T09:53:17.000Z</time>
      </trkpt>
      <trkpt lat="43.40771" lon="5.45921">
        <ele>567</ele>
        <time>2018-10-30T09:53:18.000Z</time>
      </trkpt>
      <trkpt lat="43.40777" lon="5.45917">
        <ele>566.59997558594</ele>
        <time>2018-10-30T09:53:24.000Z</time>
      </trkpt>
      <trkpt lat="43.40778" lon="5.45916">
        <ele>566.59997558594</ele>
        <time>2018-10-30T09:53:25.000Z</time>
      </trkpt>
      <trkpt lat="43.40781" lon="5.45912">
        <ele>566.20001220703</ele>
        <time>2018-10-30T09:53:29.000Z</time>
      </trkpt>
      <trkpt lat="43.40781" lon="5.45911">
        <ele>566</ele>
        <time>2018-10-30T09:53:30.000Z</time>
      </trkpt>
      <trkpt lat="43.40783" lon="5.45908">
        <ele>565.79998779297</ele>
        <time>2018-10-30T09:53:33.000Z</time>
      </trkpt>
      <trkpt lat="43.40785" lon="5.459">
        <ele>565</ele>
        <time>2018-10-30T09:53:40.000Z</time>
      </trkpt>
      <trkpt lat="43.40786" lon="5.45898">
        <ele>564.79998779297</ele>
        <time>2018-10-30T09:53:42.000Z</time>
      </trkpt>
      <trkpt lat="43.40785" lon="5.45889">
        <ele>564.40002441406</ele>
        <time>2018-10-30T09:53:48.000Z</time>
      </trkpt>
      <trkpt lat="43.40785" lon="5.45881">
        <ele>563.59997558594</ele>
        <time>2018-10-30T09:53:53.000Z</time>
      </trkpt>
      <trkpt lat="43.40785" lon="5.45881">
        <ele>563.40002441406</ele>
        <time>2018-10-30T09:53:54.000Z</time>
      </trkpt>
      <trkpt lat="43.40785" lon="5.4587">
        <ele>563.20001220703</ele>
        <time>2018-10-30T09:54:02.000Z</time>
      </trkpt>
      <trkpt lat="43.40786" lon="5.45862">
        <ele>562.59997558594</ele>
        <time>2018-10-30T09:54:08.000Z</time>
      </trkpt>
      <trkpt lat="43.40786" lon="5.45858">
        <ele>562.40002441406</ele>
        <time>2018-10-30T09:54:11.000Z</time>
      </trkpt>
      <trkpt lat="43.40788" lon="5.45845">
        <ele>561.79998779297</ele>
        <time>2018-10-30T09:54:19.000Z</time>
      </trkpt>
      <trkpt lat="43.40792" lon="5.45832">
        <ele>561.40002441406</ele>
        <time>2018-10-30T09:54:25.000Z</time>
      </trkpt>
      <trkpt lat="43.40793" lon="5.4583">
        <ele>561.20001220703</ele>
        <time>2018-10-30T09:54:26.000Z</time>
      </trkpt>
      <trkpt lat="43.408" lon="5.45811">
        <ele>560.40002441406</ele>
        <time>2018-10-30T09:54:31.000Z</time>
      </trkpt>
      <trkpt lat="43.40802" lon="5.45807">
        <ele>560</ele>
        <time>2018-10-30T09:54:32.000Z</time>
      </trkpt>
      <trkpt lat="43.40813" lon="5.45788">
        <ele>559.20001220703</ele>
        <time>2018-10-30T09:54:37.000Z</time>
      </trkpt>
      <trkpt lat="43.40815" lon="5.45784">
        <ele>558.79998779297</ele>
        <time>2018-10-30T09:54:39.000Z</time>
      </trkpt>
      <trkpt lat="43.40815" lon="5.45784">
        <ele>558.79998779297</ele>
        <time>2018-10-30T09:54:40.000Z</time>
      </trkpt>
      <trkpt lat="43.40815" lon="5.45783">
        <ele>558.59997558594</ele>
        <time>2018-10-30T09:54:48.000Z</time>
      </trkpt>
      <trkpt lat="43.40814" lon="5.45784">
        <ele>558.40002441406</ele>
        <time>2018-10-30T09:54:55.000Z</time>
      </trkpt>
      <trkpt lat="43.40814" lon="5.45784">
        <ele>558.59997558594</ele>
        <time>2018-10-30T09:55:03.000Z</time>
      </trkpt>
      <trkpt lat="43.40818" lon="5.45779">
        <ele>558.59997558594</ele>
        <time>2018-10-30T09:55:10.000Z</time>
      </trkpt>
      <trkpt lat="43.40818" lon="5.45778">
        <ele>558.59997558594</ele>
        <time>2018-10-30T09:55:11.000Z</time>
      </trkpt>
      <trkpt lat="43.4082" lon="5.45774">
        <ele>558.20001220703</ele>
        <time>2018-10-30T09:55:16.000Z</time>
      </trkpt>
      <trkpt lat="43.40825" lon="5.45767">
        <ele>558.20001220703</ele>
        <time>2018-10-30T09:55:24.000Z</time>
      </trkpt>
      <trkpt lat="43.40827" lon="5.45764">
        <ele>558</ele>
        <time>2018-10-30T09:55:27.000Z</time>
      </trkpt>
      <trkpt lat="43.40832" lon="5.45758">
        <ele>558</ele>
        <time>2018-10-30T09:55:33.000Z</time>
      </trkpt>
      <trkpt lat="43.40836" lon="5.45752">
        <ele>557.59997558594</ele>
        <time>2018-10-30T09:55:38.000Z</time>
      </trkpt>
      <trkpt lat="43.40838" lon="5.45749">
        <ele>557.20001220703</ele>
        <time>2018-10-30T09:55:41.000Z</time>
      </trkpt>
      <trkpt lat="43.40843" lon="5.45742">
        <ele>556.40002441406</ele>
        <time>2018-10-30T09:55:48.000Z</time>
      </trkpt>
      <trkpt lat="43.40844" lon="5.45741">
        <ele>556.40002441406</ele>
        <time>2018-10-30T09:55:49.000Z</time>
      </trkpt>
      <trkpt lat="43.40849" lon="5.45734">
        <ele>555.79998779297</ele>
        <time>2018-10-30T09:55:56.000Z</time>
      </trkpt>
      <trkpt lat="43.40854" lon="5.45726">
        <ele>555.40002441406</ele>
        <time>2018-10-30T09:56:03.000Z</time>
      </trkpt>
      <trkpt lat="43.40854" lon="5.45725">
        <ele>555.40002441406</ele>
        <time>2018-10-30T09:56:04.000Z</time>
      </trkpt>
      <trkpt lat="43.40857" lon="5.45717">
        <ele>555.40002441406</ele>
        <time>2018-10-30T09:56:10.000Z</time>
      </trkpt>
      <trkpt lat="43.40859" lon="5.4571">
        <ele>555.59997558594</ele>
        <time>2018-10-30T09:56:15.000Z</time>
      </trkpt>
      <trkpt lat="43.40859" lon="5.45708">
        <ele>555.79998779297</ele>
        <time>2018-10-30T09:56:17.000Z</time>
      </trkpt>
      <trkpt lat="43.4086" lon="5.45701">
        <ele>556.40002441406</ele>
        <time>2018-10-30T09:56:22.000Z</time>
      </trkpt>
      <trkpt lat="43.4086" lon="5.45699">
        <ele>556.40002441406</ele>
        <time>2018-10-30T09:56:24.000Z</time>
      </trkpt>
      <trkpt lat="43.4086" lon="5.45692">
        <ele>557.20001220703</ele>
        <time>2018-10-30T09:56:29.000Z</time>
      </trkpt>
      <trkpt lat="43.4086" lon="5.45691">
        <ele>557.20001220703</ele>
        <time>2018-10-30T09:56:30.000Z</time>
      </trkpt>
      <trkpt lat="43.40863" lon="5.45678">
        <ele>558.20001220703</ele>
        <time>2018-10-30T09:56:39.000Z</time>
      </trkpt>
      <trkpt lat="43.40863" lon="5.45677">
        <ele>558.20001220703</ele>
        <time>2018-10-30T09:56:40.000Z</time>
      </trkpt>
      <trkpt lat="43.40863" lon="5.45672">
        <ele>558.59997558594</ele>
        <time>2018-10-30T09:56:46.000Z</time>
      </trkpt>
      <trkpt lat="43.40864" lon="5.45668">
        <ele>558.59997558594</ele>
        <time>2018-10-30T09:56:53.000Z</time>
      </trkpt>
      <trkpt lat="43.40863" lon="5.45663">
        <ele>558.79998779297</ele>
        <time>2018-10-30T09:56:56.000Z</time>
      </trkpt>
      <trkpt lat="43.40863" lon="5.45659">
        <ele>558.79998779297</ele>
        <time>2018-10-30T09:56:59.000Z</time>
      </trkpt>
      <trkpt lat="43.40862" lon="5.45656">
        <ele>559</ele>
        <time>2018-10-30T09:57:01.000Z</time>
      </trkpt>
      <trkpt lat="43.40861" lon="5.45651">
        <ele>559.20001220703</ele>
        <time>2018-10-30T09:57:05.000Z</time>
      </trkpt>
      <trkpt lat="43.40861" lon="5.4565">
        <ele>559.20001220703</ele>
        <time>2018-10-30T09:57:06.000Z</time>
      </trkpt>
      <trkpt lat="43.40861" lon="5.45643">
        <ele>559.40002441406</ele>
        <time>2018-10-30T09:57:10.000Z</time>
      </trkpt>
      <trkpt lat="43.40861" lon="5.4564">
        <ele>559.20001220703</ele>
        <time>2018-10-30T09:57:13.000Z</time>
      </trkpt>
      <trkpt lat="43.40861" lon="5.4564">
        <ele>559.20001220703</ele>
        <time>2018-10-30T09:57:22.000Z</time>
      </trkpt>
      <trkpt lat="43.40859" lon="5.4564">
        <ele>559.20001220703</ele>
        <time>2018-10-30T09:57:24.000Z</time>
      </trkpt>
      <trkpt lat="43.40857" lon="5.45638">
        <ele>559.40002441406</ele>
        <time>2018-10-30T09:57:28.000Z</time>
      </trkpt>
      <trkpt lat="43.40856" lon="5.45636">
        <ele>559.59997558594</ele>
        <time>2018-10-30T09:57:34.000Z</time>
      </trkpt>
      <trkpt lat="43.40854" lon="5.45635">
        <ele>559.40002441406</ele>
        <time>2018-10-30T09:57:43.000Z</time>
      </trkpt>
      <trkpt lat="43.40854" lon="5.45635">
        <ele>559.20001220703</ele>
        <time>2018-10-30T09:57:55.000Z</time>
      </trkpt>
      <trkpt lat="43.40853" lon="5.45633">
        <ele>559.20001220703</ele>
        <time>2018-10-30T09:58:04.000Z</time>
      </trkpt>
      <trkpt lat="43.40847" lon="5.45626">
        <ele>559.59997558594</ele>
        <time>2018-10-30T09:58:12.000Z</time>
      </trkpt>
      <trkpt lat="43.40845" lon="5.45624">
        <ele>560</ele>
        <time>2018-10-30T09:58:15.000Z</time>
      </trkpt>
      <trkpt lat="43.40843" lon="5.45622">
        <ele>560.20001220703</ele>
        <time>2018-10-30T09:58:17.000Z</time>
      </trkpt>
      <trkpt lat="43.40841" lon="5.4562">
        <ele>560.79998779297</ele>
        <time>2018-10-30T09:58:20.000Z</time>
      </trkpt>
      <trkpt lat="43.40839" lon="5.45617">
        <ele>561</ele>
        <time>2018-10-30T09:58:23.000Z</time>
      </trkpt>
      <trkpt lat="43.40836" lon="5.45613">
        <ele>561</ele>
        <time>2018-10-30T09:58:27.000Z</time>
      </trkpt>
      <trkpt lat="43.40831" lon="5.4561">
        <ele>560.40002441406</ele>
        <time>2018-10-30T09:58:32.000Z</time>
      </trkpt>
      <trkpt lat="43.4083" lon="5.45608">
        <ele>560.20001220703</ele>
        <time>2018-10-30T09:58:34.000Z</time>
      </trkpt>
      <trkpt lat="43.4082" lon="5.45601">
        <ele>559.79998779297</ele>
        <time>2018-10-30T09:58:44.000Z</time>
      </trkpt>
      <trkpt lat="43.40816" lon="5.456">
        <ele>559.79998779297</ele>
        <time>2018-10-30T09:58:47.000Z</time>
      </trkpt>
      <trkpt lat="43.40812" lon="5.45597">
        <ele>559.20001220703</ele>
        <time>2018-10-30T09:58:51.000Z</time>
      </trkpt>
      <trkpt lat="43.40809" lon="5.45596">
        <ele>558.79998779297</ele>
        <time>2018-10-30T09:58:54.000Z</time>
      </trkpt>
      <trkpt lat="43.40804" lon="5.45593">
        <ele>558.40002441406</ele>
        <time>2018-10-30T09:58:59.000Z</time>
      </trkpt>
      <trkpt lat="43.40796" lon="5.45588">
        <ele>557.79998779297</ele>
        <time>2018-10-30T09:59:07.000Z</time>
      </trkpt>
      <trkpt lat="43.40794" lon="5.45587">
        <ele>557.59997558594</ele>
        <time>2018-10-30T09:59:09.000Z</time>
      </trkpt>
      <trkpt lat="43.40788" lon="5.45582">
        <ele>557.20001220703</ele>
        <time>2018-10-30T09:59:15.000Z</time>
      </trkpt>
      <trkpt lat="43.40782" lon="5.45576">
        <ele>556.59997558594</ele>
        <time>2018-10-30T09:59:22.000Z</time>
      </trkpt>
      <trkpt lat="43.40773" lon="5.4557">
        <ele>556.79998779297</ele>
        <time>2018-10-30T09:59:31.000Z</time>
      </trkpt>
      <trkpt lat="43.40772" lon="5.45569">
        <ele>556.79998779297</ele>
        <time>2018-10-30T09:59:32.000Z</time>
      </trkpt>
      <trkpt lat="43.40766" lon="5.45569">
        <ele>556.40002441406</ele>
        <time>2018-10-30T09:59:38.000Z</time>
      </trkpt>
      <trkpt lat="43.40762" lon="5.45572">
        <ele>556.20001220703</ele>
        <time>2018-10-30T09:59:43.000Z</time>
      </trkpt>
      <trkpt lat="43.40762" lon="5.45573">
        <ele>556.20001220703</ele>
        <time>2018-10-30T09:59:44.000Z</time>
      </trkpt>
      <trkpt lat="43.40756" lon="5.45579">
        <ele>556.20001220703</ele>
        <time>2018-10-30T09:59:51.000Z</time>
      </trkpt>
      <trkpt lat="43.40751" lon="5.45585">
        <ele>556.20001220703</ele>
        <time>2018-10-30T09:59:57.000Z</time>
      </trkpt>
      <trkpt lat="43.40749" lon="5.4559">
        <ele>555.40002441406</ele>
        <time>2018-10-30T10:00:01.000Z</time>
      </trkpt>
      <trkpt lat="43.40746" lon="5.45592">
        <ele>555</ele>
        <time>2018-10-30T10:00:04.000Z</time>
      </trkpt>
      <trkpt lat="43.40742" lon="5.45598">
        <ele>554.79998779297</ele>
        <time>2018-10-30T10:00:10.000Z</time>
      </trkpt>
      <trkpt lat="43.40738" lon="5.45607">
        <ele>554.40002441406</ele>
        <time>2018-10-30T10:00:16.000Z</time>
      </trkpt>
      <trkpt lat="43.40733" lon="5.45616">
        <ele>553.20001220703</ele>
        <time>2018-10-30T10:00:24.000Z</time>
      </trkpt>
      <trkpt lat="43.40728" lon="5.45622">
        <ele>553</ele>
        <time>2018-10-30T10:00:30.000Z</time>
      </trkpt>
      <trkpt lat="43.40726" lon="5.45625">
        <ele>552.79998779297</ele>
        <time>2018-10-30T10:00:33.000Z</time>
      </trkpt>
      <trkpt lat="43.40724" lon="5.45628">
        <ele>552.79998779297</ele>
        <time>2018-10-30T10:00:36.000Z</time>
      </trkpt>
      <trkpt lat="43.40717" lon="5.45634">
        <ele>552.40002441406</ele>
        <time>2018-10-30T10:00:43.000Z</time>
      </trkpt>
      <trkpt lat="43.40715" lon="5.45636">
        <ele>552</ele>
        <time>2018-10-30T10:00:45.000Z</time>
      </trkpt>
      <trkpt lat="43.40713" lon="5.45638">
        <ele>551.79998779297</ele>
        <time>2018-10-30T10:00:48.000Z</time>
      </trkpt>
      <trkpt lat="43.40708" lon="5.45641">
        <ele>551.40002441406</ele>
        <time>2018-10-30T10:00:53.000Z</time>
      </trkpt>
      <trkpt lat="43.40706" lon="5.45643">
        <ele>551.20001220703</ele>
        <time>2018-10-30T10:00:55.000Z</time>
      </trkpt>
      <trkpt lat="43.40702" lon="5.45645">
        <ele>551.20001220703</ele>
        <time>2018-10-30T10:00:59.000Z</time>
      </trkpt>
      <trkpt lat="43.407" lon="5.45647">
        <ele>551.20001220703</ele>
        <time>2018-10-30T10:01:01.000Z</time>
      </trkpt>
      <trkpt lat="43.40698" lon="5.45649">
        <ele>550.79998779297</ele>
        <time>2018-10-30T10:01:03.000Z</time>
      </trkpt>
      <trkpt lat="43.40694" lon="5.45653">
        <ele>550.59997558594</ele>
        <time>2018-10-30T10:01:07.000Z</time>
      </trkpt>
      <trkpt lat="43.40688" lon="5.4566">
        <ele>549.79998779297</ele>
        <time>2018-10-30T10:01:14.000Z</time>
      </trkpt>
      <trkpt lat="43.40685" lon="5.45662">
        <ele>549.59997558594</ele>
        <time>2018-10-30T10:01:17.000Z</time>
      </trkpt>
      <trkpt lat="43.40682" lon="5.45665">
        <ele>549.40002441406</ele>
        <time>2018-10-30T10:01:20.000Z</time>
      </trkpt>
      <trkpt lat="43.40681" lon="5.45667">
        <ele>549.20001220703</ele>
        <time>2018-10-30T10:01:22.000Z</time>
      </trkpt>
      <trkpt lat="43.40679" lon="5.45669">
        <ele>549</ele>
        <time>2018-10-30T10:01:24.000Z</time>
      </trkpt>
      <trkpt lat="43.40676" lon="5.45671">
        <ele>548.59997558594</ele>
        <time>2018-10-30T10:01:27.000Z</time>
      </trkpt>
      <trkpt lat="43.40674" lon="5.45672">
        <ele>548.40002441406</ele>
        <time>2018-10-30T10:01:29.000Z</time>
      </trkpt>
      <trkpt lat="43.40672" lon="5.45675">
        <ele>548.20001220703</ele>
        <time>2018-10-30T10:01:31.000Z</time>
      </trkpt>
      <trkpt lat="43.40671" lon="5.45675">
        <ele>548</ele>
        <time>2018-10-30T10:01:32.000Z</time>
      </trkpt>
      <trkpt lat="43.40667" lon="5.4568">
        <ele>547.59997558594</ele>
        <time>2018-10-30T10:01:37.000Z</time>
      </trkpt>
      <trkpt lat="43.40666" lon="5.45681">
        <ele>547.40002441406</ele>
        <time>2018-10-30T10:01:38.000Z</time>
      </trkpt>
      <trkpt lat="43.40662" lon="5.45686">
        <ele>547.20001220703</ele>
        <time>2018-10-30T10:01:43.000Z</time>
      </trkpt>
      <trkpt lat="43.40662" lon="5.45687">
        <ele>547</ele>
        <time>2018-10-30T10:01:44.000Z</time>
      </trkpt>
      <trkpt lat="43.40657" lon="5.45697">
        <ele>546.79998779297</ele>
        <time>2018-10-30T10:01:52.000Z</time>
      </trkpt>
      <trkpt lat="43.40653" lon="5.45706">
        <ele>546.79998779297</ele>
        <time>2018-10-30T10:01:59.000Z</time>
      </trkpt>
      <trkpt lat="43.40653" lon="5.45708">
        <ele>547</ele>
        <time>2018-10-30T10:02:00.000Z</time>
      </trkpt>
      <trkpt lat="43.40652" lon="5.45712">
        <ele>547.20001220703</ele>
        <time>2018-10-30T10:02:03.000Z</time>
      </trkpt>
      <trkpt lat="43.40651" lon="5.45713">
        <ele>547.20001220703</ele>
        <time>2018-10-30T10:02:04.000Z</time>
      </trkpt>
      <trkpt lat="43.40648" lon="5.45719">
        <ele>547.59997558594</ele>
        <time>2018-10-30T10:02:09.000Z</time>
      </trkpt>
      <trkpt lat="43.40646" lon="5.45728">
        <ele>547.40002441406</ele>
        <time>2018-10-30T10:02:15.000Z</time>
      </trkpt>
      <trkpt lat="43.40643" lon="5.45734">
        <ele>547.20001220703</ele>
        <time>2018-10-30T10:02:20.000Z</time>
      </trkpt>
      <trkpt lat="43.40641" lon="5.45737">
        <ele>546.79998779297</ele>
        <time>2018-10-30T10:02:26.000Z</time>
      </trkpt>
      <trkpt lat="43.40641" lon="5.45737">
        <ele>546.79998779297</ele>
        <time>2018-10-30T10:02:33.000Z</time>
      </trkpt>
      <trkpt lat="43.4064" lon="5.45739">
        <ele>546.79998779297</ele>
        <time>2018-10-30T10:02:36.000Z</time>
      </trkpt>
      <trkpt lat="43.40639" lon="5.45742">
        <ele>546.79998779297</ele>
        <time>2018-10-30T10:02:39.000Z</time>
      </trkpt>
      <trkpt lat="43.40639" lon="5.45744">
        <ele>546.79998779297</ele>
        <time>2018-10-30T10:02:41.000Z</time>
      </trkpt>
      <trkpt lat="43.40639" lon="5.45749">
        <ele>546.79998779297</ele>
        <time>2018-10-30T10:02:45.000Z</time>
      </trkpt>
      <trkpt lat="43.40638" lon="5.45752">
        <ele>547.20001220703</ele>
        <time>2018-10-30T10:02:47.000Z</time>
      </trkpt>
      <trkpt lat="43.40638" lon="5.45758">
        <ele>547.20001220703</ele>
        <time>2018-10-30T10:02:51.000Z</time>
      </trkpt>
      <trkpt lat="43.40636" lon="5.45767">
        <ele>546.79998779297</ele>
        <time>2018-10-30T10:02:57.000Z</time>
      </trkpt>
      <trkpt lat="43.40633" lon="5.45776">
        <ele>546.40002441406</ele>
        <time>2018-10-30T10:03:04.000Z</time>
      </trkpt>
      <trkpt lat="43.40633" lon="5.45777">
        <ele>546.20001220703</ele>
        <time>2018-10-30T10:03:05.000Z</time>
      </trkpt>
      <trkpt lat="43.40628" lon="5.45784">
        <ele>545.59997558594</ele>
        <time>2018-10-30T10:03:11.000Z</time>
      </trkpt>
      <trkpt lat="43.40625" lon="5.45789">
        <ele>544.79998779297</ele>
        <time>2018-10-30T10:03:15.000Z</time>
      </trkpt>
      <trkpt lat="43.40623" lon="5.45792">
        <ele>544.40002441406</ele>
        <time>2018-10-30T10:03:18.000Z</time>
      </trkpt>
      <trkpt lat="43.4062" lon="5.45795">
        <ele>543.79998779297</ele>
        <time>2018-10-30T10:03:22.000Z</time>
      </trkpt>
      <trkpt lat="43.40618" lon="5.45797">
        <ele>543.59997558594</ele>
        <time>2018-10-30T10:03:24.000Z</time>
      </trkpt>
      <trkpt lat="43.40617" lon="5.45799">
        <ele>543.20001220703</ele>
        <time>2018-10-30T10:03:26.000Z</time>
      </trkpt>
      <trkpt lat="43.40614" lon="5.45803">
        <ele>543</ele>
        <time>2018-10-30T10:03:30.000Z</time>
      </trkpt>
      <trkpt lat="43.40611" lon="5.45806">
        <ele>542.79998779297</ele>
        <time>2018-10-30T10:03:33.000Z</time>
      </trkpt>
      <trkpt lat="43.40608" lon="5.4581">
        <ele>542.20001220703</ele>
        <time>2018-10-30T10:03:37.000Z</time>
      </trkpt>
      <trkpt lat="43.40606" lon="5.45813">
        <ele>541.59997558594</ele>
        <time>2018-10-30T10:03:41.000Z</time>
      </trkpt>
      <trkpt lat="43.40605" lon="5.45815">
        <ele>541.40002441406</ele>
        <time>2018-10-30T10:03:43.000Z</time>
      </trkpt>
      <trkpt lat="43.40604" lon="5.45822">
        <ele>540.79998779297</ele>
        <time>2018-10-30T10:03:49.000Z</time>
      </trkpt>
      <trkpt lat="43.40604" lon="5.45827">
        <ele>540.59997558594</ele>
        <time>2018-10-30T10:03:52.000Z</time>
      </trkpt>
      <trkpt lat="43.40604" lon="5.4583">
        <ele>540.40002441406</ele>
        <time>2018-10-30T10:03:54.000Z</time>
      </trkpt>
      <trkpt lat="43.40604" lon="5.45832">
        <ele>540.20001220703</ele>
        <time>2018-10-30T10:03:55.000Z</time>
      </trkpt>
      <trkpt lat="43.40602" lon="5.45842">
        <ele>539.40002441406</ele>
        <time>2018-10-30T10:04:02.000Z</time>
      </trkpt>
      <trkpt lat="43.40601" lon="5.45848">
        <ele>538.79998779297</ele>
        <time>2018-10-30T10:04:07.000Z</time>
      </trkpt>
      <trkpt lat="43.406" lon="5.4585">
        <ele>538.79998779297</ele>
        <time>2018-10-30T10:04:09.000Z</time>
      </trkpt>
      <trkpt lat="43.40595" lon="5.45857">
        <ele>538.79998779297</ele>
        <time>2018-10-30T10:04:16.000Z</time>
      </trkpt>
      <trkpt lat="43.4059" lon="5.45863">
        <ele>538.20001220703</ele>
        <time>2018-10-30T10:04:22.000Z</time>
      </trkpt>
      <trkpt lat="43.40588" lon="5.45865">
        <ele>538.20001220703</ele>
        <time>2018-10-30T10:04:24.000Z</time>
      </trkpt>
      <trkpt lat="43.40583" lon="5.45873">
        <ele>538</ele>
        <time>2018-10-30T10:04:32.000Z</time>
      </trkpt>
      <trkpt lat="43.40579" lon="5.45878">
        <ele>537.79998779297</ele>
        <time>2018-10-30T10:04:38.000Z</time>
      </trkpt>
      <trkpt lat="43.40575" lon="5.45883">
        <ele>537.79998779297</ele>
        <time>2018-10-30T10:04:44.000Z</time>
      </trkpt>
      <trkpt lat="43.40568" lon="5.45888">
        <ele>537.40002441406</ele>
        <time>2018-10-30T10:04:53.000Z</time>
      </trkpt>
      <trkpt lat="43.40567" lon="5.45889">
        <ele>537.20001220703</ele>
        <time>2018-10-30T10:04:54.000Z</time>
      </trkpt>
      <trkpt lat="43.40561" lon="5.45892">
        <ele>537</ele>
        <time>2018-10-30T10:05:01.000Z</time>
      </trkpt>
      <trkpt lat="43.40554" lon="5.459">
        <ele>536.59997558594</ele>
        <time>2018-10-30T10:05:09.000Z</time>
      </trkpt>
      <trkpt lat="43.40553" lon="5.45904">
        <ele>536.20001220703</ele>
        <time>2018-10-30T10:05:13.000Z</time>
      </trkpt>
      <trkpt lat="43.40552" lon="5.45907">
        <ele>536.20001220703</ele>
        <time>2018-10-30T10:05:15.000Z</time>
      </trkpt>
      <trkpt lat="43.40552" lon="5.45917">
        <ele>536.20001220703</ele>
        <time>2018-10-30T10:05:22.000Z</time>
      </trkpt>
      <trkpt lat="43.40551" lon="5.45921">
        <ele>536</ele>
        <time>2018-10-30T10:05:25.000Z</time>
      </trkpt>
      <trkpt lat="43.40551" lon="5.45927">
        <ele>535.79998779297</ele>
        <time>2018-10-30T10:05:29.000Z</time>
      </trkpt>
      <trkpt lat="43.40552" lon="5.45939">
        <ele>535.40002441406</ele>
        <time>2018-10-30T10:05:37.000Z</time>
      </trkpt>
      <trkpt lat="43.40552" lon="5.45944">
        <ele>534.79998779297</ele>
        <time>2018-10-30T10:05:40.000Z</time>
      </trkpt>
      <trkpt lat="43.40551" lon="5.45947">
        <ele>534.40002441406</ele>
        <time>2018-10-30T10:05:43.000Z</time>
      </trkpt>
      <trkpt lat="43.40547" lon="5.45951">
        <ele>534</ele>
        <time>2018-10-30T10:05:48.000Z</time>
      </trkpt>
      <trkpt lat="43.40546" lon="5.45951">
        <ele>533.79998779297</ele>
        <time>2018-10-30T10:05:49.000Z</time>
      </trkpt>
      <trkpt lat="43.40541" lon="5.45947">
        <ele>533.40002441406</ele>
        <time>2018-10-30T10:05:54.000Z</time>
      </trkpt>
      <trkpt lat="43.40542" lon="5.45942">
        <ele>532.79998779297</ele>
        <time>2018-10-30T10:05:58.000Z</time>
      </trkpt>
      <trkpt lat="43.40543" lon="5.45941">
        <ele>532.79998779297</ele>
        <time>2018-10-30T10:05:59.000Z</time>
      </trkpt>
      <trkpt lat="43.40543" lon="5.45939">
        <ele>532.59997558594</ele>
        <time>2018-10-30T10:06:01.000Z</time>
      </trkpt>
      <trkpt lat="43.40544" lon="5.45937">
        <ele>532.40002441406</ele>
        <time>2018-10-30T10:06:03.000Z</time>
      </trkpt>
      <trkpt lat="43.40545" lon="5.4593">
        <ele>532.20001220703</ele>
        <time>2018-10-30T10:06:09.000Z</time>
      </trkpt>
      <trkpt lat="43.40544" lon="5.45927">
        <ele>532.20001220703</ele>
        <time>2018-10-30T10:06:11.000Z</time>
      </trkpt>
      <trkpt lat="43.40544" lon="5.45922">
        <ele>531.79998779297</ele>
        <time>2018-10-30T10:06:14.000Z</time>
      </trkpt>
      <trkpt lat="43.40543" lon="5.45918">
        <ele>531.79998779297</ele>
        <time>2018-10-30T10:06:17.000Z</time>
      </trkpt>
      <trkpt lat="43.40542" lon="5.45914">
        <ele>531.40002441406</ele>
        <time>2018-10-30T10:06:20.000Z</time>
      </trkpt>
      <trkpt lat="43.40539" lon="5.45902">
        <ele>530.59997558594</ele>
        <time>2018-10-30T10:06:28.000Z</time>
      </trkpt>
      <trkpt lat="43.40538" lon="5.45893">
        <ele>530</ele>
        <time>2018-10-30T10:06:34.000Z</time>
      </trkpt>
      <trkpt lat="43.40537" lon="5.45888">
        <ele>529.79998779297</ele>
        <time>2018-10-30T10:06:37.000Z</time>
      </trkpt>
      <trkpt lat="43.40538" lon="5.45884">
        <ele>529.20001220703</ele>
        <time>2018-10-30T10:06:40.000Z</time>
      </trkpt>
      <trkpt lat="43.4054" lon="5.45881">
        <ele>528.40002441406</ele>
        <time>2018-10-30T10:06:43.000Z</time>
      </trkpt>
      <trkpt lat="43.40541" lon="5.45877">
        <ele>528</ele>
        <time>2018-10-30T10:06:46.000Z</time>
      </trkpt>
      <trkpt lat="43.40544" lon="5.45874">
        <ele>527.59997558594</ele>
        <time>2018-10-30T10:06:50.000Z</time>
      </trkpt>
      <trkpt lat="43.40548" lon="5.45871">
        <ele>527.20001220703</ele>
        <time>2018-10-30T10:06:55.000Z</time>
      </trkpt>
      <trkpt lat="43.40549" lon="5.45871">
        <ele>527</ele>
        <time>2018-10-30T10:06:56.000Z</time>
      </trkpt>
      <trkpt lat="43.4055" lon="5.45871">
        <ele>526.79998779297</ele>
        <time>2018-10-30T10:06:57.000Z</time>
      </trkpt>
      <trkpt lat="43.40556" lon="5.45869">
        <ele>526.20001220703</ele>
        <time>2018-10-30T10:07:02.000Z</time>
      </trkpt>
      <trkpt lat="43.40558" lon="5.45867">
        <ele>526</ele>
        <time>2018-10-30T10:07:04.000Z</time>
      </trkpt>
      <trkpt lat="43.40559" lon="5.45867">
        <ele>525.79998779297</ele>
        <time>2018-10-30T10:07:05.000Z</time>
      </trkpt>
      <trkpt lat="43.40565" lon="5.45862">
        <ele>525.20001220703</ele>
        <time>2018-10-30T10:07:11.000Z</time>
      </trkpt>
      <trkpt lat="43.40567" lon="5.4586">
        <ele>524.79998779297</ele>
        <time>2018-10-30T10:07:14.000Z</time>
      </trkpt>
      <trkpt lat="43.4057" lon="5.45856">
        <ele>524.40002441406</ele>
        <time>2018-10-30T10:07:18.000Z</time>
      </trkpt>
      <trkpt lat="43.40574" lon="5.45846">
        <ele>523.79998779297</ele>
        <time>2018-10-30T10:07:26.000Z</time>
      </trkpt>
      <trkpt lat="43.40575" lon="5.45845">
        <ele>523.59997558594</ele>
        <time>2018-10-30T10:07:27.000Z</time>
      </trkpt>
      <trkpt lat="43.40575" lon="5.45843">
        <ele>523.59997558594</ele>
        <time>2018-10-30T10:07:28.000Z</time>
      </trkpt>
      <trkpt lat="43.40577" lon="5.45839">
        <ele>523.20001220703</ele>
        <time>2018-10-30T10:07:32.000Z</time>
      </trkpt>
      <trkpt lat="43.40578" lon="5.4583">
        <ele>522.79998779297</ele>
        <time>2018-10-30T10:07:39.000Z</time>
      </trkpt>
      <trkpt lat="43.40578" lon="5.45827">
        <ele>522.59997558594</ele>
        <time>2018-10-30T10:07:41.000Z</time>
      </trkpt>
      <trkpt lat="43.40575" lon="5.4582">
        <ele>522.40002441406</ele>
        <time>2018-10-30T10:07:46.000Z</time>
      </trkpt>
      <trkpt lat="43.40575" lon="5.45818">
        <ele>522.40002441406</ele>
        <time>2018-10-30T10:07:47.000Z</time>
      </trkpt>
      <trkpt lat="43.40572" lon="5.45812">
        <ele>522.40002441406</ele>
        <time>2018-10-30T10:07:51.000Z</time>
      </trkpt>
      <trkpt lat="43.4057" lon="5.45806">
        <ele>522.20001220703</ele>
        <time>2018-10-30T10:07:56.000Z</time>
      </trkpt>
      <trkpt lat="43.40569" lon="5.45802">
        <ele>522</ele>
        <time>2018-10-30T10:07:58.000Z</time>
      </trkpt>
      <trkpt lat="43.40569" lon="5.45794">
        <ele>521.59997558594</ele>
        <time>2018-10-30T10:08:04.000Z</time>
      </trkpt>
      <trkpt lat="43.4057" lon="5.45793">
        <ele>521.59997558594</ele>
        <time>2018-10-30T10:08:05.000Z</time>
      </trkpt>
      <trkpt lat="43.40574" lon="5.45787">
        <ele>521.40002441406</ele>
        <time>2018-10-30T10:08:11.000Z</time>
      </trkpt>
      <trkpt lat="43.40577" lon="5.45785">
        <ele>521</ele>
        <time>2018-10-30T10:08:14.000Z</time>
      </trkpt>
      <trkpt lat="43.40581" lon="5.45781">
        <ele>521</ele>
        <time>2018-10-30T10:08:18.000Z</time>
      </trkpt>
      <trkpt lat="43.40586" lon="5.45775">
        <ele>521</ele>
        <time>2018-10-30T10:08:25.000Z</time>
      </trkpt>
      <trkpt lat="43.40588" lon="5.45773">
        <ele>521</ele>
        <time>2018-10-30T10:08:27.000Z</time>
      </trkpt>
      <trkpt lat="43.40591" lon="5.45769">
        <ele>520.79998779297</ele>
        <time>2018-10-30T10:08:31.000Z</time>
      </trkpt>
      <trkpt lat="43.40591" lon="5.45768">
        <ele>520.79998779297</ele>
        <time>2018-10-30T10:08:32.000Z</time>
      </trkpt>
      <trkpt lat="43.40592" lon="5.45763">
        <ele>520.40002441406</ele>
        <time>2018-10-30T10:08:35.000Z</time>
      </trkpt>
      <trkpt lat="43.40594" lon="5.45759">
        <ele>520</ele>
        <time>2018-10-30T10:08:38.000Z</time>
      </trkpt>
      <trkpt lat="43.40594" lon="5.45753">
        <ele>519.79998779297</ele>
        <time>2018-10-30T10:08:43.000Z</time>
      </trkpt>
      <trkpt lat="43.40594" lon="5.45752">
        <ele>519.79998779297</ele>
        <time>2018-10-30T10:08:44.000Z</time>
      </trkpt>
      <trkpt lat="43.40594" lon="5.45747">
        <ele>519.40002441406</ele>
        <time>2018-10-30T10:08:47.000Z</time>
      </trkpt>
      <trkpt lat="43.40595" lon="5.45738">
        <ele>519.20001220703</ele>
        <time>2018-10-30T10:08:53.000Z</time>
      </trkpt>
      <trkpt lat="43.40596" lon="5.45729">
        <ele>518.59997558594</ele>
        <time>2018-10-30T10:08:59.000Z</time>
      </trkpt>
      <trkpt lat="43.40596" lon="5.45726">
        <ele>518.40002441406</ele>
        <time>2018-10-30T10:09:01.000Z</time>
      </trkpt>
      <trkpt lat="43.40598" lon="5.45721">
        <ele>518</ele>
        <time>2018-10-30T10:09:05.000Z</time>
      </trkpt>
      <trkpt lat="43.40598" lon="5.45718">
        <ele>517.59997558594</ele>
        <time>2018-10-30T10:09:07.000Z</time>
      </trkpt>
      <trkpt lat="43.406" lon="5.45714">
        <ele>517.20001220703</ele>
        <time>2018-10-30T10:09:10.000Z</time>
      </trkpt>
      <trkpt lat="43.406" lon="5.45712">
        <ele>517.20001220703</ele>
        <time>2018-10-30T10:09:12.000Z</time>
      </trkpt>
      <trkpt lat="43.40602" lon="5.45703">
        <ele>517</ele>
        <time>2018-10-30T10:09:19.000Z</time>
      </trkpt>
      <trkpt lat="43.40602" lon="5.45694">
        <ele>516.20001220703</ele>
        <time>2018-10-30T10:09:25.000Z</time>
      </trkpt>
      <trkpt lat="43.40602" lon="5.4569">
        <ele>516</ele>
        <time>2018-10-30T10:09:28.000Z</time>
      </trkpt>
      <trkpt lat="43.40601" lon="5.45676">
        <ele>515.40002441406</ele>
        <time>2018-10-30T10:09:37.000Z</time>
      </trkpt>
      <trkpt lat="43.40601" lon="5.45668">
        <ele>515.20001220703</ele>
        <time>2018-10-30T10:09:42.000Z</time>
      </trkpt>
      <trkpt lat="43.40601" lon="5.45667">
        <ele>515</ele>
        <time>2018-10-30T10:09:43.000Z</time>
      </trkpt>
      <trkpt lat="43.40601" lon="5.45659">
        <ele>514.40002441406</ele>
        <time>2018-10-30T10:09:49.000Z</time>
      </trkpt>
      <trkpt lat="43.40601" lon="5.45656">
        <ele>514.20001220703</ele>
        <time>2018-10-30T10:09:51.000Z</time>
      </trkpt>
      <trkpt lat="43.40601" lon="5.45652">
        <ele>514</ele>
        <time>2018-10-30T10:09:54.000Z</time>
      </trkpt>
      <trkpt lat="43.40601" lon="5.45652">
        <ele>513.79998779297</ele>
        <time>2018-10-30T10:10:00.000Z</time>
      </trkpt>
      <trkpt lat="43.40601" lon="5.45652">
        <ele>513.79998779297</ele>
        <time>2018-10-30T10:10:15.000Z</time>
      </trkpt>
      <trkpt lat="43.40601" lon="5.45651">
        <ele>513.40002441406</ele>
        <time>2018-10-30T10:10:27.000Z</time>
      </trkpt>
      <trkpt lat="43.40601" lon="5.4565">
        <ele>513.40002441406</ele>
        <time>2018-10-30T10:10:37.000Z</time>
      </trkpt>
      <trkpt lat="43.40601" lon="5.45646">
        <ele>513.20001220703</ele>
        <time>2018-10-30T10:10:47.000Z</time>
      </trkpt>
      <trkpt lat="43.40601" lon="5.45641">
        <ele>513</ele>
        <time>2018-10-30T10:10:50.000Z</time>
      </trkpt>
      <trkpt lat="43.406" lon="5.45633">
        <ele>512.20001220703</ele>
        <time>2018-10-30T10:10:56.000Z</time>
      </trkpt>
      <trkpt lat="43.406" lon="5.45629">
        <ele>511.79998779297</ele>
        <time>2018-10-30T10:10:59.000Z</time>
      </trkpt>
      <trkpt lat="43.406" lon="5.45623">
        <ele>511.39999389648</ele>
        <time>2018-10-30T10:11:02.000Z</time>
      </trkpt>
      <trkpt lat="43.40607" lon="5.45614">
        <ele>510.79998779297</ele>
        <time>2018-10-30T10:11:10.000Z</time>
      </trkpt>
      <trkpt lat="43.40614" lon="5.4561">
        <ele>510.39999389648</ele>
        <time>2018-10-30T10:11:17.000Z</time>
      </trkpt>
      <trkpt lat="43.40619" lon="5.45606">
        <ele>509.79998779297</ele>
        <time>2018-10-30T10:11:23.000Z</time>
      </trkpt>
      <trkpt lat="43.4062" lon="5.45606">
        <ele>509.60000610352</ele>
        <time>2018-10-30T10:11:24.000Z</time>
      </trkpt>
      <trkpt lat="43.40626" lon="5.45605">
        <ele>509</ele>
        <time>2018-10-30T10:11:30.000Z</time>
      </trkpt>
      <trkpt lat="43.40628" lon="5.45605">
        <ele>508.60000610352</ele>
        <time>2018-10-30T10:11:32.000Z</time>
      </trkpt>
      <trkpt lat="43.40631" lon="5.45604">
        <ele>507.79998779297</ele>
        <time>2018-10-30T10:11:36.000Z</time>
      </trkpt>
      <trkpt lat="43.40635" lon="5.45603">
        <ele>507.60000610352</ele>
        <time>2018-10-30T10:11:40.000Z</time>
      </trkpt>
      <trkpt lat="43.40636" lon="5.45602">
        <ele>507.39999389648</ele>
        <time>2018-10-30T10:11:41.000Z</time>
      </trkpt>
      <trkpt lat="43.40638" lon="5.45601">
        <ele>507.20001220703</ele>
        <time>2018-10-30T10:11:43.000Z</time>
      </trkpt>
      <trkpt lat="43.40639" lon="5.456">
        <ele>507</ele>
        <time>2018-10-30T10:11:44.000Z</time>
      </trkpt>
      <trkpt lat="43.40643" lon="5.45599">
        <ele>506.60000610352</ele>
        <time>2018-10-30T10:11:48.000Z</time>
      </trkpt>
      <trkpt lat="43.40645" lon="5.45598">
        <ele>506.39999389648</ele>
        <time>2018-10-30T10:11:50.000Z</time>
      </trkpt>
      <trkpt lat="43.40646" lon="5.45597">
        <ele>506.20001220703</ele>
        <time>2018-10-30T10:11:51.000Z</time>
      </trkpt>
      <trkpt lat="43.40652" lon="5.45591">
        <ele>505.39999389648</ele>
        <time>2018-10-30T10:11:58.000Z</time>
      </trkpt>
      <trkpt lat="43.40655" lon="5.45588">
        <ele>504.79998779297</ele>
        <time>2018-10-30T10:12:03.000Z</time>
      </trkpt>
      <trkpt lat="43.40658" lon="5.45584">
        <ele>504.39999389648</ele>
        <time>2018-10-30T10:12:08.000Z</time>
      </trkpt>
      <trkpt lat="43.40659" lon="5.45584">
        <ele>504.20001220703</ele>
        <time>2018-10-30T10:12:11.000Z</time>
      </trkpt>
      <trkpt lat="43.40657" lon="5.45584">
        <ele>504.20001220703</ele>
        <time>2018-10-30T10:12:17.000Z</time>
      </trkpt>
      <trkpt lat="43.40655" lon="5.45587">
        <ele>504</ele>
        <time>2018-10-30T10:12:20.000Z</time>
      </trkpt>
      <trkpt lat="43.40654" lon="5.45586">
        <ele>504.39999389648</ele>
        <time>2018-10-30T10:12:23.000Z</time>
      </trkpt>
      <trkpt lat="43.40654" lon="5.45586">
        <ele>504.60000610352</ele>
        <time>2018-10-30T10:12:32.000Z</time>
      </trkpt>
      <trkpt lat="43.40656" lon="5.45584">
        <ele>504.60000610352</ele>
        <time>2018-10-30T10:12:44.000Z</time>
      </trkpt>
      <trkpt lat="43.40656" lon="5.45584">
        <ele>504.20001220703</ele>
        <time>2018-10-30T10:12:56.000Z</time>
      </trkpt>
      <trkpt lat="43.40656" lon="5.45584">
        <ele>504</ele>
        <time>2018-10-30T10:13:06.000Z</time>
      </trkpt>
      <trkpt lat="43.40658" lon="5.45584">
        <ele>504</ele>
        <time>2018-10-30T10:13:14.000Z</time>
      </trkpt>
      <trkpt lat="43.40663" lon="5.45578">
        <ele>503.60000610352</ele>
        <time>2018-10-30T10:13:22.000Z</time>
      </trkpt>
      <trkpt lat="43.40669" lon="5.45569">
        <ele>503.20001220703</ele>
        <time>2018-10-30T10:13:31.000Z</time>
      </trkpt>
      <trkpt lat="43.40671" lon="5.45564">
        <ele>503.20001220703</ele>
        <time>2018-10-30T10:13:35.000Z</time>
      </trkpt>
      <trkpt lat="43.40673" lon="5.4556">
        <ele>503</ele>
        <time>2018-10-30T10:13:38.000Z</time>
      </trkpt>
      <trkpt lat="43.40673" lon="5.45558">
        <ele>503</ele>
        <time>2018-10-30T10:13:39.000Z</time>
      </trkpt>
      <trkpt lat="43.40676" lon="5.4555">
        <ele>502.60000610352</ele>
        <time>2018-10-30T10:13:45.000Z</time>
      </trkpt>
      <trkpt lat="43.40678" lon="5.45538">
        <ele>502.20001220703</ele>
        <time>2018-10-30T10:13:52.000Z</time>
      </trkpt>
      <trkpt lat="43.40678" lon="5.45535">
        <ele>502</ele>
        <time>2018-10-30T10:13:54.000Z</time>
      </trkpt>
      <trkpt lat="43.40679" lon="5.45529">
        <ele>501.60000610352</ele>
        <time>2018-10-30T10:13:58.000Z</time>
      </trkpt>
      <trkpt lat="43.40679" lon="5.45518">
        <ele>501.20001220703</ele>
        <time>2018-10-30T10:14:06.000Z</time>
      </trkpt>
      <trkpt lat="43.40679" lon="5.45507">
        <ele>500.79998779297</ele>
        <time>2018-10-30T10:14:13.000Z</time>
      </trkpt>
      <trkpt lat="43.40678" lon="5.45504">
        <ele>500.79998779297</ele>
        <time>2018-10-30T10:14:15.000Z</time>
      </trkpt>
      <trkpt lat="43.40678" lon="5.45503">
        <ele>500.79998779297</ele>
        <time>2018-10-30T10:14:16.000Z</time>
      </trkpt>
      <trkpt lat="43.40676" lon="5.45495">
        <ele>500.60000610352</ele>
        <time>2018-10-30T10:14:21.000Z</time>
      </trkpt>
      <trkpt lat="43.40673" lon="5.45484">
        <ele>500</ele>
        <time>2018-10-30T10:14:29.000Z</time>
      </trkpt>
      <trkpt lat="43.40673" lon="5.4548">
        <ele>499.60000610352</ele>
        <time>2018-10-30T10:14:32.000Z</time>
      </trkpt>
      <trkpt lat="43.40672" lon="5.45476">
        <ele>499.20001220703</ele>
        <time>2018-10-30T10:14:35.000Z</time>
      </trkpt>
      <trkpt lat="43.40671" lon="5.45473">
        <ele>499</ele>
        <time>2018-10-30T10:14:38.000Z</time>
      </trkpt>
      <trkpt lat="43.4067" lon="5.45467">
        <ele>498.79998779297</ele>
        <time>2018-10-30T10:14:42.000Z</time>
      </trkpt>
      <trkpt lat="43.40669" lon="5.45461">
        <ele>498.39999389648</ele>
        <time>2018-10-30T10:14:46.000Z</time>
      </trkpt>
      <trkpt lat="43.40668" lon="5.45456">
        <ele>498</ele>
        <time>2018-10-30T10:14:49.000Z</time>
      </trkpt>
      <trkpt lat="43.40667" lon="5.45449">
        <ele>497.79998779297</ele>
        <time>2018-10-30T10:14:54.000Z</time>
      </trkpt>
      <trkpt lat="43.40667" lon="5.45446">
        <ele>497.60000610352</ele>
        <time>2018-10-30T10:14:56.000Z</time>
      </trkpt>
      <trkpt lat="43.40666" lon="5.45442">
        <ele>497.20001220703</ele>
        <time>2018-10-30T10:14:59.000Z</time>
      </trkpt>
      <trkpt lat="43.40665" lon="5.45435">
        <ele>496.79998779297</ele>
        <time>2018-10-30T10:15:04.000Z</time>
      </trkpt>
      <trkpt lat="43.40663" lon="5.45424">
        <ele>496.20001220703</ele>
        <time>2018-10-30T10:15:12.000Z</time>
      </trkpt>
      <trkpt lat="43.40661" lon="5.45414">
        <ele>495.79998779297</ele>
        <time>2018-10-30T10:15:19.000Z</time>
      </trkpt>
      <trkpt lat="43.40658" lon="5.45406">
        <ele>495.39999389648</ele>
        <time>2018-10-30T10:15:26.000Z</time>
      </trkpt>
      <trkpt lat="43.40656" lon="5.45403">
        <ele>495.20001220703</ele>
        <time>2018-10-30T10:15:28.000Z</time>
      </trkpt>
      <trkpt lat="43.40654" lon="5.45396">
        <ele>494.79998779297</ele>
        <time>2018-10-30T10:15:33.000Z</time>
      </trkpt>
      <trkpt lat="43.40651" lon="5.45388">
        <ele>494</ele>
        <time>2018-10-30T10:15:39.000Z</time>
      </trkpt>
      <trkpt lat="43.4065" lon="5.45387">
        <ele>494</ele>
        <time>2018-10-30T10:15:40.000Z</time>
      </trkpt>
      <trkpt lat="43.40648" lon="5.4538">
        <ele>494</ele>
        <time>2018-10-30T10:15:46.000Z</time>
      </trkpt>
      <trkpt lat="43.40645" lon="5.45369">
        <ele>493.60000610352</ele>
        <time>2018-10-30T10:15:53.000Z</time>
      </trkpt>
      <trkpt lat="43.40644" lon="5.45367">
        <ele>493.60000610352</ele>
        <time>2018-10-30T10:15:54.000Z</time>
      </trkpt>
      <trkpt lat="43.40642" lon="5.45362">
        <ele>492.79998779297</ele>
        <time>2018-10-30T10:15:58.000Z</time>
      </trkpt>
      <trkpt lat="43.40641" lon="5.45361">
        <ele>493</ele>
        <time>2018-10-30T10:15:59.000Z</time>
      </trkpt>
      <trkpt lat="43.4064" lon="5.45356">
        <ele>492</ele>
        <time>2018-10-30T10:16:03.000Z</time>
      </trkpt>
      <trkpt lat="43.40639" lon="5.45354">
        <ele>491.79998779297</ele>
        <time>2018-10-30T10:16:05.000Z</time>
      </trkpt>
      <trkpt lat="43.40638" lon="5.45352">
        <ele>491.60000610352</ele>
        <time>2018-10-30T10:16:06.000Z</time>
      </trkpt>
      <trkpt lat="43.40634" lon="5.45345">
        <ele>490.60000610352</ele>
        <time>2018-10-30T10:16:12.000Z</time>
      </trkpt>
      <trkpt lat="43.40632" lon="5.45344">
        <ele>490.39999389648</ele>
        <time>2018-10-30T10:16:14.000Z</time>
      </trkpt>
      <trkpt lat="43.4063" lon="5.45339">
        <ele>490</ele>
        <time>2018-10-30T10:16:18.000Z</time>
      </trkpt>
      <trkpt lat="43.40627" lon="5.45336">
        <ele>489.79998779297</ele>
        <time>2018-10-30T10:16:21.000Z</time>
      </trkpt>
      <trkpt lat="43.40625" lon="5.45334">
        <ele>489.60000610352</ele>
        <time>2018-10-30T10:16:23.000Z</time>
      </trkpt>
      <trkpt lat="43.40623" lon="5.45331">
        <ele>489.39999389648</ele>
        <time>2018-10-30T10:16:26.000Z</time>
      </trkpt>
      <trkpt lat="43.40622" lon="5.4533">
        <ele>489.39999389648</ele>
        <time>2018-10-30T10:16:27.000Z</time>
      </trkpt>
      <trkpt lat="43.40618" lon="5.45324">
        <ele>488.79998779297</ele>
        <time>2018-10-30T10:16:34.000Z</time>
      </trkpt>
      <trkpt lat="43.40617" lon="5.45322">
        <ele>488.79998779297</ele>
        <time>2018-10-30T10:16:36.000Z</time>
      </trkpt>
      <trkpt lat="43.40613" lon="5.45318">
        <ele>488.39999389648</ele>
        <time>2018-10-30T10:16:40.000Z</time>
      </trkpt>
      <trkpt lat="43.40613" lon="5.45317">
        <ele>488.39999389648</ele>
        <time>2018-10-30T10:16:41.000Z</time>
      </trkpt>
      <trkpt lat="43.40607" lon="5.45308">
        <ele>488.20001220703</ele>
        <time>2018-10-30T10:16:49.000Z</time>
      </trkpt>
      <trkpt lat="43.40603" lon="5.45298">
        <ele>487.79998779297</ele>
        <time>2018-10-30T10:16:55.000Z</time>
      </trkpt>
      <trkpt lat="43.40602" lon="5.45295">
        <ele>487.39999389648</ele>
        <time>2018-10-30T10:16:57.000Z</time>
      </trkpt>
      <trkpt lat="43.40602" lon="5.45289">
        <ele>486.60000610352</ele>
        <time>2018-10-30T10:17:02.000Z</time>
      </trkpt>
      <trkpt lat="43.40602" lon="5.45288">
        <ele>486.39999389648</ele>
        <time>2018-10-30T10:17:03.000Z</time>
      </trkpt>
      <trkpt lat="43.40604" lon="5.4528">
        <ele>486</ele>
        <time>2018-10-30T10:17:08.000Z</time>
      </trkpt>
      <trkpt lat="43.40604" lon="5.45276">
        <ele>485.20001220703</ele>
        <time>2018-10-30T10:17:11.000Z</time>
      </trkpt>
      <trkpt lat="43.40605" lon="5.45274">
        <ele>484.79998779297</ele>
        <time>2018-10-30T10:17:13.000Z</time>
      </trkpt>
      <trkpt lat="43.40605" lon="5.45272">
        <ele>484.60000610352</ele>
        <time>2018-10-30T10:17:15.000Z</time>
      </trkpt>
      <trkpt lat="43.40608" lon="5.45266">
        <ele>484.20001220703</ele>
        <time>2018-10-30T10:17:21.000Z</time>
      </trkpt>
      <trkpt lat="43.4061" lon="5.45264">
        <ele>483.79998779297</ele>
        <time>2018-10-30T10:17:24.000Z</time>
      </trkpt>
      <trkpt lat="43.40612" lon="5.45257">
        <ele>483.60000610352</ele>
        <time>2018-10-30T10:17:29.000Z</time>
      </trkpt>
      <trkpt lat="43.40616" lon="5.45246">
        <ele>483.39999389648</ele>
        <time>2018-10-30T10:17:37.000Z</time>
      </trkpt>
      <trkpt lat="43.40619" lon="5.45238">
        <ele>483</ele>
        <time>2018-10-30T10:17:44.000Z</time>
      </trkpt>
      <trkpt lat="43.4062" lon="5.45236">
        <ele>482.79998779297</ele>
        <time>2018-10-30T10:17:46.000Z</time>
      </trkpt>
      <trkpt lat="43.40623" lon="5.45229">
        <ele>482.39999389648</ele>
        <time>2018-10-30T10:17:51.000Z</time>
      </trkpt>
      <trkpt lat="43.40625" lon="5.45221">
        <ele>482</ele>
        <time>2018-10-30T10:17:57.000Z</time>
      </trkpt>
      <trkpt lat="43.40626" lon="5.45218">
        <ele>481.60000610352</ele>
        <time>2018-10-30T10:17:59.000Z</time>
      </trkpt>
      <trkpt lat="43.40629" lon="5.45211">
        <ele>481.20001220703</ele>
        <time>2018-10-30T10:18:05.000Z</time>
      </trkpt>
      <trkpt lat="43.40631" lon="5.45199">
        <ele>480.60000610352</ele>
        <time>2018-10-30T10:18:13.000Z</time>
      </trkpt>
      <trkpt lat="43.40632" lon="5.45195">
        <ele>480.39999389648</ele>
        <time>2018-10-30T10:18:16.000Z</time>
      </trkpt>
      <trkpt lat="43.40633" lon="5.45191">
        <ele>480</ele>
        <time>2018-10-30T10:18:19.000Z</time>
      </trkpt>
      <trkpt lat="43.40633" lon="5.45188">
        <ele>480</ele>
        <time>2018-10-30T10:18:21.000Z</time>
      </trkpt>
      <trkpt lat="43.40633" lon="5.45179">
        <ele>479.39999389648</ele>
        <time>2018-10-30T10:18:27.000Z</time>
      </trkpt>
      <trkpt lat="43.40632" lon="5.4517">
        <ele>478.79998779297</ele>
        <time>2018-10-30T10:18:34.000Z</time>
      </trkpt>
      <trkpt lat="43.40632" lon="5.45164">
        <ele>478.39999389648</ele>
        <time>2018-10-30T10:18:38.000Z</time>
      </trkpt>
      <trkpt lat="43.40632" lon="5.45162">
        <ele>478.20001220703</ele>
        <time>2018-10-30T10:18:40.000Z</time>
      </trkpt>
      <trkpt lat="43.40631" lon="5.45157">
        <ele>478</ele>
        <time>2018-10-30T10:18:46.000Z</time>
      </trkpt>
      <trkpt lat="43.40631" lon="5.45153">
        <ele>477.79998779297</ele>
        <time>2018-10-30T10:18:53.000Z</time>
      </trkpt>
      <trkpt lat="43.40632" lon="5.45144">
        <ele>477.60000610352</ele>
        <time>2018-10-30T10:19:00.000Z</time>
      </trkpt>
      <trkpt lat="43.40633" lon="5.45141">
        <ele>477.20001220703</ele>
        <time>2018-10-30T10:19:02.000Z</time>
      </trkpt>
      <trkpt lat="43.40635" lon="5.45136">
        <ele>477.20001220703</ele>
        <time>2018-10-30T10:19:06.000Z</time>
      </trkpt>
      <trkpt lat="43.40636" lon="5.45132">
        <ele>477</ele>
        <time>2018-10-30T10:19:09.000Z</time>
      </trkpt>
      <trkpt lat="43.4064" lon="5.45127">
        <ele>476.79998779297</ele>
        <time>2018-10-30T10:19:14.000Z</time>
      </trkpt>
      <trkpt lat="43.40645" lon="5.45123">
        <ele>476.60000610352</ele>
        <time>2018-10-30T10:19:20.000Z</time>
      </trkpt>
      <trkpt lat="43.40646" lon="5.45123">
        <ele>476.39999389648</ele>
        <time>2018-10-30T10:19:21.000Z</time>
      </trkpt>
      <trkpt lat="43.4065" lon="5.4512">
        <ele>476.20001220703</ele>
        <time>2018-10-30T10:19:26.000Z</time>
      </trkpt>
      <trkpt lat="43.40652" lon="5.45119">
        <ele>476.20001220703</ele>
        <time>2018-10-30T10:19:28.000Z</time>
      </trkpt>
      <trkpt lat="43.40658" lon="5.45118">
        <ele>475.39999389648</ele>
        <time>2018-10-30T10:19:34.000Z</time>
      </trkpt>
      <trkpt lat="43.4066" lon="5.45117">
        <ele>475</ele>
        <time>2018-10-30T10:19:36.000Z</time>
      </trkpt>
      <trkpt lat="43.40666" lon="5.45116">
        <ele>474.60000610352</ele>
        <time>2018-10-30T10:19:41.000Z</time>
      </trkpt>
      <trkpt lat="43.40668" lon="5.45118">
        <ele>474.20001220703</ele>
        <time>2018-10-30T10:19:46.000Z</time>
      </trkpt>
      <trkpt lat="43.40668" lon="5.45117">
        <ele>474.20001220703</ele>
        <time>2018-10-30T10:19:56.000Z</time>
      </trkpt>
      <trkpt lat="43.40668" lon="5.45116">
        <ele>474</ele>
        <time>2018-10-30T10:19:59.000Z</time>
      </trkpt>
      <trkpt lat="43.40671" lon="5.45113">
        <ele>474</ele>
        <time>2018-10-30T10:20:02.000Z</time>
      </trkpt>
      <trkpt lat="43.40672" lon="5.45112">
        <ele>473.79998779297</ele>
        <time>2018-10-30T10:20:04.000Z</time>
      </trkpt>
      <trkpt lat="43.40675" lon="5.4511">
        <ele>473.39999389648</ele>
        <time>2018-10-30T10:20:07.000Z</time>
      </trkpt>
      <trkpt lat="43.40681" lon="5.45106">
        <ele>473</ele>
        <time>2018-10-30T10:20:13.000Z</time>
      </trkpt>
      <trkpt lat="43.40682" lon="5.45106">
        <ele>472.79998779297</ele>
        <time>2018-10-30T10:20:14.000Z</time>
      </trkpt>
      <trkpt lat="43.40688" lon="5.451">
        <ele>472.39999389648</ele>
        <time>2018-10-30T10:20:20.000Z</time>
      </trkpt>
      <trkpt lat="43.40694" lon="5.45096">
        <ele>471.79998779297</ele>
        <time>2018-10-30T10:20:26.000Z</time>
      </trkpt>
      <trkpt lat="43.40695" lon="5.45096">
        <ele>471.79998779297</ele>
        <time>2018-10-30T10:20:27.000Z</time>
      </trkpt>
      <trkpt lat="43.40699" lon="5.45093">
        <ele>471.39999389648</ele>
        <time>2018-10-30T10:20:31.000Z</time>
      </trkpt>
      <trkpt lat="43.40701" lon="5.45092">
        <ele>471.20001220703</ele>
        <time>2018-10-30T10:20:33.000Z</time>
      </trkpt>
      <trkpt lat="43.40705" lon="5.45089">
        <ele>470.79998779297</ele>
        <time>2018-10-30T10:20:38.000Z</time>
      </trkpt>
      <trkpt lat="43.40706" lon="5.45088">
        <ele>470.60000610352</ele>
        <time>2018-10-30T10:20:39.000Z</time>
      </trkpt>
      <trkpt lat="43.40713" lon="5.45084">
        <ele>469.79998779297</ele>
        <time>2018-10-30T10:20:46.000Z</time>
      </trkpt>
      <trkpt lat="43.40714" lon="5.45083">
        <ele>469.39999389648</ele>
        <time>2018-10-30T10:20:48.000Z</time>
      </trkpt>
      <trkpt lat="43.40717" lon="5.45082">
        <ele>469</ele>
        <time>2018-10-30T10:20:50.000Z</time>
      </trkpt>
      <trkpt lat="43.40719" lon="5.4508">
        <ele>468.79998779297</ele>
        <time>2018-10-30T10:20:53.000Z</time>
      </trkpt>
      <trkpt lat="43.40725" lon="5.45074">
        <ele>468.39999389648</ele>
        <time>2018-10-30T10:20:59.000Z</time>
      </trkpt>
      <trkpt lat="43.40726" lon="5.45073">
        <ele>468.39999389648</ele>
        <time>2018-10-30T10:21:00.000Z</time>
      </trkpt>
      <trkpt lat="43.40731" lon="5.45067">
        <ele>467.79998779297</ele>
        <time>2018-10-30T10:21:07.000Z</time>
      </trkpt>
      <trkpt lat="43.40736" lon="5.45062">
        <ele>467.39999389648</ele>
        <time>2018-10-30T10:21:12.000Z</time>
      </trkpt>
      <trkpt lat="43.40737" lon="5.4506">
        <ele>467.20001220703</ele>
        <time>2018-10-30T10:21:14.000Z</time>
      </trkpt>
      <trkpt lat="43.40745" lon="5.45052">
        <ele>466.20001220703</ele>
        <time>2018-10-30T10:21:23.000Z</time>
      </trkpt>
      <trkpt lat="43.40745" lon="5.45051">
        <ele>466.20001220703</ele>
        <time>2018-10-30T10:21:24.000Z</time>
      </trkpt>
      <trkpt lat="43.40746" lon="5.45049">
        <ele>466</ele>
        <time>2018-10-30T10:21:25.000Z</time>
      </trkpt>
      <trkpt lat="43.4075" lon="5.45044">
        <ele>465.39999389648</ele>
        <time>2018-10-30T10:21:30.000Z</time>
      </trkpt>
      <trkpt lat="43.40753" lon="5.45042">
        <ele>465</ele>
        <time>2018-10-30T10:21:33.000Z</time>
      </trkpt>
      <trkpt lat="43.40756" lon="5.45038">
        <ele>464.60000610352</ele>
        <time>2018-10-30T10:21:37.000Z</time>
      </trkpt>
      <trkpt lat="43.40759" lon="5.45034">
        <ele>464</ele>
        <time>2018-10-30T10:21:41.000Z</time>
      </trkpt>
      <trkpt lat="43.4076" lon="5.45033">
        <ele>464</ele>
        <time>2018-10-30T10:21:42.000Z</time>
      </trkpt>
      <trkpt lat="43.40765" lon="5.45026">
        <ele>462.79998779297</ele>
        <time>2018-10-30T10:21:49.000Z</time>
      </trkpt>
      <trkpt lat="43.40766" lon="5.45025">
        <ele>462.60000610352</ele>
        <time>2018-10-30T10:21:50.000Z</time>
      </trkpt>
      <trkpt lat="43.40767" lon="5.45025">
        <ele>462.39999389648</ele>
        <time>2018-10-30T10:21:51.000Z</time>
      </trkpt>
      <trkpt lat="43.4077" lon="5.45022">
        <ele>462</ele>
        <time>2018-10-30T10:21:54.000Z</time>
      </trkpt>
      <trkpt lat="43.4077" lon="5.45021">
        <ele>461.79998779297</ele>
        <time>2018-10-30T10:21:55.000Z</time>
      </trkpt>
      <trkpt lat="43.40775" lon="5.45015">
        <ele>460.60000610352</ele>
        <time>2018-10-30T10:22:01.000Z</time>
      </trkpt>
      <trkpt lat="43.40776" lon="5.45013">
        <ele>460.20001220703</ele>
        <time>2018-10-30T10:22:07.000Z</time>
      </trkpt>
      <trkpt lat="43.40776" lon="5.45013">
        <ele>460</ele>
        <time>2018-10-30T10:22:08.000Z</time>
      </trkpt>
      <trkpt lat="43.40777" lon="5.4501">
        <ele>460</ele>
        <time>2018-10-30T10:22:20.000Z</time>
      </trkpt>
      <trkpt lat="43.40781" lon="5.45003">
        <ele>459.39999389648</ele>
        <time>2018-10-30T10:22:26.000Z</time>
      </trkpt>
      <trkpt lat="43.40781" lon="5.45002">
        <ele>459.20001220703</ele>
        <time>2018-10-30T10:22:27.000Z</time>
      </trkpt>
      <trkpt lat="43.40785" lon="5.44995">
        <ele>458.20001220703</ele>
        <time>2018-10-30T10:22:34.000Z</time>
      </trkpt>
      <trkpt lat="43.40786" lon="5.44994">
        <ele>458</ele>
        <time>2018-10-30T10:22:35.000Z</time>
      </trkpt>
      <trkpt lat="43.40786" lon="5.44993">
        <ele>458</ele>
        <time>2018-10-30T10:22:36.000Z</time>
      </trkpt>
      <trkpt lat="43.40789" lon="5.44988">
        <ele>457.39999389648</ele>
        <time>2018-10-30T10:22:41.000Z</time>
      </trkpt>
      <trkpt lat="43.40791" lon="5.44983">
        <ele>457</ele>
        <time>2018-10-30T10:22:45.000Z</time>
      </trkpt>
      <trkpt lat="43.40792" lon="5.4498">
        <ele>456.79998779297</ele>
        <time>2018-10-30T10:22:48.000Z</time>
      </trkpt>
      <trkpt lat="43.40795" lon="5.44971">
        <ele>456.39999389648</ele>
        <time>2018-10-30T10:22:55.000Z</time>
      </trkpt>
      <trkpt lat="43.40796" lon="5.44963">
        <ele>456</ele>
        <time>2018-10-30T10:23:01.000Z</time>
      </trkpt>
      <trkpt lat="43.40796" lon="5.44962">
        <ele>455.79998779297</ele>
        <time>2018-10-30T10:23:02.000Z</time>
      </trkpt>
      <trkpt lat="43.40797" lon="5.44953">
        <ele>454.79998779297</ele>
        <time>2018-10-30T10:23:08.000Z</time>
      </trkpt>
      <trkpt lat="43.40798" lon="5.44943">
        <ele>453.79998779297</ele>
        <time>2018-10-30T10:23:15.000Z</time>
      </trkpt>
      <trkpt lat="43.40798" lon="5.44942">
        <ele>453.39999389648</ele>
        <time>2018-10-30T10:23:16.000Z</time>
      </trkpt>
      <trkpt lat="43.40799" lon="5.44939">
        <ele>453</ele>
        <time>2018-10-30T10:23:19.000Z</time>
      </trkpt>
      <trkpt lat="43.40799" lon="5.44935">
        <ele>452.79998779297</ele>
        <time>2018-10-30T10:23:22.000Z</time>
      </trkpt>
      <trkpt lat="43.40799" lon="5.44933">
        <ele>452.60000610352</ele>
        <time>2018-10-30T10:23:23.000Z</time>
      </trkpt>
      <trkpt lat="43.40799" lon="5.4493">
        <ele>452</ele>
        <time>2018-10-30T10:23:29.000Z</time>
      </trkpt>
      <trkpt lat="43.40798" lon="5.44929">
        <ele>451.60000610352</ele>
        <time>2018-10-30T10:23:35.000Z</time>
      </trkpt>
      <trkpt lat="43.40798" lon="5.44929">
        <ele>451.60000610352</ele>
        <time>2018-10-30T10:23:36.000Z</time>
      </trkpt>
      <trkpt lat="43.40797" lon="5.44929">
        <ele>451.20001220703</ele>
        <time>2018-10-30T10:23:43.000Z</time>
      </trkpt>
      <trkpt lat="43.40797" lon="5.44929">
        <ele>451.20001220703</ele>
        <time>2018-10-30T10:23:53.000Z</time>
      </trkpt>
      <trkpt lat="43.40797" lon="5.44929">
        <ele>451.39999389648</ele>
        <time>2018-10-30T10:24:07.000Z</time>
      </trkpt>
      <trkpt lat="43.40798" lon="5.44929">
        <ele>451.39999389648</ele>
        <time>2018-10-30T10:24:15.000Z</time>
      </trkpt>
      <trkpt lat="43.40799" lon="5.44927">
        <ele>451.20001220703</ele>
        <time>2018-10-30T10:24:25.000Z</time>
      </trkpt>
      <trkpt lat="43.40801" lon="5.44918">
        <ele>450.20001220703</ele>
        <time>2018-10-30T10:24:31.000Z</time>
      </trkpt>
      <trkpt lat="43.40801" lon="5.44913">
        <ele>450</ele>
        <time>2018-10-30T10:24:34.000Z</time>
      </trkpt>
      <trkpt lat="43.40802" lon="5.44907">
        <ele>449.39999389648</ele>
        <time>2018-10-30T10:24:38.000Z</time>
      </trkpt>
      <trkpt lat="43.40802" lon="5.44904">
        <ele>449.20001220703</ele>
        <time>2018-10-30T10:24:40.000Z</time>
      </trkpt>
      <trkpt lat="43.40803" lon="5.44897">
        <ele>448.60000610352</ele>
        <time>2018-10-30T10:24:44.000Z</time>
      </trkpt>
      <trkpt lat="43.40803" lon="5.44894">
        <ele>448.20001220703</ele>
        <time>2018-10-30T10:24:46.000Z</time>
      </trkpt>
      <trkpt lat="43.40806" lon="5.44887">
        <ele>448</ele>
        <time>2018-10-30T10:24:51.000Z</time>
      </trkpt>
      <trkpt lat="43.40807" lon="5.44884">
        <ele>447.79998779297</ele>
        <time>2018-10-30T10:24:54.000Z</time>
      </trkpt>
      <trkpt lat="43.40808" lon="5.4488">
        <ele>447.79998779297</ele>
        <time>2018-10-30T10:24:57.000Z</time>
      </trkpt>
      <trkpt lat="43.4081" lon="5.44872">
        <ele>447</ele>
        <time>2018-10-30T10:25:03.000Z</time>
      </trkpt>
      <trkpt lat="43.4081" lon="5.4487">
        <ele>447</ele>
        <time>2018-10-30T10:25:04.000Z</time>
      </trkpt>
      <trkpt lat="43.4081" lon="5.44869">
        <ele>446.79998779297</ele>
        <time>2018-10-30T10:25:05.000Z</time>
      </trkpt>
      <trkpt lat="43.40812" lon="5.4486">
        <ele>445.79998779297</ele>
        <time>2018-10-30T10:25:11.000Z</time>
      </trkpt>
      <trkpt lat="43.40813" lon="5.44849">
        <ele>444.60000610352</ele>
        <time>2018-10-30T10:25:18.000Z</time>
      </trkpt>
      <trkpt lat="43.40815" lon="5.44836">
        <ele>443.39999389648</ele>
        <time>2018-10-30T10:25:27.000Z</time>
      </trkpt>
      <trkpt lat="43.40817" lon="5.44827">
        <ele>442.79998779297</ele>
        <time>2018-10-30T10:25:33.000Z</time>
      </trkpt>
      <trkpt lat="43.40818" lon="5.44821">
        <ele>442.20001220703</ele>
        <time>2018-10-30T10:25:37.000Z</time>
      </trkpt>
      <trkpt lat="43.40819" lon="5.44818">
        <ele>442</ele>
        <time>2018-10-30T10:25:39.000Z</time>
      </trkpt>
      <trkpt lat="43.40821" lon="5.4481">
        <ele>441.20001220703</ele>
        <time>2018-10-30T10:25:44.000Z</time>
      </trkpt>
      <trkpt lat="43.40821" lon="5.44809">
        <ele>441.20001220703</ele>
        <time>2018-10-30T10:25:45.000Z</time>
      </trkpt>
      <trkpt lat="43.40822" lon="5.44806">
        <ele>441</ele>
        <time>2018-10-30T10:25:47.000Z</time>
      </trkpt>
      <trkpt lat="43.40823" lon="5.44799">
        <ele>440.20001220703</ele>
        <time>2018-10-30T10:25:54.000Z</time>
      </trkpt>
      <trkpt lat="43.40824" lon="5.44794">
        <ele>440.20001220703</ele>
        <time>2018-10-30T10:25:58.000Z</time>
      </trkpt>
      <trkpt lat="43.40823" lon="5.44791">
        <ele>440.20001220703</ele>
        <time>2018-10-30T10:26:00.000Z</time>
      </trkpt>
      <trkpt lat="43.40823" lon="5.4478">
        <ele>440.20001220703</ele>
        <time>2018-10-30T10:26:07.000Z</time>
      </trkpt>
      <trkpt lat="43.40823" lon="5.44768">
        <ele>440</ele>
        <time>2018-10-30T10:26:14.000Z</time>
      </trkpt>
      <trkpt lat="43.40823" lon="5.44766">
        <ele>440</ele>
        <time>2018-10-30T10:26:15.000Z</time>
      </trkpt>
      <trkpt lat="43.40822" lon="5.44755">
        <ele>440</ele>
        <time>2018-10-30T10:26:22.000Z</time>
      </trkpt>
      <trkpt lat="43.40821" lon="5.4475">
        <ele>439.79998779297</ele>
        <time>2018-10-30T10:26:25.000Z</time>
      </trkpt>
      <trkpt lat="43.4082" lon="5.44744">
        <ele>439.39999389648</ele>
        <time>2018-10-30T10:26:29.000Z</time>
      </trkpt>
      <trkpt lat="43.40818" lon="5.4473">
        <ele>439</ele>
        <time>2018-10-30T10:26:38.000Z</time>
      </trkpt>
      <trkpt lat="43.40818" lon="5.44729">
        <ele>438.60000610352</ele>
        <time>2018-10-30T10:26:39.000Z</time>
      </trkpt>
      <trkpt lat="43.40817" lon="5.44721">
        <ele>438</ele>
        <time>2018-10-30T10:26:45.000Z</time>
      </trkpt>
      <trkpt lat="43.40816" lon="5.44715">
        <ele>438</ele>
        <time>2018-10-30T10:26:49.000Z</time>
      </trkpt>
      <trkpt lat="43.40816" lon="5.44712">
        <ele>438</ele>
        <time>2018-10-30T10:26:51.000Z</time>
      </trkpt>
      <trkpt lat="43.40814" lon="5.447">
        <ele>437.60000610352</ele>
        <time>2018-10-30T10:26:59.000Z</time>
      </trkpt>
      <trkpt lat="43.40816" lon="5.4469">
        <ele>437</ele>
        <time>2018-10-30T10:27:07.000Z</time>
      </trkpt>
      <trkpt lat="43.40816" lon="5.4469">
        <ele>436.79998779297</ele>
        <time>2018-10-30T10:27:19.000Z</time>
      </trkpt>
      <trkpt lat="43.40816" lon="5.4469">
        <ele>436.79998779297</ele>
        <time>2018-10-30T10:27:37.000Z</time>
      </trkpt>
      <trkpt lat="43.40816" lon="5.4469">
        <ele>436.60000610352</ele>
        <time>2018-10-30T10:27:41.000Z</time>
      </trkpt>
      <trkpt lat="43.40816" lon="5.4469">
        <ele>436.60000610352</ele>
        <time>2018-10-30T10:27:42.000Z</time>
      </trkpt>
      <trkpt lat="43.40816" lon="5.4469">
        <ele>437</ele>
        <time>2018-10-30T10:27:53.000Z</time>
      </trkpt>
      <trkpt lat="43.40816" lon="5.44691">
        <ele>437.20001220703</ele>
        <time>2018-10-30T10:28:02.000Z</time>
      </trkpt>
      <trkpt lat="43.40817" lon="5.44689">
        <ele>437</ele>
        <time>2018-10-30T10:28:11.000Z</time>
      </trkpt>
      <trkpt lat="43.4082" lon="5.44684">
        <ele>436.20001220703</ele>
        <time>2018-10-30T10:28:16.000Z</time>
      </trkpt>
      <trkpt lat="43.40827" lon="5.44677">
        <ele>435.20001220703</ele>
        <time>2018-10-30T10:28:22.000Z</time>
      </trkpt>
      <trkpt lat="43.40828" lon="5.44677">
        <ele>435</ele>
        <time>2018-10-30T10:28:23.000Z</time>
      </trkpt>
      <trkpt lat="43.40834" lon="5.44673">
        <ele>434.20001220703</ele>
        <time>2018-10-30T10:28:28.000Z</time>
      </trkpt>
      <trkpt lat="43.40836" lon="5.44671">
        <ele>433.79998779297</ele>
        <time>2018-10-30T10:28:30.000Z</time>
      </trkpt>
      <trkpt lat="43.40837" lon="5.44671">
        <ele>433.79998779297</ele>
        <time>2018-10-30T10:28:31.000Z</time>
      </trkpt>
      <trkpt lat="43.40841" lon="5.44664">
        <ele>433.20001220703</ele>
        <time>2018-10-30T10:28:36.000Z</time>
      </trkpt>
      <trkpt lat="43.40847" lon="5.44656">
        <ele>432.60000610352</ele>
        <time>2018-10-30T10:28:43.000Z</time>
      </trkpt>
      <trkpt lat="43.4085" lon="5.4465">
        <ele>432</ele>
        <time>2018-10-30T10:28:48.000Z</time>
      </trkpt>
      <trkpt lat="43.40851" lon="5.44649">
        <ele>431.79998779297</ele>
        <time>2018-10-30T10:28:49.000Z</time>
      </trkpt>
      <trkpt lat="43.40851" lon="5.44649">
        <ele>431</ele>
        <time>2018-10-30T10:28:56.000Z</time>
      </trkpt>
      <trkpt lat="43.40851" lon="5.44649">
        <ele>431</ele>
        <time>2018-10-30T10:29:12.000Z</time>
      </trkpt>
      <trkpt lat="43.40851" lon="5.44649">
        <ele>431</ele>
        <time>2018-10-30T10:29:22.000Z</time>
      </trkpt>
      <trkpt lat="43.40851" lon="5.44649">
        <ele>431.20001220703</ele>
        <time>2018-10-30T10:29:36.000Z</time>
      </trkpt>
      <trkpt lat="43.40851" lon="5.44649">
        <ele>431.20001220703</ele>
        <time>2018-10-30T10:29:48.000Z</time>
      </trkpt>
      <trkpt lat="43.40851" lon="5.44649">
        <ele>431.20001220703</ele>
        <time>2018-10-30T10:30:05.000Z</time>
      </trkpt>
      <trkpt lat="43.40851" lon="5.44648">
        <ele>431.20001220703</ele>
        <time>2018-10-30T10:30:18.000Z</time>
      </trkpt>
      <trkpt lat="43.40851" lon="5.44647">
        <ele>431.20001220703</ele>
        <time>2018-10-30T10:30:19.000Z</time>
      </trkpt>
      <trkpt lat="43.40853" lon="5.44643">
        <ele>431</ele>
        <time>2018-10-30T10:30:22.000Z</time>
      </trkpt>
      <trkpt lat="43.40856" lon="5.44639">
        <ele>430.79998779297</ele>
        <time>2018-10-30T10:30:25.000Z</time>
      </trkpt>
      <trkpt lat="43.40856" lon="5.44638">
        <ele>430.60000610352</ele>
        <time>2018-10-30T10:30:26.000Z</time>
      </trkpt>
      <trkpt lat="43.40857" lon="5.44637">
        <ele>430.60000610352</ele>
        <time>2018-10-30T10:30:27.000Z</time>
      </trkpt>
      <trkpt lat="43.40859" lon="5.44631">
        <ele>430.20001220703</ele>
        <time>2018-10-30T10:30:31.000Z</time>
      </trkpt>
      <trkpt lat="43.40861" lon="5.44627">
        <ele>429.60000610352</ele>
        <time>2018-10-30T10:30:34.000Z</time>
      </trkpt>
      <trkpt lat="43.40862" lon="5.44624">
        <ele>429.39999389648</ele>
        <time>2018-10-30T10:30:36.000Z</time>
      </trkpt>
      <trkpt lat="43.40863" lon="5.44621">
        <ele>429.39999389648</ele>
        <time>2018-10-30T10:30:38.000Z</time>
      </trkpt>
      <trkpt lat="43.40865" lon="5.44615">
        <ele>428.79998779297</ele>
        <time>2018-10-30T10:30:43.000Z</time>
      </trkpt>
      <trkpt lat="43.40868" lon="5.44606">
        <ele>428.39999389648</ele>
        <time>2018-10-30T10:30:50.000Z</time>
      </trkpt>
      <trkpt lat="43.40871" lon="5.44597">
        <ele>428.20001220703</ele>
        <time>2018-10-30T10:30:56.000Z</time>
      </trkpt>
      <trkpt lat="43.40871" lon="5.44593">
        <ele>427.60000610352</ele>
        <time>2018-10-30T10:31:02.000Z</time>
      </trkpt>
      <trkpt lat="43.40872" lon="5.44589">
        <ele>427.60000610352</ele>
        <time>2018-10-30T10:31:05.000Z</time>
      </trkpt>
      <trkpt lat="43.40872" lon="5.44586">
        <ele>427.39999389648</ele>
        <time>2018-10-30T10:31:08.000Z</time>
      </trkpt>
      <trkpt lat="43.40873" lon="5.44578">
        <ele>427.39999389648</ele>
        <time>2018-10-30T10:31:14.000Z</time>
      </trkpt>
      <trkpt lat="43.40873" lon="5.44574">
        <ele>427.20001220703</ele>
        <time>2018-10-30T10:31:17.000Z</time>
      </trkpt>
      <trkpt lat="43.40873" lon="5.44567">
        <ele>426.39999389648</ele>
        <time>2018-10-30T10:31:21.000Z</time>
      </trkpt>
      <trkpt lat="43.40873" lon="5.44561">
        <ele>426.20001220703</ele>
        <time>2018-10-30T10:31:25.000Z</time>
      </trkpt>
      <trkpt lat="43.40873" lon="5.44558">
        <ele>425.79998779297</ele>
        <time>2018-10-30T10:31:27.000Z</time>
      </trkpt>
      <trkpt lat="43.40873" lon="5.4455">
        <ele>425.39999389648</ele>
        <time>2018-10-30T10:31:33.000Z</time>
      </trkpt>
      <trkpt lat="43.40873" lon="5.44546">
        <ele>425</ele>
        <time>2018-10-30T10:31:36.000Z</time>
      </trkpt>
      <trkpt lat="43.40873" lon="5.44541">
        <ele>424.60000610352</ele>
        <time>2018-10-30T10:31:39.000Z</time>
      </trkpt>
      <trkpt lat="43.40873" lon="5.4454">
        <ele>424.39999389648</ele>
        <time>2018-10-30T10:31:40.000Z</time>
      </trkpt>
      <trkpt lat="43.40873" lon="5.44535">
        <ele>424</ele>
        <time>2018-10-30T10:31:43.000Z</time>
      </trkpt>
      <trkpt lat="43.40874" lon="5.44532">
        <ele>423.39999389648</ele>
        <time>2018-10-30T10:31:45.000Z</time>
      </trkpt>
      <trkpt lat="43.40875" lon="5.44526">
        <ele>422.60000610352</ele>
        <time>2018-10-30T10:31:50.000Z</time>
      </trkpt>
      <trkpt lat="43.40876" lon="5.44524">
        <ele>422.39999389648</ele>
        <time>2018-10-30T10:31:51.000Z</time>
      </trkpt>
      <trkpt lat="43.40878" lon="5.44517">
        <ele>421.79998779297</ele>
        <time>2018-10-30T10:31:56.000Z</time>
      </trkpt>
      <trkpt lat="43.40879" lon="5.44514">
        <ele>421.60000610352</ele>
        <time>2018-10-30T10:31:58.000Z</time>
      </trkpt>
      <trkpt lat="43.40881" lon="5.4451">
        <ele>421.39999389648</ele>
        <time>2018-10-30T10:32:01.000Z</time>
      </trkpt>
      <trkpt lat="43.40881" lon="5.44509">
        <ele>421.20001220703</ele>
        <time>2018-10-30T10:32:02.000Z</time>
      </trkpt>
      <trkpt lat="43.40884" lon="5.44501">
        <ele>420.79998779297</ele>
        <time>2018-10-30T10:32:08.000Z</time>
      </trkpt>
      <trkpt lat="43.40885" lon="5.44498">
        <ele>420.39999389648</ele>
        <time>2018-10-30T10:32:10.000Z</time>
      </trkpt>
      <trkpt lat="43.40887" lon="5.4449">
        <ele>419.39999389648</ele>
        <time>2018-10-30T10:32:15.000Z</time>
      </trkpt>
      <trkpt lat="43.40887" lon="5.44489">
        <ele>419.39999389648</ele>
        <time>2018-10-30T10:32:16.000Z</time>
      </trkpt>
      <trkpt lat="43.40889" lon="5.4448">
        <ele>418.79998779297</ele>
        <time>2018-10-30T10:32:22.000Z</time>
      </trkpt>
      <trkpt lat="43.40891" lon="5.44474">
        <ele>418.20001220703</ele>
        <time>2018-10-30T10:32:26.000Z</time>
      </trkpt>
      <trkpt lat="43.40892" lon="5.44471">
        <ele>418</ele>
        <time>2018-10-30T10:32:28.000Z</time>
      </trkpt>
      <trkpt lat="43.40894" lon="5.44461">
        <ele>417.20001220703</ele>
        <time>2018-10-30T10:32:36.000Z</time>
      </trkpt>
      <trkpt lat="43.40895" lon="5.44459">
        <ele>417</ele>
        <time>2018-10-30T10:32:37.000Z</time>
      </trkpt>
      <trkpt lat="43.40896" lon="5.44452">
        <ele>416.60000610352</ele>
        <time>2018-10-30T10:32:43.000Z</time>
      </trkpt>
      <trkpt lat="43.40897" lon="5.44448">
        <ele>416</ele>
        <time>2018-10-30T10:32:46.000Z</time>
      </trkpt>
      <trkpt lat="43.40897" lon="5.44447">
        <ele>415.79998779297</ele>
        <time>2018-10-30T10:32:47.000Z</time>
      </trkpt>
      <trkpt lat="43.40897" lon="5.44446">
        <ele>415.60000610352</ele>
        <time>2018-10-30T10:32:48.000Z</time>
      </trkpt>
      <trkpt lat="43.40899" lon="5.44438">
        <ele>415.39999389648</ele>
        <time>2018-10-30T10:32:53.000Z</time>
      </trkpt>
      <trkpt lat="43.409" lon="5.44435">
        <ele>414.60000610352</ele>
        <time>2018-10-30T10:32:56.000Z</time>
      </trkpt>
      <trkpt lat="43.40901" lon="5.4443">
        <ele>414.20001220703</ele>
        <time>2018-10-30T10:33:00.000Z</time>
      </trkpt>
      <trkpt lat="43.40901" lon="5.4442">
        <ele>413.60000610352</ele>
        <time>2018-10-30T10:33:06.000Z</time>
      </trkpt>
      <trkpt lat="43.40902" lon="5.44417">
        <ele>413.20001220703</ele>
        <time>2018-10-30T10:33:08.000Z</time>
      </trkpt>
      <trkpt lat="43.40902" lon="5.44411">
        <ele>412.60000610352</ele>
        <time>2018-10-30T10:33:12.000Z</time>
      </trkpt>
      <trkpt lat="43.40903" lon="5.44404">
        <ele>412.20001220703</ele>
        <time>2018-10-30T10:33:17.000Z</time>
      </trkpt>
      <trkpt lat="43.40903" lon="5.44397">
        <ele>411.79998779297</ele>
        <time>2018-10-30T10:33:21.000Z</time>
      </trkpt>
      <trkpt lat="43.40906" lon="5.44387">
        <ele>411.39999389648</ele>
        <time>2018-10-30T10:33:28.000Z</time>
      </trkpt>
      <trkpt lat="43.40908" lon="5.44381">
        <ele>411.60000610352</ele>
        <time>2018-10-30T10:33:33.000Z</time>
      </trkpt>
      <trkpt lat="43.40913" lon="5.44378">
        <ele>412</ele>
        <time>2018-10-30T10:33:38.000Z</time>
      </trkpt>
      <trkpt lat="43.40915" lon="5.44376">
        <ele>412.39999389648</ele>
        <time>2018-10-30T10:33:40.000Z</time>
      </trkpt>
      <trkpt lat="43.40917" lon="5.44377">
        <ele>412.39999389648</ele>
        <time>2018-10-30T10:33:43.000Z</time>
      </trkpt>
      <trkpt lat="43.40915" lon="5.44382">
        <ele>412.39999389648</ele>
        <time>2018-10-30T10:33:52.000Z</time>
      </trkpt>
      <trkpt lat="43.40916" lon="5.44393">
        <ele>413.39999389648</ele>
        <time>2018-10-30T10:34:00.000Z</time>
      </trkpt>
      <trkpt lat="43.40916" lon="5.44394">
        <ele>413.60000610352</ele>
        <time>2018-10-30T10:34:01.000Z</time>
      </trkpt>
      <trkpt lat="43.40915" lon="5.44397">
        <ele>413.79998779297</ele>
        <time>2018-10-30T10:34:04.000Z</time>
      </trkpt>
      <trkpt lat="43.40915" lon="5.44403">
        <ele>414.20001220703</ele>
        <time>2018-10-30T10:34:08.000Z</time>
      </trkpt>
      <trkpt lat="43.40915" lon="5.44409">
        <ele>414.39999389648</ele>
        <time>2018-10-30T10:34:13.000Z</time>
      </trkpt>
      <trkpt lat="43.40916" lon="5.44411">
        <ele>414.39999389648</ele>
        <time>2018-10-30T10:34:14.000Z</time>
      </trkpt>
      <trkpt lat="43.40918" lon="5.44419">
        <ele>415.39999389648</ele>
        <time>2018-10-30T10:34:21.000Z</time>
      </trkpt>
      <trkpt lat="43.40918" lon="5.4442">
        <ele>415.39999389648</ele>
        <time>2018-10-30T10:34:22.000Z</time>
      </trkpt>
      <trkpt lat="43.40919" lon="5.44425">
        <ele>415.39999389648</ele>
        <time>2018-10-30T10:34:26.000Z</time>
      </trkpt>
      <trkpt lat="43.40919" lon="5.44429">
        <ele>416</ele>
        <time>2018-10-30T10:34:29.000Z</time>
      </trkpt>
      <trkpt lat="43.40917" lon="5.44432">
        <ele>416.60000610352</ele>
        <time>2018-10-30T10:34:33.000Z</time>
      </trkpt>
      <trkpt lat="43.40917" lon="5.44437">
        <ele>416.79998779297</ele>
        <time>2018-10-30T10:34:37.000Z</time>
      </trkpt>
      <trkpt lat="43.40916" lon="5.44444">
        <ele>417.60000610352</ele>
        <time>2018-10-30T10:34:43.000Z</time>
      </trkpt>
      <trkpt lat="43.40915" lon="5.44444">
        <ele>417.79998779297</ele>
        <time>2018-10-30T10:34:44.000Z</time>
      </trkpt>
      <trkpt lat="43.40916" lon="5.44446">
        <ele>417.60000610352</ele>
        <time>2018-10-30T10:34:50.000Z</time>
      </trkpt>
      <trkpt lat="43.40915" lon="5.44451">
        <ele>418</ele>
        <time>2018-10-30T10:34:58.000Z</time>
      </trkpt>
      <trkpt lat="43.40915" lon="5.44454">
        <ele>418.79998779297</ele>
        <time>2018-10-30T10:35:02.000Z</time>
      </trkpt>
      <trkpt lat="43.40914" lon="5.44458">
        <ele>419</ele>
        <time>2018-10-30T10:35:06.000Z</time>
      </trkpt>
      <trkpt lat="43.40913" lon="5.44467">
        <ele>420</ele>
        <time>2018-10-30T10:35:13.000Z</time>
      </trkpt>
      <trkpt lat="43.40913" lon="5.44471">
        <ele>420.39999389648</ele>
        <time>2018-10-30T10:35:16.000Z</time>
      </trkpt>
      <trkpt lat="43.40911" lon="5.44476">
        <ele>420.79998779297</ele>
        <time>2018-10-30T10:35:20.000Z</time>
      </trkpt>
      <trkpt lat="43.40912" lon="5.44479">
        <ele>420.79998779297</ele>
        <time>2018-10-30T10:35:23.000Z</time>
      </trkpt>
      <trkpt lat="43.40911" lon="5.44482">
        <ele>422</ele>
        <time>2018-10-30T10:35:26.000Z</time>
      </trkpt>
      <trkpt lat="43.40911" lon="5.44488">
        <ele>422.60000610352</ele>
        <time>2018-10-30T10:35:32.000Z</time>
      </trkpt>
      <trkpt lat="43.4091" lon="5.44492">
        <ele>423.20001220703</ele>
        <time>2018-10-30T10:35:36.000Z</time>
      </trkpt>
      <trkpt lat="43.40909" lon="5.44499">
        <ele>423.79998779297</ele>
        <time>2018-10-30T10:35:42.000Z</time>
      </trkpt>
      <trkpt lat="43.40908" lon="5.44502">
        <ele>424.20001220703</ele>
        <time>2018-10-30T10:35:44.000Z</time>
      </trkpt>
      <trkpt lat="43.40906" lon="5.44509">
        <ele>425.39999389648</ele>
        <time>2018-10-30T10:35:51.000Z</time>
      </trkpt>
      <trkpt lat="43.40906" lon="5.4451">
        <ele>425.39999389648</ele>
        <time>2018-10-30T10:35:52.000Z</time>
      </trkpt>
      <trkpt lat="43.40905" lon="5.44514">
        <ele>425.79998779297</ele>
        <time>2018-10-30T10:35:57.000Z</time>
      </trkpt>
      <trkpt lat="43.40903" lon="5.4452">
        <ele>426.39999389648</ele>
        <time>2018-10-30T10:36:02.000Z</time>
      </trkpt>
      <trkpt lat="43.40902" lon="5.44523">
        <ele>426.60000610352</ele>
        <time>2018-10-30T10:36:04.000Z</time>
      </trkpt>
      <trkpt lat="43.40901" lon="5.44526">
        <ele>427.60000610352</ele>
        <time>2018-10-30T10:36:07.000Z</time>
      </trkpt>
      <trkpt lat="43.409" lon="5.44532">
        <ele>428.39999389648</ele>
        <time>2018-10-30T10:36:13.000Z</time>
      </trkpt>
      <trkpt lat="43.40899" lon="5.44535">
        <ele>428.60000610352</ele>
        <time>2018-10-30T10:36:17.000Z</time>
      </trkpt>
      <trkpt lat="43.409" lon="5.44537">
        <ele>429</ele>
        <time>2018-10-30T10:36:20.000Z</time>
      </trkpt>
      <trkpt lat="43.40901" lon="5.44541">
        <ele>429.20001220703</ele>
        <time>2018-10-30T10:36:29.000Z</time>
      </trkpt>
      <trkpt lat="43.40901" lon="5.44543">
        <ele>429.60000610352</ele>
        <time>2018-10-30T10:36:30.000Z</time>
      </trkpt>
      <trkpt lat="43.40899" lon="5.44551">
        <ele>429.79998779297</ele>
        <time>2018-10-30T10:36:38.000Z</time>
      </trkpt>
      <trkpt lat="43.40899" lon="5.44555">
        <ele>431</ele>
        <time>2018-10-30T10:36:42.000Z</time>
      </trkpt>
      <trkpt lat="43.40898" lon="5.44565">
        <ele>431.79998779297</ele>
        <time>2018-10-30T10:36:51.000Z</time>
      </trkpt>
      <trkpt lat="43.40897" lon="5.44567">
        <ele>432</ele>
        <time>2018-10-30T10:36:53.000Z</time>
      </trkpt>
      <trkpt lat="43.40898" lon="5.4457">
        <ele>432.60000610352</ele>
        <time>2018-10-30T10:37:00.000Z</time>
      </trkpt>
      <trkpt lat="43.40896" lon="5.44578">
        <ele>432.60000610352</ele>
        <time>2018-10-30T10:37:08.000Z</time>
      </trkpt>
      <trkpt lat="43.40894" lon="5.44588">
        <ele>432.60000610352</ele>
        <time>2018-10-30T10:37:18.000Z</time>
      </trkpt>
      <trkpt lat="43.40894" lon="5.44589">
        <ele>432.79998779297</ele>
        <time>2018-10-30T10:37:19.000Z</time>
      </trkpt>
      <trkpt lat="43.40895" lon="5.44594">
        <ele>433</ele>
        <time>2018-10-30T10:37:24.000Z</time>
      </trkpt>
      <trkpt lat="43.40897" lon="5.44603">
        <ele>432.20001220703</ele>
        <time>2018-10-30T10:37:35.000Z</time>
      </trkpt>
      <trkpt lat="43.40898" lon="5.44604">
        <ele>431.79998779297</ele>
        <time>2018-10-30T10:37:37.000Z</time>
      </trkpt>
      <trkpt lat="43.40899" lon="5.4461">
        <ele>431</ele>
        <time>2018-10-30T10:37:42.000Z</time>
      </trkpt>
      <trkpt lat="43.409" lon="5.44613">
        <ele>430.79998779297</ele>
        <time>2018-10-30T10:37:44.000Z</time>
      </trkpt>
      <trkpt lat="43.40901" lon="5.44619">
        <ele>430.20001220703</ele>
        <time>2018-10-30T10:37:49.000Z</time>
      </trkpt>
      <trkpt lat="43.40901" lon="5.44622">
        <ele>429.60000610352</ele>
        <time>2018-10-30T10:37:52.000Z</time>
      </trkpt>
      <trkpt lat="43.40902" lon="5.44628">
        <ele>428.79998779297</ele>
        <time>2018-10-30T10:37:58.000Z</time>
      </trkpt>
      <trkpt lat="43.40902" lon="5.44631">
        <ele>428.60000610352</ele>
        <time>2018-10-30T10:38:00.000Z</time>
      </trkpt>
      <trkpt lat="43.40903" lon="5.44636">
        <ele>428.20001220703</ele>
        <time>2018-10-30T10:38:04.000Z</time>
      </trkpt>
      <trkpt lat="43.40905" lon="5.44643">
        <ele>427.60000610352</ele>
        <time>2018-10-30T10:38:09.000Z</time>
      </trkpt>
      <trkpt lat="43.40905" lon="5.44644">
        <ele>427.39999389648</ele>
        <time>2018-10-30T10:38:10.000Z</time>
      </trkpt>
      <trkpt lat="43.40906" lon="5.44653">
        <ele>426.39999389648</ele>
        <time>2018-10-30T10:38:16.000Z</time>
      </trkpt>
      <trkpt lat="43.40907" lon="5.44655">
        <ele>426.39999389648</ele>
        <time>2018-10-30T10:38:18.000Z</time>
      </trkpt>
      <trkpt lat="43.40907" lon="5.44657">
        <ele>426.20001220703</ele>
        <time>2018-10-30T10:38:19.000Z</time>
      </trkpt>
      <trkpt lat="43.40907" lon="5.44659">
        <ele>426</ele>
        <time>2018-10-30T10:38:21.000Z</time>
      </trkpt>
      <trkpt lat="43.40911" lon="5.4467">
        <ele>425.39999389648</ele>
        <time>2018-10-30T10:38:29.000Z</time>
      </trkpt>
      <trkpt lat="43.40911" lon="5.44673">
        <ele>425.39999389648</ele>
        <time>2018-10-30T10:38:31.000Z</time>
      </trkpt>
      <trkpt lat="43.40911" lon="5.44675">
        <ele>425.20001220703</ele>
        <time>2018-10-30T10:38:33.000Z</time>
      </trkpt>
      <trkpt lat="43.40912" lon="5.44676">
        <ele>425</ele>
        <time>2018-10-30T10:38:34.000Z</time>
      </trkpt>
      <trkpt lat="43.40912" lon="5.44678">
        <ele>425</ele>
        <time>2018-10-30T10:38:35.000Z</time>
      </trkpt>
      <trkpt lat="43.40914" lon="5.44684">
        <ele>424</ele>
        <time>2018-10-30T10:38:40.000Z</time>
      </trkpt>
      <trkpt lat="43.40916" lon="5.44689">
        <ele>423.20001220703</ele>
        <time>2018-10-30T10:38:45.000Z</time>
      </trkpt>
      <trkpt lat="43.40918" lon="5.44693">
        <ele>423</ele>
        <time>2018-10-30T10:38:49.000Z</time>
      </trkpt>
      <trkpt lat="43.4092" lon="5.44698">
        <ele>422</ele>
        <time>2018-10-30T10:38:53.000Z</time>
      </trkpt>
      <trkpt lat="43.4092" lon="5.44699">
        <ele>421.79998779297</ele>
        <time>2018-10-30T10:38:54.000Z</time>
      </trkpt>
      <trkpt lat="43.40921" lon="5.44704">
        <ele>420.39999389648</ele>
        <time>2018-10-30T10:38:59.000Z</time>
      </trkpt>
      <trkpt lat="43.40923" lon="5.44708">
        <ele>419.79998779297</ele>
        <time>2018-10-30T10:39:02.000Z</time>
      </trkpt>
      <trkpt lat="43.40924" lon="5.44714">
        <ele>419.20001220703</ele>
        <time>2018-10-30T10:39:07.000Z</time>
      </trkpt>
      <trkpt lat="43.40925" lon="5.44718">
        <ele>419</ele>
        <time>2018-10-30T10:39:11.000Z</time>
      </trkpt>
      <trkpt lat="43.40928" lon="5.44729">
        <ele>418.39999389648</ele>
        <time>2018-10-30T10:39:19.000Z</time>
      </trkpt>
      <trkpt lat="43.40931" lon="5.44742">
        <ele>418</ele>
        <time>2018-10-30T10:39:28.000Z</time>
      </trkpt>
      <trkpt lat="43.40933" lon="5.44752">
        <ele>418.60000610352</ele>
        <time>2018-10-30T10:39:37.000Z</time>
      </trkpt>
      <trkpt lat="43.40934" lon="5.4476">
        <ele>419</ele>
        <time>2018-10-30T10:39:44.000Z</time>
      </trkpt>
      <trkpt lat="43.40934" lon="5.44761">
        <ele>419.20001220703</ele>
        <time>2018-10-30T10:39:45.000Z</time>
      </trkpt>
      <trkpt lat="43.40935" lon="5.44773">
        <ele>419.60000610352</ele>
        <time>2018-10-30T10:39:54.000Z</time>
      </trkpt>
      <trkpt lat="43.40936" lon="5.44777">
        <ele>419.20001220703</ele>
        <time>2018-10-30T10:39:58.000Z</time>
      </trkpt>
      <trkpt lat="43.40937" lon="5.44784">
        <ele>420</ele>
        <time>2018-10-30T10:40:06.000Z</time>
      </trkpt>
      <trkpt lat="43.40938" lon="5.44785">
        <ele>420.39999389648</ele>
        <time>2018-10-30T10:40:07.000Z</time>
      </trkpt>
      <trkpt lat="43.4094" lon="5.44792">
        <ele>421</ele>
        <time>2018-10-30T10:40:17.000Z</time>
      </trkpt>
      <trkpt lat="43.40941" lon="5.44795">
        <ele>420.79998779297</ele>
        <time>2018-10-30T10:40:24.000Z</time>
      </trkpt>
      <trkpt lat="43.40941" lon="5.44795">
        <ele>420.79998779297</ele>
        <time>2018-10-30T10:40:25.000Z</time>
      </trkpt>
      <trkpt lat="43.40942" lon="5.448">
        <ele>422</ele>
        <time>2018-10-30T10:40:30.000Z</time>
      </trkpt>
      <trkpt lat="43.40941" lon="5.44801">
        <ele>422.39999389648</ele>
        <time>2018-10-30T10:40:31.000Z</time>
      </trkpt>
      <trkpt lat="43.40941" lon="5.44805">
        <ele>423.20001220703</ele>
        <time>2018-10-30T10:40:35.000Z</time>
      </trkpt>
      <trkpt lat="43.40941" lon="5.4481">
        <ele>423.60000610352</ele>
        <time>2018-10-30T10:40:39.000Z</time>
      </trkpt>
      <trkpt lat="43.40945" lon="5.44817">
        <ele>423.20001220703</ele>
        <time>2018-10-30T10:40:48.000Z</time>
      </trkpt>
      <trkpt lat="43.40947" lon="5.44821">
        <ele>422.39999389648</ele>
        <time>2018-10-30T10:40:54.000Z</time>
      </trkpt>
      <trkpt lat="43.40946" lon="5.44822">
        <ele>422</ele>
        <time>2018-10-30T10:40:56.000Z</time>
      </trkpt>
      <trkpt lat="43.40947" lon="5.44824">
        <ele>421.39999389648</ele>
        <time>2018-10-30T10:41:04.000Z</time>
      </trkpt>
      <trkpt lat="43.40948" lon="5.44827">
        <ele>421</ele>
        <time>2018-10-30T10:41:07.000Z</time>
      </trkpt>
      <trkpt lat="43.4095" lon="5.4483">
        <ele>420.20001220703</ele>
        <time>2018-10-30T10:41:12.000Z</time>
      </trkpt>
      <trkpt lat="43.4095" lon="5.44832">
        <ele>419.79998779297</ele>
        <time>2018-10-30T10:41:14.000Z</time>
      </trkpt>
      <trkpt lat="43.40951" lon="5.44835">
        <ele>419.60000610352</ele>
        <time>2018-10-30T10:41:17.000Z</time>
      </trkpt>
      <trkpt lat="43.40952" lon="5.44838">
        <ele>418.79998779297</ele>
        <time>2018-10-30T10:41:20.000Z</time>
      </trkpt>
      <trkpt lat="43.40952" lon="5.4484">
        <ele>418.79998779297</ele>
        <time>2018-10-30T10:41:21.000Z</time>
      </trkpt>
      <trkpt lat="43.40954" lon="5.44847">
        <ele>417.60000610352</ele>
        <time>2018-10-30T10:41:28.000Z</time>
      </trkpt>
      <trkpt lat="43.40955" lon="5.4485">
        <ele>416.20001220703</ele>
        <time>2018-10-30T10:41:32.000Z</time>
      </trkpt>
      <trkpt lat="43.40957" lon="5.44853">
        <ele>415.20001220703</ele>
        <time>2018-10-30T10:41:37.000Z</time>
      </trkpt>
      <trkpt lat="43.40957" lon="5.44854">
        <ele>415.20001220703</ele>
        <time>2018-10-30T10:41:38.000Z</time>
      </trkpt>
      <trkpt lat="43.40956" lon="5.4486">
        <ele>414</ele>
        <time>2018-10-30T10:41:43.000Z</time>
      </trkpt>
      <trkpt lat="43.40956" lon="5.44861">
        <ele>413.79998779297</ele>
        <time>2018-10-30T10:41:44.000Z</time>
      </trkpt>
      <trkpt lat="43.40952" lon="5.44867">
        <ele>413</ele>
        <time>2018-10-30T10:41:50.000Z</time>
      </trkpt>
      <trkpt lat="43.40948" lon="5.4487">
        <ele>412.39999389648</ele>
        <time>2018-10-30T10:41:54.000Z</time>
      </trkpt>
      <trkpt lat="43.40946" lon="5.44874">
        <ele>411.79998779297</ele>
        <time>2018-10-30T10:41:58.000Z</time>
      </trkpt>
      <trkpt lat="43.40944" lon="5.44878">
        <ele>411.20001220703</ele>
        <time>2018-10-30T10:42:02.000Z</time>
      </trkpt>
      <trkpt lat="43.40939" lon="5.44885">
        <ele>410.60000610352</ele>
        <time>2018-10-30T10:42:09.000Z</time>
      </trkpt>
      <trkpt lat="43.40938" lon="5.44887">
        <ele>410.60000610352</ele>
        <time>2018-10-30T10:42:11.000Z</time>
      </trkpt>
      <trkpt lat="43.40935" lon="5.44892">
        <ele>410.39999389648</ele>
        <time>2018-10-30T10:42:18.000Z</time>
      </trkpt>
      <trkpt lat="43.40934" lon="5.44901">
        <ele>409.60000610352</ele>
        <time>2018-10-30T10:42:28.000Z</time>
      </trkpt>
      <trkpt lat="43.40935" lon="5.44902">
        <ele>409.39999389648</ele>
        <time>2018-10-30T10:42:29.000Z</time>
      </trkpt>
      <trkpt lat="43.40934" lon="5.44911">
        <ele>408.79998779297</ele>
        <time>2018-10-30T10:42:37.000Z</time>
      </trkpt>
      <trkpt lat="43.40933" lon="5.44916">
        <ele>408.60000610352</ele>
        <time>2018-10-30T10:42:43.000Z</time>
      </trkpt>
      <trkpt lat="43.40932" lon="5.44929">
        <ele>407.39999389648</ele>
        <time>2018-10-30T10:42:52.000Z</time>
      </trkpt>
      <trkpt lat="43.40931" lon="5.44939">
        <ele>406.20001220703</ele>
        <time>2018-10-30T10:43:00.000Z</time>
      </trkpt>
      <trkpt lat="43.4093" lon="5.44942">
        <ele>406</ele>
        <time>2018-10-30T10:43:03.000Z</time>
      </trkpt>
      <trkpt lat="43.40929" lon="5.44953">
        <ele>405.20001220703</ele>
        <time>2018-10-30T10:43:12.000Z</time>
      </trkpt>
      <trkpt lat="43.40929" lon="5.44954">
        <ele>405</ele>
        <time>2018-10-30T10:43:13.000Z</time>
      </trkpt>
      <trkpt lat="43.40929" lon="5.44964">
        <ele>404.20001220703</ele>
        <time>2018-10-30T10:43:22.000Z</time>
      </trkpt>
      <trkpt lat="43.4093" lon="5.44964">
        <ele>404</ele>
        <time>2018-10-30T10:43:23.000Z</time>
      </trkpt>
      <trkpt lat="43.4093" lon="5.44967">
        <ele>403.20001220703</ele>
        <time>2018-10-30T10:43:27.000Z</time>
      </trkpt>
      <trkpt lat="43.40931" lon="5.44967">
        <ele>403</ele>
        <time>2018-10-30T10:43:28.000Z</time>
      </trkpt>
      <trkpt lat="43.40934" lon="5.44977">
        <ele>402.20001220703</ele>
        <time>2018-10-30T10:43:35.000Z</time>
      </trkpt>
      <trkpt lat="43.40934" lon="5.4498">
        <ele>401.79998779297</ele>
        <time>2018-10-30T10:43:37.000Z</time>
      </trkpt>
      <trkpt lat="43.40935" lon="5.44982">
        <ele>400.60000610352</ele>
        <time>2018-10-30T10:43:40.000Z</time>
      </trkpt>
      <trkpt lat="43.40937" lon="5.44985">
        <ele>400</ele>
        <time>2018-10-30T10:43:43.000Z</time>
      </trkpt>
      <trkpt lat="43.40939" lon="5.44987">
        <ele>399.60000610352</ele>
        <time>2018-10-30T10:43:45.000Z</time>
      </trkpt>
      <trkpt lat="43.40942" lon="5.44994">
        <ele>398.60000610352</ele>
        <time>2018-10-30T10:43:51.000Z</time>
      </trkpt>
      <trkpt lat="43.40943" lon="5.44996">
        <ele>398.60000610352</ele>
        <time>2018-10-30T10:43:52.000Z</time>
      </trkpt>
      <trkpt lat="43.40946" lon="5.45004">
        <ele>397.79998779297</ele>
        <time>2018-10-30T10:43:59.000Z</time>
      </trkpt>
      <trkpt lat="43.40947" lon="5.45005">
        <ele>397.60000610352</ele>
        <time>2018-10-30T10:44:00.000Z</time>
      </trkpt>
      <trkpt lat="43.40948" lon="5.45012">
        <ele>396.39999389648</ele>
        <time>2018-10-30T10:44:07.000Z</time>
      </trkpt>
      <trkpt lat="43.40949" lon="5.45013">
        <ele>396.39999389648</ele>
        <time>2018-10-30T10:44:08.000Z</time>
      </trkpt>
      <trkpt lat="43.4095" lon="5.45018">
        <ele>395.20001220703</ele>
        <time>2018-10-30T10:44:17.000Z</time>
      </trkpt>
      <trkpt lat="43.4095" lon="5.45019">
        <ele>395.20001220703</ele>
        <time>2018-10-30T10:44:18.000Z</time>
      </trkpt>
      <trkpt lat="43.4095" lon="5.45023">
        <ele>394</ele>
        <time>2018-10-30T10:44:25.000Z</time>
      </trkpt>
      <trkpt lat="43.40952" lon="5.45028">
        <ele>393</ele>
        <time>2018-10-30T10:44:31.000Z</time>
      </trkpt>
      <trkpt lat="43.40952" lon="5.4503">
        <ele>393</ele>
        <time>2018-10-30T10:44:33.000Z</time>
      </trkpt>
      <trkpt lat="43.40952" lon="5.45035">
        <ele>392.20001220703</ele>
        <time>2018-10-30T10:44:40.000Z</time>
      </trkpt>
      <trkpt lat="43.40952" lon="5.45037">
        <ele>392</ele>
        <time>2018-10-30T10:44:41.000Z</time>
      </trkpt>
      <trkpt lat="43.40952" lon="5.45042">
        <ele>390.60000610352</ele>
        <time>2018-10-30T10:44:49.000Z</time>
      </trkpt>
      <trkpt lat="43.40951" lon="5.45049">
        <ele>389.60000610352</ele>
        <time>2018-10-30T10:44:58.000Z</time>
      </trkpt>
      <trkpt lat="43.40951" lon="5.4505">
        <ele>389.60000610352</ele>
        <time>2018-10-30T10:44:59.000Z</time>
      </trkpt>
      <trkpt lat="43.40952" lon="5.45056">
        <ele>388.39999389648</ele>
        <time>2018-10-30T10:45:04.000Z</time>
      </trkpt>
      <trkpt lat="43.40951" lon="5.45057">
        <ele>388.39999389648</ele>
        <time>2018-10-30T10:45:05.000Z</time>
      </trkpt>
      <trkpt lat="43.4095" lon="5.45064">
        <ele>387.20001220703</ele>
        <time>2018-10-30T10:45:10.000Z</time>
      </trkpt>
      <trkpt lat="43.40949" lon="5.45069">
        <ele>386.39999389648</ele>
        <time>2018-10-30T10:45:14.000Z</time>
      </trkpt>
      <trkpt lat="43.40949" lon="5.45072">
        <ele>386</ele>
        <time>2018-10-30T10:45:16.000Z</time>
      </trkpt>
      <trkpt lat="43.40948" lon="5.45077">
        <ele>385.20001220703</ele>
        <time>2018-10-30T10:45:22.000Z</time>
      </trkpt>
      <trkpt lat="43.40948" lon="5.45079">
        <ele>384.79998779297</ele>
        <time>2018-10-30T10:45:25.000Z</time>
      </trkpt>
      <trkpt lat="43.40949" lon="5.45086">
        <ele>383.79998779297</ele>
        <time>2018-10-30T10:45:32.000Z</time>
      </trkpt>
      <trkpt lat="43.40948" lon="5.45088">
        <ele>383</ele>
        <time>2018-10-30T10:45:42.000Z</time>
      </trkpt>
      <trkpt lat="43.40949" lon="5.45091">
        <ele>382.79998779297</ele>
        <time>2018-10-30T10:45:51.000Z</time>
      </trkpt>
      <trkpt lat="43.40949" lon="5.45093">
        <ele>382.39999389648</ele>
        <time>2018-10-30T10:45:54.000Z</time>
      </trkpt>
      <trkpt lat="43.40949" lon="5.45097">
        <ele>381.20001220703</ele>
        <time>2018-10-30T10:46:00.000Z</time>
      </trkpt>
      <trkpt lat="43.4095" lon="5.45098">
        <ele>381</ele>
        <time>2018-10-30T10:46:02.000Z</time>
      </trkpt>
      <trkpt lat="43.40951" lon="5.45104">
        <ele>379.79998779297</ele>
        <time>2018-10-30T10:46:08.000Z</time>
      </trkpt>
      <trkpt lat="43.40952" lon="5.45104">
        <ele>379.60000610352</ele>
        <time>2018-10-30T10:46:09.000Z</time>
      </trkpt>
      <trkpt lat="43.40954" lon="5.45105">
        <ele>378.79998779297</ele>
        <time>2018-10-30T10:46:12.000Z</time>
      </trkpt>
      <trkpt lat="43.40955" lon="5.45104">
        <ele>377.60000610352</ele>
        <time>2018-10-30T10:46:17.000Z</time>
      </trkpt>
      <trkpt lat="43.40957" lon="5.45104">
        <ele>376.39999389648</ele>
        <time>2018-10-30T10:46:24.000Z</time>
      </trkpt>
      <trkpt lat="43.40958" lon="5.45104">
        <ele>376.39999389648</ele>
        <time>2018-10-30T10:46:25.000Z</time>
      </trkpt>
      <trkpt lat="43.40959" lon="5.45104">
        <ele>375.39999389648</ele>
        <time>2018-10-30T10:46:29.000Z</time>
      </trkpt>
      <trkpt lat="43.40961" lon="5.45103">
        <ele>374.20001220703</ele>
        <time>2018-10-30T10:46:34.000Z</time>
      </trkpt>
      <trkpt lat="43.40961" lon="5.45103">
        <ele>373.79998779297</ele>
        <time>2018-10-30T10:46:35.000Z</time>
      </trkpt>
      <trkpt lat="43.40962" lon="5.45103">
        <ele>373.20001220703</ele>
        <time>2018-10-30T10:46:40.000Z</time>
      </trkpt>
      <trkpt lat="43.40964" lon="5.45104">
        <ele>372.20001220703</ele>
        <time>2018-10-30T10:46:44.000Z</time>
      </trkpt>
      <trkpt lat="43.40964" lon="5.45105">
        <ele>371.79998779297</ele>
        <time>2018-10-30T10:46:45.000Z</time>
      </trkpt>
      <trkpt lat="43.40968" lon="5.45109">
        <ele>370.60000610352</ele>
        <time>2018-10-30T10:46:51.000Z</time>
      </trkpt>
      <trkpt lat="43.40968" lon="5.4511">
        <ele>370.60000610352</ele>
        <time>2018-10-30T10:46:52.000Z</time>
      </trkpt>
      <trkpt lat="43.40971" lon="5.45112">
        <ele>369.60000610352</ele>
        <time>2018-10-30T10:46:58.000Z</time>
      </trkpt>
      <trkpt lat="43.40972" lon="5.45112">
        <ele>369.20001220703</ele>
        <time>2018-10-30T10:47:01.000Z</time>
      </trkpt>
      <trkpt lat="43.40975" lon="5.4511">
        <ele>368.20001220703</ele>
        <time>2018-10-30T10:47:06.000Z</time>
      </trkpt>
      <trkpt lat="43.40976" lon="5.45107">
        <ele>367.20001220703</ele>
        <time>2018-10-30T10:47:10.000Z</time>
      </trkpt>
      <trkpt lat="43.40976" lon="5.451">
        <ele>366.20001220703</ele>
        <time>2018-10-30T10:47:17.000Z</time>
      </trkpt>
      <trkpt lat="43.40976" lon="5.45099">
        <ele>365.79998779297</ele>
        <time>2018-10-30T10:47:19.000Z</time>
      </trkpt>
      <trkpt lat="43.40977" lon="5.45095">
        <ele>365</ele>
        <time>2018-10-30T10:47:23.000Z</time>
      </trkpt>
      <trkpt lat="43.40982" lon="5.4509">
        <ele>364.20001220703</ele>
        <time>2018-10-30T10:47:28.000Z</time>
      </trkpt>
      <trkpt lat="43.40983" lon="5.45088">
        <ele>363.79998779297</ele>
        <time>2018-10-30T10:47:30.000Z</time>
      </trkpt>
      <trkpt lat="43.40986" lon="5.45085">
        <ele>363.20001220703</ele>
        <time>2018-10-30T10:47:36.000Z</time>
      </trkpt>
      <trkpt lat="43.40989" lon="5.4508">
        <ele>362.79998779297</ele>
        <time>2018-10-30T10:47:41.000Z</time>
      </trkpt>
      <trkpt lat="43.4099" lon="5.45079">
        <ele>361.60000610352</ele>
        <time>2018-10-30T10:47:46.000Z</time>
      </trkpt>
      <trkpt lat="43.4099" lon="5.45079">
        <ele>361.39999389648</ele>
        <time>2018-10-30T10:47:47.000Z</time>
      </trkpt>
      <trkpt lat="43.4099" lon="5.45078">
        <ele>361.20001220703</ele>
        <time>2018-10-30T10:47:59.000Z</time>
      </trkpt>
      <trkpt lat="43.40992" lon="5.45073">
        <ele>361</ele>
        <time>2018-10-30T10:48:06.000Z</time>
      </trkpt>
      <trkpt lat="43.40992" lon="5.45062">
        <ele>360.20001220703</ele>
        <time>2018-10-30T10:48:15.000Z</time>
      </trkpt>
      <trkpt lat="43.40991" lon="5.45054">
        <ele>359.39999389648</ele>
        <time>2018-10-30T10:48:21.000Z</time>
      </trkpt>
      <trkpt lat="43.40993" lon="5.4505">
        <ele>358.79998779297</ele>
        <time>2018-10-30T10:48:25.000Z</time>
      </trkpt>
      <trkpt lat="43.40995" lon="5.45045">
        <ele>358.20001220703</ele>
        <time>2018-10-30T10:48:29.000Z</time>
      </trkpt>
      <trkpt lat="43.40997" lon="5.45044">
        <ele>357.79998779297</ele>
        <time>2018-10-30T10:48:31.000Z</time>
      </trkpt>
      <trkpt lat="43.41" lon="5.45038">
        <ele>357.20001220703</ele>
        <time>2018-10-30T10:48:37.000Z</time>
      </trkpt>
      <trkpt lat="43.41003" lon="5.4503">
        <ele>356.79998779297</ele>
        <time>2018-10-30T10:48:45.000Z</time>
      </trkpt>
      <trkpt lat="43.41004" lon="5.45029">
        <ele>356.79998779297</ele>
        <time>2018-10-30T10:48:46.000Z</time>
      </trkpt>
      <trkpt lat="43.41005" lon="5.45025">
        <ele>356.39999389648</ele>
        <time>2018-10-30T10:48:49.000Z</time>
      </trkpt>
      <trkpt lat="43.4101" lon="5.45015">
        <ele>355.60000610352</ele>
        <time>2018-10-30T10:48:59.000Z</time>
      </trkpt>
      <trkpt lat="43.41011" lon="5.45013">
        <ele>355.39999389648</ele>
        <time>2018-10-30T10:49:01.000Z</time>
      </trkpt>
      <trkpt lat="43.41017" lon="5.45003">
        <ele>354.60000610352</ele>
        <time>2018-10-30T10:49:10.000Z</time>
      </trkpt>
      <trkpt lat="43.41022" lon="5.44993">
        <ele>354</ele>
        <time>2018-10-30T10:49:18.000Z</time>
      </trkpt>
      <trkpt lat="43.41024" lon="5.44989">
        <ele>353.79998779297</ele>
        <time>2018-10-30T10:49:20.000Z</time>
      </trkpt>
      <trkpt lat="43.4103" lon="5.44983">
        <ele>352.79998779297</ele>
        <time>2018-10-30T10:49:29.000Z</time>
      </trkpt>
      <trkpt lat="43.41035" lon="5.44977">
        <ele>351.60000610352</ele>
        <time>2018-10-30T10:49:36.000Z</time>
      </trkpt>
      <trkpt lat="43.41037" lon="5.44974">
        <ele>350.79998779297</ele>
        <time>2018-10-30T10:49:40.000Z</time>
      </trkpt>
      <trkpt lat="43.41039" lon="5.44973">
        <ele>350.39999389648</ele>
        <time>2018-10-30T10:49:42.000Z</time>
      </trkpt>
      <trkpt lat="43.41045" lon="5.4497">
        <ele>349.20001220703</ele>
        <time>2018-10-30T10:49:49.000Z</time>
      </trkpt>
      <trkpt lat="43.41046" lon="5.44969">
        <ele>349</ele>
        <time>2018-10-30T10:49:50.000Z</time>
      </trkpt>
      <trkpt lat="43.41057" lon="5.44971">
        <ele>348.20001220703</ele>
        <time>2018-10-30T10:49:58.000Z</time>
      </trkpt>
      <trkpt lat="43.41063" lon="5.44975">
        <ele>347.79998779297</ele>
        <time>2018-10-30T10:50:02.000Z</time>
      </trkpt>
      <trkpt lat="43.4107" lon="5.44979">
        <ele>346.79998779297</ele>
        <time>2018-10-30T10:50:08.000Z</time>
      </trkpt>
      <trkpt lat="43.41071" lon="5.44979">
        <ele>346.60000610352</ele>
        <time>2018-10-30T10:50:09.000Z</time>
      </trkpt>
      <trkpt lat="43.41079" lon="5.44974">
        <ele>345.60000610352</ele>
        <time>2018-10-30T10:50:19.000Z</time>
      </trkpt>
      <trkpt lat="43.41081" lon="5.44973">
        <ele>345.20001220703</ele>
        <time>2018-10-30T10:50:22.000Z</time>
      </trkpt>
      <trkpt lat="43.41085" lon="5.44974">
        <ele>344.20001220703</ele>
        <time>2018-10-30T10:50:29.000Z</time>
      </trkpt>
      <trkpt lat="43.41088" lon="5.44973">
        <ele>344</ele>
        <time>2018-10-30T10:50:34.000Z</time>
      </trkpt>
      <trkpt lat="43.41091" lon="5.44972">
        <ele>343.79998779297</ele>
        <time>2018-10-30T10:50:37.000Z</time>
      </trkpt>
      <trkpt lat="43.411" lon="5.44969">
        <ele>343.39999389648</ele>
        <time>2018-10-30T10:50:45.000Z</time>
      </trkpt>
      <trkpt lat="43.41106" lon="5.44967">
        <ele>342.79998779297</ele>
        <time>2018-10-30T10:50:50.000Z</time>
      </trkpt>
      <trkpt lat="43.41108" lon="5.44968">
        <ele>342.39999389648</ele>
        <time>2018-10-30T10:50:55.000Z</time>
      </trkpt>
      <trkpt lat="43.41116" lon="5.44966">
        <ele>341.79998779297</ele>
        <time>2018-10-30T10:51:04.000Z</time>
      </trkpt>
      <trkpt lat="43.41119" lon="5.44966">
        <ele>341.39999389648</ele>
        <time>2018-10-30T10:51:07.000Z</time>
      </trkpt>
      <trkpt lat="43.41125" lon="5.44966">
        <ele>341.20001220703</ele>
        <time>2018-10-30T10:51:13.000Z</time>
      </trkpt>
      <trkpt lat="43.41133" lon="5.44969">
        <ele>340.79998779297</ele>
        <time>2018-10-30T10:51:22.000Z</time>
      </trkpt>
      <trkpt lat="43.41137" lon="5.44971">
        <ele>340.39999389648</ele>
        <time>2018-10-30T10:51:26.000Z</time>
      </trkpt>
      <trkpt lat="43.41145" lon="5.44974">
        <ele>339.60000610352</ele>
        <time>2018-10-30T10:51:32.000Z</time>
      </trkpt>
      <trkpt lat="43.41148" lon="5.44977">
        <ele>339</ele>
        <time>2018-10-30T10:51:36.000Z</time>
      </trkpt>
      <trkpt lat="43.41154" lon="5.44979">
        <ele>338.39999389648</ele>
        <time>2018-10-30T10:51:42.000Z</time>
      </trkpt>
      <trkpt lat="43.41157" lon="5.44981">
        <ele>338</ele>
        <time>2018-10-30T10:51:45.000Z</time>
      </trkpt>
      <trkpt lat="43.41161" lon="5.44981">
        <ele>337.20001220703</ele>
        <time>2018-10-30T10:51:51.000Z</time>
      </trkpt>
      <trkpt lat="43.41162" lon="5.44981">
        <ele>337</ele>
        <time>2018-10-30T10:51:53.000Z</time>
      </trkpt>
      <trkpt lat="43.41164" lon="5.44981">
        <ele>336.60000610352</ele>
        <time>2018-10-30T10:51:58.000Z</time>
      </trkpt>
      <trkpt lat="43.41167" lon="5.44979">
        <ele>336</ele>
        <time>2018-10-30T10:52:03.000Z</time>
      </trkpt>
      <trkpt lat="43.41167" lon="5.44978">
        <ele>335.79998779297</ele>
        <time>2018-10-30T10:52:05.000Z</time>
      </trkpt>
      <trkpt lat="43.41169" lon="5.44976">
        <ele>335</ele>
        <time>2018-10-30T10:52:09.000Z</time>
      </trkpt>
      <trkpt lat="43.4117" lon="5.44975">
        <ele>334.60000610352</ele>
        <time>2018-10-30T10:52:11.000Z</time>
      </trkpt>
      <trkpt lat="43.41171" lon="5.44973">
        <ele>333.60000610352</ele>
        <time>2018-10-30T10:52:17.000Z</time>
      </trkpt>
      <trkpt lat="43.41171" lon="5.44973">
        <ele>333.60000610352</ele>
        <time>2018-10-30T10:52:19.000Z</time>
      </trkpt>
      <trkpt lat="43.41172" lon="5.44972">
        <ele>333.60000610352</ele>
        <time>2018-10-30T10:52:23.000Z</time>
      </trkpt>
      <trkpt lat="43.41174" lon="5.44971">
        <ele>333.20001220703</ele>
        <time>2018-10-30T10:52:25.000Z</time>
      </trkpt>
      <trkpt lat="43.41176" lon="5.4497">
        <ele>332.60000610352</ele>
        <time>2018-10-30T10:52:29.000Z</time>
      </trkpt>
      <trkpt lat="43.41178" lon="5.44968">
        <ele>332</ele>
        <time>2018-10-30T10:52:34.000Z</time>
      </trkpt>
      <trkpt lat="43.41181" lon="5.44968">
        <ele>331.39999389648</ele>
        <time>2018-10-30T10:52:37.000Z</time>
      </trkpt>
      <trkpt lat="43.41187" lon="5.44966">
        <ele>330.39999389648</ele>
        <time>2018-10-30T10:52:45.000Z</time>
      </trkpt>
      <trkpt lat="43.41193" lon="5.44962">
        <ele>329.39999389648</ele>
        <time>2018-10-30T10:52:54.000Z</time>
      </trkpt>
      <trkpt lat="43.41195" lon="5.44961">
        <ele>329.20001220703</ele>
        <time>2018-10-30T10:52:56.000Z</time>
      </trkpt>
      <trkpt lat="43.412" lon="5.44959">
        <ele>328.39999389648</ele>
        <time>2018-10-30T10:53:04.000Z</time>
      </trkpt>
      <trkpt lat="43.41203" lon="5.44955">
        <ele>328.60000610352</ele>
        <time>2018-10-30T10:53:10.000Z</time>
      </trkpt>
      <trkpt lat="43.41208" lon="5.44947">
        <ele>329.20001220703</ele>
        <time>2018-10-30T10:53:20.000Z</time>
      </trkpt>
      <trkpt lat="43.41214" lon="5.44938">
        <ele>329.39999389648</ele>
        <time>2018-10-30T10:53:29.000Z</time>
      </trkpt>
      <trkpt lat="43.41219" lon="5.44928">
        <ele>330</ele>
        <time>2018-10-30T10:53:37.000Z</time>
      </trkpt>
      <trkpt lat="43.41225" lon="5.44915">
        <ele>330.20001220703</ele>
        <time>2018-10-30T10:53:47.000Z</time>
      </trkpt>
      <trkpt lat="43.41231" lon="5.44904">
        <ele>331</ele>
        <time>2018-10-30T10:53:57.000Z</time>
      </trkpt>
      <trkpt lat="43.41234" lon="5.44899">
        <ele>331</ele>
        <time>2018-10-30T10:54:01.000Z</time>
      </trkpt>
      <trkpt lat="43.41236" lon="5.44898">
        <ele>331</ele>
        <time>2018-10-30T10:54:03.000Z</time>
      </trkpt>
      <trkpt lat="43.41237" lon="5.44896">
        <ele>331.20001220703</ele>
        <time>2018-10-30T10:54:05.000Z</time>
      </trkpt>
      <trkpt lat="43.41238" lon="5.44895">
        <ele>331.60000610352</ele>
        <time>2018-10-30T10:54:06.000Z</time>
      </trkpt>
      <trkpt lat="43.41239" lon="5.44893">
        <ele>331.60000610352</ele>
        <time>2018-10-30T10:54:08.000Z</time>
      </trkpt>
      <trkpt lat="43.41243" lon="5.44883">
        <ele>332.20001220703</ele>
        <time>2018-10-30T10:54:16.000Z</time>
      </trkpt>
      <trkpt lat="43.41244" lon="5.44873">
        <ele>332.20001220703</ele>
        <time>2018-10-30T10:54:24.000Z</time>
      </trkpt>
      <trkpt lat="43.41244" lon="5.44872">
        <ele>332.20001220703</ele>
        <time>2018-10-30T10:54:25.000Z</time>
      </trkpt>
      <trkpt lat="43.41247" lon="5.44858">
        <ele>332.20001220703</ele>
        <time>2018-10-30T10:54:37.000Z</time>
      </trkpt>
      <trkpt lat="43.41249" lon="5.44843">
        <ele>331.60000610352</ele>
        <time>2018-10-30T10:54:48.000Z</time>
      </trkpt>
      <trkpt lat="43.4125" lon="5.44832">
        <ele>331.20001220703</ele>
        <time>2018-10-30T10:54:56.000Z</time>
      </trkpt>
      <trkpt lat="43.41251" lon="5.4483">
        <ele>331</ele>
        <time>2018-10-30T10:54:58.000Z</time>
      </trkpt>
      <trkpt lat="43.4125" lon="5.44818">
        <ele>331</ele>
        <time>2018-10-30T10:55:07.000Z</time>
      </trkpt>
      <trkpt lat="43.4125" lon="5.44806">
        <ele>330.60000610352</ele>
        <time>2018-10-30T10:55:17.000Z</time>
      </trkpt>
      <trkpt lat="43.41251" lon="5.44796">
        <ele>330.20001220703</ele>
        <time>2018-10-30T10:55:24.000Z</time>
      </trkpt>
      <trkpt lat="43.4125" lon="5.44793">
        <ele>330</ele>
        <time>2018-10-30T10:55:26.000Z</time>
      </trkpt>
      <trkpt lat="43.41251" lon="5.44784">
        <ele>330</ele>
        <time>2018-10-30T10:55:33.000Z</time>
      </trkpt>
      <trkpt lat="43.41251" lon="5.4477">
        <ele>329.20001220703</ele>
        <time>2018-10-30T10:55:44.000Z</time>
      </trkpt>
      <trkpt lat="43.41252" lon="5.44767">
        <ele>329</ele>
        <time>2018-10-30T10:55:46.000Z</time>
      </trkpt>
      <trkpt lat="43.41252" lon="5.44757">
        <ele>328.39999389648</ele>
        <time>2018-10-30T10:55:54.000Z</time>
      </trkpt>
      <trkpt lat="43.41252" lon="5.44752">
        <ele>327.79998779297</ele>
        <time>2018-10-30T10:55:58.000Z</time>
      </trkpt>
      <trkpt lat="43.41253" lon="5.44742">
        <ele>327</ele>
        <time>2018-10-30T10:56:05.000Z</time>
      </trkpt>
      <trkpt lat="43.41253" lon="5.4474">
        <ele>326.60000610352</ele>
        <time>2018-10-30T10:56:07.000Z</time>
      </trkpt>
      <trkpt lat="43.41253" lon="5.44728">
        <ele>325.79998779297</ele>
        <time>2018-10-30T10:56:15.000Z</time>
      </trkpt>
      <trkpt lat="43.41254" lon="5.44722">
        <ele>325.39999389648</ele>
        <time>2018-10-30T10:56:19.000Z</time>
      </trkpt>
      <trkpt lat="43.41254" lon="5.44717">
        <ele>324.79998779297</ele>
        <time>2018-10-30T10:56:23.000Z</time>
      </trkpt>
      <trkpt lat="43.41253" lon="5.4471">
        <ele>324.39999389648</ele>
        <time>2018-10-30T10:56:28.000Z</time>
      </trkpt>
      <trkpt lat="43.41253" lon="5.44703">
        <ele>323.79998779297</ele>
        <time>2018-10-30T10:56:34.000Z</time>
      </trkpt>
      <trkpt lat="43.41252" lon="5.44695">
        <ele>323.20001220703</ele>
        <time>2018-10-30T10:56:39.000Z</time>
      </trkpt>
      <trkpt lat="43.41252" lon="5.44689">
        <ele>322.60000610352</ele>
        <time>2018-10-30T10:56:43.000Z</time>
      </trkpt>
      <trkpt lat="43.41252" lon="5.44679">
        <ele>322</ele>
        <time>2018-10-30T10:56:50.000Z</time>
      </trkpt>
      <trkpt lat="43.41253" lon="5.44676">
        <ele>322</ele>
        <time>2018-10-30T10:56:52.000Z</time>
      </trkpt>
      <trkpt lat="43.41254" lon="5.4467">
        <ele>321.39999389648</ele>
        <time>2018-10-30T10:56:57.000Z</time>
      </trkpt>
      <trkpt lat="43.41255" lon="5.44662">
        <ele>321</ele>
        <time>2018-10-30T10:57:02.000Z</time>
      </trkpt>
      <trkpt lat="43.41256" lon="5.44654">
        <ele>320.39999389648</ele>
        <time>2018-10-30T10:57:08.000Z</time>
      </trkpt>
      <trkpt lat="43.41256" lon="5.44639">
        <ele>319.60000610352</ele>
        <time>2018-10-30T10:57:18.000Z</time>
      </trkpt>
      <trkpt lat="43.41253" lon="5.44624">
        <ele>318.39999389648</ele>
        <time>2018-10-30T10:57:28.000Z</time>
      </trkpt>
      <trkpt lat="43.41252" lon="5.44623">
        <ele>318.39999389648</ele>
        <time>2018-10-30T10:57:29.000Z</time>
      </trkpt>
      <trkpt lat="43.41249" lon="5.44609">
        <ele>317.60000610352</ele>
        <time>2018-10-30T10:57:37.000Z</time>
      </trkpt>
      <trkpt lat="43.41248" lon="5.44601">
        <ele>317</ele>
        <time>2018-10-30T10:57:42.000Z</time>
      </trkpt>
      <trkpt lat="43.41246" lon="5.44595">
        <ele>316.79998779297</ele>
        <time>2018-10-30T10:57:46.000Z</time>
      </trkpt>
      <trkpt lat="43.41245" lon="5.44593">
        <ele>316.60000610352</ele>
        <time>2018-10-30T10:57:48.000Z</time>
      </trkpt>
      <trkpt lat="43.41244" lon="5.44588">
        <ele>316.60000610352</ele>
        <time>2018-10-30T10:57:51.000Z</time>
      </trkpt>
      <trkpt lat="43.41241" lon="5.44578">
        <ele>316.20001220703</ele>
        <time>2018-10-30T10:57:58.000Z</time>
      </trkpt>
      <trkpt lat="43.4124" lon="5.44572">
        <ele>315.79998779297</ele>
        <time>2018-10-30T10:58:02.000Z</time>
      </trkpt>
      <trkpt lat="43.41241" lon="5.44567">
        <ele>315.79998779297</ele>
        <time>2018-10-30T10:58:05.000Z</time>
      </trkpt>
      <trkpt lat="43.41246" lon="5.44557">
        <ele>315.60000610352</ele>
        <time>2018-10-30T10:58:10.000Z</time>
      </trkpt>
      <trkpt lat="43.4125" lon="5.44546">
        <ele>314.60000610352</ele>
        <time>2018-10-30T10:58:16.000Z</time>
      </trkpt>
      <trkpt lat="43.41253" lon="5.44539">
        <ele>314.39999389648</ele>
        <time>2018-10-30T10:58:20.000Z</time>
      </trkpt>
      <trkpt lat="43.41257" lon="5.44526">
        <ele>313.79998779297</ele>
        <time>2018-10-30T10:58:28.000Z</time>
      </trkpt>
      <trkpt lat="43.41257" lon="5.44522">
        <ele>313.60000610352</ele>
        <time>2018-10-30T10:58:31.000Z</time>
      </trkpt>
      <trkpt lat="43.41258" lon="5.44519">
        <ele>313.60000610352</ele>
        <time>2018-10-30T10:58:33.000Z</time>
      </trkpt>
      <trkpt lat="43.4126" lon="5.44512">
        <ele>313.20001220703</ele>
        <time>2018-10-30T10:58:38.000Z</time>
      </trkpt>
      <trkpt lat="43.4126" lon="5.4451">
        <ele>313.20001220703</ele>
        <time>2018-10-30T10:58:40.000Z</time>
      </trkpt>
      <trkpt lat="43.41262" lon="5.44504">
        <ele>313</ele>
        <time>2018-10-30T10:58:44.000Z</time>
      </trkpt>
      <trkpt lat="43.41263" lon="5.44497">
        <ele>312.60000610352</ele>
        <time>2018-10-30T10:58:50.000Z</time>
      </trkpt>
      <trkpt lat="43.41265" lon="5.44495">
        <ele>312.60000610352</ele>
        <time>2018-10-30T10:58:52.000Z</time>
      </trkpt>
      <trkpt lat="43.41266" lon="5.44486">
        <ele>312</ele>
        <time>2018-10-30T10:58:58.000Z</time>
      </trkpt>
      <trkpt lat="43.41267" lon="5.44475">
        <ele>311.39999389648</ele>
        <time>2018-10-30T10:59:07.000Z</time>
      </trkpt>
      <trkpt lat="43.41268" lon="5.44473">
        <ele>311.20001220703</ele>
        <time>2018-10-30T10:59:08.000Z</time>
      </trkpt>
      <trkpt lat="43.41268" lon="5.44463">
        <ele>311.20001220703</ele>
        <time>2018-10-30T10:59:16.000Z</time>
      </trkpt>
      <trkpt lat="43.41268" lon="5.44453">
        <ele>310.79998779297</ele>
        <time>2018-10-30T10:59:24.000Z</time>
      </trkpt>
      <trkpt lat="43.41269" lon="5.44437">
        <ele>310.39999389648</ele>
        <time>2018-10-30T10:59:35.000Z</time>
      </trkpt>
      <trkpt lat="43.4127" lon="5.44425">
        <ele>310.20001220703</ele>
        <time>2018-10-30T10:59:43.000Z</time>
      </trkpt>
      <trkpt lat="43.4127" lon="5.44423">
        <ele>310.20001220703</ele>
        <time>2018-10-30T10:59:45.000Z</time>
      </trkpt>
      <trkpt lat="43.41271" lon="5.44409">
        <ele>310.39999389648</ele>
        <time>2018-10-30T10:59:55.000Z</time>
      </trkpt>
      <trkpt lat="43.41272" lon="5.444">
        <ele>310</ele>
        <time>2018-10-30T11:00:02.000Z</time>
      </trkpt>
      <trkpt lat="43.41272" lon="5.44391">
        <ele>310.20001220703</ele>
        <time>2018-10-30T11:00:07.000Z</time>
      </trkpt>
      <trkpt lat="43.41272" lon="5.44388">
        <ele>310.20001220703</ele>
        <time>2018-10-30T11:00:09.000Z</time>
      </trkpt>
      <trkpt lat="43.41272" lon="5.44384">
        <ele>310.20001220703</ele>
        <time>2018-10-30T11:00:12.000Z</time>
      </trkpt>
      <trkpt lat="43.41272" lon="5.44368">
        <ele>310</ele>
        <time>2018-10-30T11:00:21.000Z</time>
      </trkpt>
      <trkpt lat="43.41273" lon="5.44355">
        <ele>310</ele>
        <time>2018-10-30T11:00:31.000Z</time>
      </trkpt>
      <trkpt lat="43.41274" lon="5.44346">
        <ele>309.60000610352</ele>
        <time>2018-10-30T11:00:39.000Z</time>
      </trkpt>
      <trkpt lat="43.41277" lon="5.44333">
        <ele>309.39999389648</ele>
        <time>2018-10-30T11:00:47.000Z</time>
      </trkpt>
      <trkpt lat="43.41277" lon="5.44332">
        <ele>309.20001220703</ele>
        <time>2018-10-30T11:00:48.000Z</time>
      </trkpt>
      <trkpt lat="43.4128" lon="5.44325">
        <ele>308.60000610352</ele>
        <time>2018-10-30T11:00:55.000Z</time>
      </trkpt>
      <trkpt lat="43.41282" lon="5.44317">
        <ele>308.39999389648</ele>
        <time>2018-10-30T11:01:01.000Z</time>
      </trkpt>
      <trkpt lat="43.41283" lon="5.44313">
        <ele>308.20001220703</ele>
        <time>2018-10-30T11:01:04.000Z</time>
      </trkpt>
      <trkpt lat="43.41286" lon="5.44292">
        <ele>307.60000610352</ele>
        <time>2018-10-30T11:01:17.000Z</time>
      </trkpt>
      <trkpt lat="43.41285" lon="5.44287">
        <ele>307.39999389648</ele>
        <time>2018-10-30T11:01:20.000Z</time>
      </trkpt>
      <trkpt lat="43.41286" lon="5.44279">
        <ele>307.39999389648</ele>
        <time>2018-10-30T11:01:27.000Z</time>
      </trkpt>
      <trkpt lat="43.41286" lon="5.4427">
        <ele>307</ele>
        <time>2018-10-30T11:01:36.000Z</time>
      </trkpt>
      <trkpt lat="43.41286" lon="5.4426">
        <ele>306.60000610352</ele>
        <time>2018-10-30T11:01:43.000Z</time>
      </trkpt>
      <trkpt lat="43.41287" lon="5.44254">
        <ele>306.39999389648</ele>
        <time>2018-10-30T11:01:47.000Z</time>
      </trkpt>
      <trkpt lat="43.41287" lon="5.44244">
        <ele>306.20001220703</ele>
        <time>2018-10-30T11:01:55.000Z</time>
      </trkpt>
      <trkpt lat="43.41288" lon="5.44231">
        <ele>305.79998779297</ele>
        <time>2018-10-30T11:02:04.000Z</time>
      </trkpt>
      <trkpt lat="43.41291" lon="5.44222">
        <ele>306</ele>
        <time>2018-10-30T11:02:10.000Z</time>
      </trkpt>
      <trkpt lat="43.41295" lon="5.44207">
        <ele>305.79998779297</ele>
        <time>2018-10-30T11:02:21.000Z</time>
      </trkpt>
      <trkpt lat="43.41296" lon="5.44198">
        <ele>305.79998779297</ele>
        <time>2018-10-30T11:02:26.000Z</time>
      </trkpt>
      <trkpt lat="43.41296" lon="5.44193">
        <ele>305.39999389648</ele>
        <time>2018-10-30T11:02:29.000Z</time>
      </trkpt>
      <trkpt lat="43.41296" lon="5.44182">
        <ele>305.39999389648</ele>
        <time>2018-10-30T11:02:36.000Z</time>
      </trkpt>
      <trkpt lat="43.41298" lon="5.44168">
        <ele>305.20001220703</ele>
        <time>2018-10-30T11:02:46.000Z</time>
      </trkpt>
      <trkpt lat="43.41301" lon="5.44157">
        <ele>304.79998779297</ele>
        <time>2018-10-30T11:02:53.000Z</time>
      </trkpt>
      <trkpt lat="43.41301" lon="5.44141">
        <ele>304.79998779297</ele>
        <time>2018-10-30T11:03:02.000Z</time>
      </trkpt>
      <trkpt lat="43.413" lon="5.44132">
        <ele>304.39999389648</ele>
        <time>2018-10-30T11:03:08.000Z</time>
      </trkpt>
      <trkpt lat="43.413" lon="5.44131">
        <ele>304.20001220703</ele>
        <time>2018-10-30T11:03:09.000Z</time>
      </trkpt>
      <trkpt lat="43.413" lon="5.44122">
        <ele>303.79998779297</ele>
        <time>2018-10-30T11:03:15.000Z</time>
      </trkpt>
      <trkpt lat="43.41301" lon="5.44112">
        <ele>303.39999389648</ele>
        <time>2018-10-30T11:03:22.000Z</time>
      </trkpt>
      <trkpt lat="43.41303" lon="5.44104">
        <ele>303</ele>
        <time>2018-10-30T11:03:27.000Z</time>
      </trkpt>
      <trkpt lat="43.41305" lon="5.44092">
        <ele>302.20001220703</ele>
        <time>2018-10-30T11:03:34.000Z</time>
      </trkpt>
      <trkpt lat="43.41305" lon="5.44088">
        <ele>302.20001220703</ele>
        <time>2018-10-30T11:03:36.000Z</time>
      </trkpt>
      <trkpt lat="43.41307" lon="5.44077">
        <ele>301.20001220703</ele>
        <time>2018-10-30T11:03:43.000Z</time>
      </trkpt>
      <trkpt lat="43.41307" lon="5.44075">
        <ele>301</ele>
        <time>2018-10-30T11:03:45.000Z</time>
      </trkpt>
      <trkpt lat="43.41309" lon="5.44072">
        <ele>300.79998779297</ele>
        <time>2018-10-30T11:03:55.000Z</time>
      </trkpt>
      <trkpt lat="43.41314" lon="5.4407">
        <ele>300.20001220703</ele>
        <time>2018-10-30T11:04:01.000Z</time>
      </trkpt>
      <trkpt lat="43.41316" lon="5.4407">
        <ele>300.20001220703</ele>
        <time>2018-10-30T11:04:04.000Z</time>
      </trkpt>
      <trkpt lat="43.41327" lon="5.44072">
        <ele>299.39999389648</ele>
        <time>2018-10-30T11:04:13.000Z</time>
      </trkpt>
      <trkpt lat="43.41332" lon="5.44073">
        <ele>299.20001220703</ele>
        <time>2018-10-30T11:04:18.000Z</time>
      </trkpt>
      <trkpt lat="43.41337" lon="5.44076">
        <ele>298.79998779297</ele>
        <time>2018-10-30T11:04:23.000Z</time>
      </trkpt>
      <trkpt lat="43.41344" lon="5.44079">
        <ele>298.20001220703</ele>
        <time>2018-10-30T11:04:30.000Z</time>
      </trkpt>
      <trkpt lat="43.4135" lon="5.44084">
        <ele>297.79998779297</ele>
        <time>2018-10-30T11:04:36.000Z</time>
      </trkpt>
      <trkpt lat="43.41353" lon="5.44091">
        <ele>297.79998779297</ele>
        <time>2018-10-30T11:04:42.000Z</time>
      </trkpt>
      <trkpt lat="43.41354" lon="5.44093">
        <ele>298</ele>
        <time>2018-10-30T11:04:43.000Z</time>
      </trkpt>
      <trkpt lat="43.4136" lon="5.44104">
        <ele>298</ele>
        <time>2018-10-30T11:04:51.000Z</time>
      </trkpt>
      <trkpt lat="43.41362" lon="5.4411">
        <ele>297.60000610352</ele>
        <time>2018-10-30T11:04:56.000Z</time>
      </trkpt>
    </trkseg>
  </trk>
</gpx>